[[{"header":{"parameterUnit":"m.s-1","parameterCategory":1,"la1":30.6,"la2":29.2853,"lo1":-89.7004,"lo2":-87.6739,"dy":0.0162,"dx":0.0183,"nx":112,"ny":82,"refTime":"2024-06-02T00:00:00:Z","depth":0,"parameterNumber":2,"parameterNumberName":"U-component_of_WINDS"},"data":[0.0,0.0,0.0,0.0,0.0,0.0,0.0,0.0,0.0,0.0,0.0,0.0,0.0,0.0,0.0,0.0,0.0,0.0,0.0,0.0,0.0,0.0,0.0,0.0,0.0,0.0,0.0,0.0,0.0,0.0,0.0,0.0,0.0,0.0,0.0,0.0,0.0,0.0,0.0,0.0,0.0,0.0,0.0,0.0,0.0,0.0,0.0,0.0,0.0,0.0,0.0,0.0,0.0,0.0,0.0,0.0,0.0,0.0,0.0,0.0,0.0,0.0,0.0,0.0,0.0,0.0,0.0,0.0,0.0,0.0,0.0,0.0,0.0,0.0,0.0,0.0,0.0,0.0,0.0,0.0,0.0,0.0,0.0,0.0,0.0,0.0,0.0,0.0,0.0,0.0,-0.1911,-0.1992,-0.2101,-0.2232,-0.2221,-0.2221,-0.2233,-0.2415,0.0,0.0,0.0,0.0,0.0,0.0,0.0,0.0,0.0,0.0,0.0,0.0,0.0,0.0,0.0,0.0,0.0,0.0,0.0,0.0,0.0,0.0,0.0,0.0,0.0,0.0,0.0,0.0,0.0,0.0,0.0,0.0,0.0,0.0,0.0,0.0,0.0,0.0,0.0,0.0,0.0,0.0,0.0,0.0,0.0,0.0,0.0,0.0,0.0,0.0,0.0,0.0,0.0,0.0,0.0,0.0,0.0,0.0,0.0,0.0,0.0,0.0,0.0,0.0,0.0,0.0,0.0,0.0,0.0,0.0,0.0,0.0,0.0,0.0,0.0,0.0,0.0,0.0,0.0,0.0,0.0,0.0,0.0,0.0,0.0,0.0,0.0,0.0,0.0,0.0,0.0,0.0,0.0,0.0,0.0,0.0,0.0,0.0,0.0,0.0,0.0,0.0,0.0,0.0,-0.1944,-0.2175,-0.2188,-0.221,-0.2225,-0.2221,-0.2233,-0.2415,0.0,0.0,0.0,0.0,0.0,0.0,0.0,0.0,0.0,0.0,0.0,0.0,0.0,0.0,0.0,0.0,0.0,0.0,0.0,0.0,0.0,0.0,0.0,0.0,0.0,0.0,0.0,0.0,0.0,0.0,0.0,0.0,0.0,0.0,0.0,0.0,0.0,0.0,0.0,0.0,0.0,0.0,0.0,0.0,0.0,0.0,0.0,0.0,0.0,0.0,0.0,0.0,0.0,0.0,0.0,0.0,0.0,0.0,0.0,0.0,0.0,0.0,0.0,0.0,0.0,0.0,0.0,0.0,0.0,0.0,0.0,0.0,0.0,0.0,0.0,0.0,0.0,0.0,0.0,0.0,0.0,0.0,0.0,0.0,0.0,0.0,0.0,0.0,0.0,0.0,0.0,0.0,0.0,0.0,0.0,0.0,0.0,0.0,0.0,0.0,0.0,0.0,0.0,-0.1958,-0.2126,-0.2211,-0.2208,-0.2219,-0.2227,-0.2221,-0.2168,-0.2166,-0.2064,0.0,0.0,0.0,0.0,0.0,0.0,0.0,0.0,0.0,0.0,0.0,0.0,0.0,0.0,0.0,0.0,0.0,0.0,0.0,0.0,0.0,0.0,0.0,0.0,0.0,0.0,0.0,0.0,0.0,0.0,0.0,0.0,0.0,0.0,0.0,0.0,0.0,0.0,0.0,0.0,0.0,0.0,0.0,0.0,0.0,0.0,0.0,0.0,0.0,0.0,0.0,0.0,0.0,0.0,0.0,0.0,0.0,0.0,0.0,0.0,0.0,0.0,0.0,0.0,0.0,0.0,0.0,0.0,0.0,0.0,0.0,0.0,0.0,0.0,0.0,0.0,0.0,0.0,0.0,0.0,0.0,0.0,0.0,0.0,0.0,0.0,0.0,0.0,0.0,0.0,0.0,0.0,0.0,0.0,0.0,0.0,0.0,0.0,0.0,0.0,0.0,0.0,-0.2142,-0.2196,-0.2196,-0.2251,-0.2256,-0.2181,-0.223,-0.2168,-0.198,-0.1849,0.0,0.0,0.0,0.0,0.0,0.0,0.0,0.0,0.0,0.0,0.0,0.0,0.0,0.0,0.0,0.0,0.0,0.0,0.0,0.0,0.0,0.0,0.0,0.0,0.0,0.0,0.0,0.0,0.0,0.0,0.0,0.0,0.0,0.0,0.0,0.0,0.0,0.0,0.0,0.0,0.0,0.0,0.0,0.0,0.0,0.0,0.0,0.0,0.0,0.0,0.0,0.0,0.0,0.0,0.0,0.0,0.0,0.0,0.0,0.0,0.0,0.0,0.0,0.0,0.0,0.0,0.0,0.0,0.0,0.0,0.0,0.0,0.0,0.0,0.0,0.0,0.0,0.0,0.0,0.0,0.0,0.0,0.0,0.0,0.0,0.0,0.0,0.0,0.0,0.0,0.0,0.0,0.0,0.0,0.0,0.0,0.0,0.0,0.0,0.0,0.0,0.0,-0.2215,-0.2323,-0.2323,-0.2373,-0.2361,-0.2178,-0.2187,-0.2168,-0.198,-0.1809,0.0,0.0,0.0,0.0,0.0,0.0,0.0,0.0,0.0,0.0,0.0,0.0,0.0,0.0,0.0,0.0,0.0,0.0,0.0,0.0,0.0,0.0,0.0,0.0,0.0,0.0,0.0,0.0,0.0,0.0,0.0,0.0,0.0,0.0,0.0,0.0,0.0,0.0,0.0,0.0,0.0,0.0,0.0,0.0,0.0,0.0,0.0,0.0,0.0,0.0,0.0,0.0,0.0,0.0,0.0,0.0,0.0,0.0,0.0,0.0,0.0,0.0,0.0,0.0,0.0,0.0,0.0,0.0,0.0,0.0,0.0,0.0,0.0,0.0,0.0,0.0,0.0,0.0,0.0,0.0,0.0,0.0,0.0,0.0,0.0,0.0,0.0,0.0,0.0,0.0,0.0,0.0,0.0,0.0,0.0,0.0,0.0,0.0,0.0,0.0,0.0,0.0,-0.2189,-0.2221,-0.2331,-0.2386,-0.2372,-0.2184,-0.2223,-0.2142,-0.1982,0.0,0.0,0.0,0.0,0.0,0.0,0.0,0.0,0.0,0.0,0.0,0.0,0.0,0.0,0.0,0.0,0.0,0.0,0.0,0.0,0.0,0.0,0.0,0.0,0.0,0.0,0.0,0.0,0.0,0.0,0.0,0.0,0.0,0.0,0.0,0.0,0.0,0.0,0.0,0.0,0.0,0.0,0.0,0.0,0.0,0.0,0.0,0.0,0.0,0.0,0.0,0.0,0.0,0.0,0.0,0.0,0.0,0.0,0.0,0.0,0.0,0.0,0.0,0.0,0.0,0.0,0.0,0.0,0.0,0.0,0.0,0.0,0.0,0.0,0.0,0.0,0.0,0.0,0.0,0.0,0.0,0.0,0.0,0.0,0.0,0.0,0.0,0.0,0.0,0.0,0.0,0.0,0.0,0.0,0.0,0.0,0.0,0.0,0.0,0.0,0.0,0.0,-0.2126,-0.2198,-0.2232,-0.2383,-0.2409,-0.2379,-0.2211,-0.2238,-0.2146,-0.1982,0.0,0.0,0.0,0.0,0.0,0.0,0.0,0.0,0.0,0.0,0.0,0.0,0.0,0.0,0.0,0.0,0.0,0.0,0.0,0.0,0.0,0.0,0.0,0.0,0.0,0.0,0.0,0.0,0.0,0.0,0.0,0.0,0.0,0.0,0.0,0.0,0.0,0.0,0.0,0.0,0.0,0.0,0.0,0.0,0.0,0.0,0.0,0.0,0.0,0.0,0.0,0.0,0.0,0.0,0.0,0.0,0.0,0.0,0.0,0.0,0.0,0.0,0.0,0.0,0.0,0.0,0.0,0.0,0.0,0.0,0.0,0.0,0.0,0.0,0.0,0.0,0.0,0.0,0.0,0.0,0.0,0.0,0.0,0.0,0.0,0.0,0.0,0.0,0.0,0.0,0.0,0.0,0.0,0.0,0.0,0.0,0.0,0.0,0.0,0.0,0.0,0.0,-0.2189,-0.226,-0.238,-0.2497,-0.2455,-0.2397,-0.2341,-0.2225,-0.2168,0.0,0.0,0.0,0.0,0.0,0.0,0.0,0.0,0.0,0.0,0.0,0.0,0.0,0.0,0.0,0.0,0.0,0.0,0.0,0.0,0.0,0.0,0.0,0.0,0.0,0.0,0.0,0.0,0.0,0.0,0.0,0.0,0.0,0.0,0.0,0.0,0.0,0.0,0.0,0.0,0.0,0.0,0.0,0.0,0.0,0.0,0.0,0.0,0.0,0.0,0.0,0.0,0.0,0.0,0.0,0.0,0.0,0.0,0.0,0.0,0.0,0.0,0.0,0.0,0.0,0.0,0.0,0.0,0.0,0.0,0.0,0.0,0.0,0.0,0.0,0.0,0.0,0.0,0.0,0.0,0.0,0.0,0.0,0.0,0.0,0.0,0.0,0.0,0.0,0.0,0.0,0.0,0.0,0.0,0.0,0.0,0.0,0.0,0.0,0.0,0.0,0.0,0.0,-0.2189,-0.226,-0.238,-0.2497,-0.2455,-0.2397,-0.2341,-0.2263,-0.2147,-0.1982,0.0,0.0,0.0,0.0,0.0,0.0,0.0,0.0,0.0,0.0,0.0,0.0,0.0,0.0,0.0,0.0,0.0,0.0,0.0,0.0,0.0,0.0,0.0,0.0,0.0,0.0,0.0,0.0,0.0,0.0,0.0,0.0,0.0,0.0,0.0,0.0,0.0,0.0,0.0,0.0,0.0,0.0,0.0,0.0,0.0,0.0,0.0,0.0,0.0,0.0,0.0,0.0,0.0,0.0,0.0,0.0,0.0,0.0,0.0,0.0,0.0,0.0,0.0,0.0,0.0,0.0,0.0,0.0,0.0,0.0,0.0,0.0,0.0,0.0,0.0,0.0,0.0,0.0,0.0,0.0,0.0,0.0,0.0,0.0,0.0,0.0,0.0,0.0,0.0,0.0,0.0,0.0,0.0,0.0,0.0,0.0,0.0,0.0,0.0,0.0,0.0,0.0,-0.2189,-0.226,-0.238,-0.2497,-0.2455,-0.2397,-0.2341,-0.2208,-0.2166,-0.1984,0.0,0.0,0.0,0.0,0.0,0.0,0.0,0.0,0.0,0.0,0.0,0.0,0.0,0.0,0.0,0.0,0.0,0.0,0.0,0.0,0.0,0.0,0.0,0.0,0.0,0.0,0.0,0.0,0.0,0.0,0.0,0.0,0.0,0.0,0.0,0.0,0.0,0.0,0.0,0.0,0.0,0.0,0.0,0.0,0.0,0.0,0.0,0.0,0.0,0.0,0.0,0.0,0.0,0.0,0.0,0.0,0.0,0.0,0.0,0.0,0.0,0.0,0.0,0.0,0.0,0.0,0.0,0.0,0.0,0.0,0.0,0.0,0.0,0.0,0.0,0.0,0.0,0.0,0.0,0.0,0.0,0.0,0.0,0.0,0.0,0.0,0.0,0.0,0.0,0.0,0.0,0.0,0.0,0.0,0.0,0.0,0.0,0.0,0.0,0.0,0.0,0.0,-0.219,-0.2264,-0.2386,-0.2499,-0.2455,-0.2397,-0.2341,-0.2208,-0.2099,-0.1922,0.0,0.0,0.0,0.0,0.0,0.0,0.0,0.0,0.0,0.0,0.0,0.0,0.0,0.0,0.0,0.0,0.0,0.0,0.0,0.0,0.0,0.0,0.0,0.0,0.0,0.0,0.0,0.0,0.0,0.0,0.0,0.0,0.0,0.0,0.0,0.0,0.0,0.0,0.0,0.0,0.0,0.0,0.0,0.0,0.0,0.0,0.0,0.0,0.0,0.0,0.0,0.0,0.0,0.0,0.0,0.0,0.0,0.0,0.0,0.0,-0.3047,-0.2906,0.0,0.0,0.0,0.0,0.0,0.0,0.0,0.0,0.0,0.0,0.0,0.0,0.0,0.0,0.0,0.0,0.0,0.0,0.0,0.0,0.0,0.0,0.0,0.0,0.0,0.0,0.0,0.0,0.0,0.0,0.0,0.0,0.0,0.0,0.0,0.0,0.0,0.0,0.0,0.0,-0.2195,-0.2298,-0.2429,-0.2503,-0.2455,-0.2397,-0.2341,-0.2208,-0.1962,-0.1487,-0.137,0.0,0.0,0.0,0.0,0.0,0.0,0.0,0.0,0.0,0.0,0.0,0.0,0.0,0.0,0.0,0.0,0.0,0.0,0.0,0.0,0.0,0.0,0.0,0.0,0.0,0.0,0.0,0.0,0.0,0.0,0.0,0.0,0.0,0.0,0.0,0.0,0.0,0.0,0.0,0.0,0.0,0.0,0.0,0.0,0.0,0.0,0.0,0.0,0.0,0.0,0.0,0.0,0.0,0.0,0.0,0.0,0.0,0.0,0.0,-0.3368,-0.3293,0.0,0.0,0.0,0.0,0.0,0.0,0.0,0.0,0.0,0.0,0.0,0.0,0.0,0.0,0.0,0.0,0.0,0.0,0.0,0.0,0.0,0.0,0.0,0.0,0.0,0.0,0.0,0.0,0.0,0.0,0.0,0.0,0.0,0.0,0.0,0.0,0.0,0.0,0.0,0.0,-0.2202,-0.2309,-0.2443,-0.2504,-0.2481,-0.2428,-0.2342,-0.2449,-0.2277,-0.1647,-0.1813,0.0,0.0,0.0,0.0,0.0,0.0,0.0,0.0,0.0,0.0,0.0,0.0,0.0,0.0,0.0,0.0,0.0,0.0,0.0,0.0,0.0,0.0,0.0,0.0,0.0,0.0,0.0,0.0,0.0,0.0,0.0,0.0,0.0,0.0,0.0,0.0,0.0,0.0,0.0,0.0,0.0,0.0,0.0,0.0,0.0,0.0,0.0,0.0,0.0,0.0,0.0,0.0,0.0,-0.392,-0.392,-0.3993,-0.3797,-0.3825,-0.4018,-0.3822,-0.3746,-0.3804,-0.3707,0.0,0.0,0.0,0.0,0.0,0.0,0.0,0.0,0.0,0.0,0.0,0.0,0.0,0.0,0.0,0.0,0.0,0.0,0.0,0.0,0.0,0.0,-0.3549,-0.3488,-0.3682,-0.3849,-0.3375,0.0,0.0,0.0,0.0,0.0,0.0,0.0,0.0,0.0,0.0,0.0,-0.2423,-0.2542,-0.2683,-0.274,-0.2744,-0.2621,-0.2507,-0.2777,-0.2754,-0.222,-0.2285,-0.1691,0.0,0.0,0.0,0.0,0.0,0.0,0.0,0.0,0.0,0.0,0.0,0.0,0.0,0.0,0.0,0.0,0.0,0.0,0.0,0.0,0.0,0.0,0.0,0.0,0.0,0.0,0.0,0.0,0.0,0.0,0.0,0.0,-0.2773,-0.3129,0.0,0.0,0.0,0.0,0.0,0.0,0.0,0.0,0.0,0.0,0.0,0.0,0.0,-0.3659,-0.3863,-0.4001,-0.4069,-0.4072,-0.4276,-0.4333,-0.4251,-0.4221,-0.4276,-0.4398,-0.4368,0.0,-0.3809,-0.3796,0.0,0.0,0.0,0.0,0.0,0.0,0.0,0.0,0.0,0.0,0.0,0.0,0.0,0.0,0.0,0.0,0.0,0.0,0.0,0.0,0.0,0.0,-0.3723,-0.4367,-0.425,-0.4183,-0.4406,-0.3959,-0.3501,-0.3397,-0.3131,-0.2925,0.0,0.0,0.0,0.0,0.0,0.0,-0.3253,-0.343,-0.3595,-0.3604,-0.3606,-0.349,-0.3097,-0.3101,-0.3134,-0.3029,-0.1951,-0.0691,0.0668,0.0401,0.0,0.0,0.0,0.0,0.0,0.0,0.0,0.0,0.0,0.0,0.0,0.0,0.0,0.0,0.0,0.0,0.0,0.0,0.0,0.0,0.0,0.0,0.0,0.0,0.0,0.0,0.0,0.0,0.0,-0.2792,-0.3069,-0.3294,-0.3278,-0.3265,0.0,0.0,0.0,0.0,0.0,0.0,0.0,0.0,0.0,-0.3852,-0.3941,-0.4066,-0.4232,-0.4357,-0.442,-0.442,-0.4666,-0.4762,-0.4711,-0.4778,-0.4877,-0.4927,-0.4927,-0.4867,-0.4644,-0.4243,-0.396,-0.3806,0.0,0.0,0.0,0.0,-0.4018,-0.4069,-0.4199,-0.4124,-0.408,-0.4064,0.0,0.0,0.0,0.0,0.0,0.0,0.0,-0.4123,-0.4382,-0.4359,-0.4382,-0.468,-0.4659,-0.4631,-0.4857,-0.4568,-0.4267,-0.4066,-0.4009,-0.3824,-0.3579,-0.3523,0.0,0.0,0.0,-0.3494,-0.3489,-0.3701,-0.3763,-0.3763,-0.3763,-0.3651,-0.3262,-0.3479,-0.3301,-0.2696,-0.2783,-0.1926,0.0317,0.0243,-0.0174,0.0,0.0,0.0,0.0,0.0,0.0,0.0,0.0,0.0,0.0,0.0,0.0,0.0,0.0,0.0,0.0,0.0,0.0,0.0,0.0,0.0,0.0,0.0,0.0,0.0,0.0,0.0,0.0,-0.3085,-0.3346,-0.3439,-0.3501,-0.3526,0.0,0.0,0.0,0.0,0.0,0.0,-0.3823,-0.4022,-0.4152,-0.4243,-0.4428,-0.4637,-0.4725,-0.4853,-0.4919,-0.4919,-0.5099,-0.512,-0.5194,-0.5335,-0.5408,-0.5408,-0.5408,-0.5408,-0.531,-0.4732,-0.4422,-0.4336,-0.4305,-0.431,-0.4287,-0.4378,-0.4433,-0.4404,-0.4488,-0.4496,-0.4466,-0.4444,-0.4355,-0.4216,-0.4063,0.0,0.0,0.0,0.0,-0.4564,-0.4564,-0.4722,-0.4879,-0.4879,-0.495,-0.5018,-0.5018,-0.4944,-0.4817,-0.4605,-0.4613,-0.4529,-0.414,-0.4148,0.0,-0.3773,-0.3924,-0.3994,-0.3951,-0.4045,-0.4075,-0.4075,-0.4075,-0.3971,-0.3675,-0.3565,-0.2964,-0.1702,-0.2627,-0.222,-0.0065,-0.0,-0.0,-0.0,0.0,0.0,0.0,0.0,0.0,0.0,0.0,0.0,0.0,0.0,0.0,0.0,0.0,0.0,0.0,0.0,0.0,0.0,0.0,0.0,0.0,0.0,0.0,0.0,0.0,0.0,0.0,0.0,0.0,-0.3574,-0.3773,0.0,0.0,0.0,0.0,-0.3848,-0.4023,-0.4204,-0.4515,-0.4651,-0.4917,-0.5253,-0.5272,-0.5284,-0.529,-0.5427,-0.5423,-0.5426,-0.5555,-0.5538,-0.5538,-0.5616,-0.5616,-0.5616,-0.5616,-0.5616,-0.5585,-0.5179,-0.508,-0.5058,-0.4937,-0.4833,-0.4735,-0.474,-0.4748,-0.4706,-0.4715,-0.4637,-0.4507,-0.4732,-0.4724,-0.4673,-0.4471,-0.4436,0.0,0.0,-0.4629,-0.4817,-0.4817,-0.4912,-0.5007,-0.5007,-0.5012,-0.5018,-0.5018,-0.5012,-0.4969,-0.4841,-0.4727,-0.4679,-0.4466,0.0,-0.445,-0.4444,-0.4558,-0.4686,-0.4734,-0.486,-0.494,-0.494,-0.494,-0.494,-0.4943,-0.3448,-0.1891,-0.0218,-0.0208,-0.0135,-0.0,-0.0,-0.0,-0.0,-0.0116,0.0,0.0,0.0,0.0,0.0,0.0,0.0,0.0,0.0,0.0,0.0,0.0,0.0,0.0,0.0,0.0,0.0,0.0,0.0,0.0,0.0,0.0,0.0,0.0,0.0,0.0,0.0,0.0,-0.3792,-0.3884,0.0,-0.3985,-0.4151,-0.4304,-0.4469,-0.4654,-0.4804,-0.5008,-0.513,-0.5222,-0.543,-0.5436,-0.5479,-0.549,-0.5539,-0.5567,-0.5567,-0.5687,-0.5789,-0.5789,-0.5948,-0.6028,-0.6028,-0.6028,-0.6028,-0.6015,-0.5934,-0.5664,-0.5355,-0.5309,-0.5249,-0.5228,-0.5315,-0.5301,-0.5266,-0.5266,-0.5234,-0.5196,-0.5052,-0.4949,-0.4905,-0.4716,-0.4811,-0.4931,-0.4931,-0.505,-0.5178,-0.5178,-0.5211,-0.5243,-0.5243,-0.5243,-0.5243,-0.5243,-0.5243,-0.523,-0.5186,-0.5021,-0.4825,-0.4693,-0.4651,-0.4678,-0.4671,-0.4692,-0.4814,-0.4936,-0.4991,-0.5018,-0.5018,-0.5018,-0.5021,-0.5029,-0.345,-0.182,-0.0073,-0.0,-0.0,-0.0,-0.0,-0.0,-0.0,-0.0,-0.0327,0.0,0.0,0.0,0.0,0.0,0.0,0.0,0.0,0.0,0.0,0.0,0.0,0.0,0.0,0.0,0.0,0.0,0.0,0.0,0.0,0.0,0.0,0.0,0.0,0.0,-0.3863,-0.3822,-0.3979,-0.4132,-0.4212,-0.4295,-0.4535,-0.4766,-0.4944,-0.5139,-0.5272,-0.5438,-0.5485,-0.5557,-0.5727,-0.5851,-0.5844,-0.5937,-0.5937,-0.5962,-0.601,-0.6038,-0.6116,-0.6162,-0.6327,-0.641,-0.641,-0.641,-0.641,-0.641,-0.641,-0.6192,-0.5867,-0.5893,-0.5768,-0.567,-0.573,-0.5783,-0.571,-0.5756,-0.5772,-0.5756,-0.5506,-0.5398,-0.5246,-0.5171,-0.5203,-0.5249,-0.5249,-0.5306,-0.5368,-0.5368,-0.5368,-0.5368,-0.5368,-0.5368,-0.5368,-0.5368,-0.5368,-0.5368,-0.5368,-0.5243,-0.5086,-0.4923,-0.4961,-0.4988,-0.4906,-0.4963,-0.5029,-0.5069,-0.5072,-0.5059,-0.5021,-0.5018,-0.5021,-0.5029,-0.3982,-0.2405,-0.0146,-0.0,-0.0,-0.0,-0.0,-0.0,-0.0,-0.0,-0.0,-0.0,0.0,0.0,0.0,0.0,0.0,0.0,0.0,0.0,0.0,0.0,0.0,0.0,0.0,0.0,0.0,0.0,0.0,0.0,0.0,0.0,0.0,0.0,0.0,-0.3655,-0.3901,-0.4124,-0.4126,-0.4537,-0.483,-0.4836,-0.5089,-0.5309,-0.5312,-0.5439,-0.5591,-0.5813,-0.587,-0.6028,-0.6274,-0.6407,-0.6478,-0.6478,-0.6478,-0.6552,-0.6698,-0.6549,-0.6556,-0.6702,-0.6702,-0.6702,-0.6702,-0.6702,-0.6702,-0.6702,-0.6702,-0.6702,-0.6685,-0.6536,-0.6232,-0.597,-0.6115,-0.6083,-0.5938,-0.6071,-0.6121,-0.6121,-0.6121,-0.5957,-0.5713,-0.5716,-0.5549,-0.5466,-0.5466,-0.5379,-0.5379,-0.5379,-0.5379,-0.5379,-0.5379,-0.5379,-0.5379,-0.5379,-0.5379,-0.5379,-0.5379,-0.5379,-0.5377,-0.5371,-0.5368,-0.5368,-0.5368,-0.5368,0.0,-0.5203,-0.5186,-0.5143,-0.5029,-0.5018,-0.5021,-0.5031,-0.4977,-0.3584,-0.0219,-0.0,-0.0,-0.0,-0.0,-0.0,-0.0,-0.0,-0.0,-0.0,0.0,0.0,0.0,0.0,0.0,0.0,0.0,0.0,0.0,0.0,0.0,0.0,0.0,0.0,0.0,0.0,0.0,0.0,0.0,0.0,0.0,-0.5239,-0.4882,-0.451,-0.4449,-0.4475,-0.4572,-0.4929,-0.5212,-0.5313,-0.55,-0.5712,-0.574,-0.594,-0.6167,-0.6264,-0.6311,-0.6381,-0.6576,-0.6617,-0.6637,-0.6637,-0.6637,-0.6658,-0.6702,-0.6658,-0.6661,-0.6702,-0.6702,-0.6702,-0.6702,-0.6702,-0.6702,-0.6702,-0.6702,-0.6702,-0.6698,-0.6654,-0.6614,-0.6498,-0.6542,-0.6555,-0.648,-0.6519,-0.6536,-0.6533,-0.6363,-0.635,-0.6351,-0.6187,-0.6165,-0.606,-0.5979,-0.5891,-0.5891,-0.5632,-0.5635,-0.5635,-0.5635,-0.5635,-0.5635,-0.5635,-0.5635,-0.5635,-0.5635,-0.5635,-0.5578,-0.5401,-0.5368,-0.5368,-0.5368,-0.5368,-0.5325,-0.5203,-0.5186,-0.5143,-0.5029,-0.5018,-0.5023,-0.504,-0.498,-0.3584,-0.0219,-0.0,-0.0,-0.0,-0.0,-0.0,-0.0,-0.0,-0.0,0.0,0.0,0.0,0.0,0.0,0.0,0.0,0.0,0.0,0.0,0.0,0.0,0.0,0.0,0.0,0.0,0.0,0.0,0.0,0.0,0.0,0.0,-0.5427,-0.5074,-0.4963,-0.4858,-0.4912,-0.5104,-0.534,-0.5587,-0.5654,-0.5894,-0.603,-0.6175,-0.6267,-0.6413,-0.6559,-0.6566,-0.661,-0.6698,-0.6763,-0.6797,-0.6797,-0.6797,-0.6824,-0.6885,-0.6824,-0.6827,-0.6885,-0.6885,-0.6885,-0.6885,-0.6885,-0.6885,-0.6885,-0.6885,-0.6885,-0.6878,0.0,0.0,0.0,0.0,-0.6797,-0.6803,-0.6865,-0.6885,-0.6885,-0.6711,-0.6685,-0.667,-0.6586,-0.6461,-0.6343,-0.6257,-0.6257,-0.6169,-0.5994,-0.5994,-0.5994,-0.5994,-0.5994,-0.5994,-0.5994,-0.5994,-0.5994,-0.5994,-0.5994,0.0,-0.5798,-0.5689,-0.5521,-0.5521,-0.5521,-0.5477,-0.5355,-0.5339,-0.5273,-0.5105,-0.4372,-0.3961,-0.3929,-0.334,0.0,0.0,0.0,-0.0,-0.0,-0.0,0.0,0.0,0.0,0.0,0.0,-0.0,0.0,0.0,-0.0,-0.0424,0.0,0.0,0.0,0.0,0.0,0.0,0.0,0.0,0.0,0.0,0.0,0.0,0.0,0.0,0.0,0.0,-0.5145,-0.4807,-0.5146,-0.5199,-0.5303,-0.5479,-0.5741,-0.5875,-0.5928,-0.6193,-0.6335,-0.6464,-0.6488,-0.6566,-0.6719,-0.6725,0.0,0.0,0.0,-0.6953,-0.6953,-0.6953,-0.7014,-0.7139,-0.7014,-0.7017,-0.7139,-0.7139,-0.7139,-0.7139,-0.7139,-0.7139,-0.7139,-0.7139,-0.7139,-0.7129,-0.7,-0.6868,-0.6766,-0.6902,-0.6953,-0.697,-0.7095,0.0,0.0,-0.7139,-0.6966,-0.6792,-0.6792,-0.67,-0.6428,-0.6432,-0.6432,-0.6432,-0.6428,-0.6428,-0.6428,-0.6428,-0.6428,-0.6428,-0.6428,-0.6428,-0.6428,-0.6428,-0.6428,-0.6428,-0.6428,-0.6083,-0.5822,-0.5822,-0.5733,-0.5689,-0.5567,-0.5551,-0.5461,-0.5314,-0.3741,0.0,-0.2282,-0.0923,-0.0076,-0.0076,-0.0074,-0.0072,-0.0068,-0.0068,-0.0068,-0.0,-0.0068,-0.007,-0.0,-0.0073,-0.0073,-0.0146,-0.0066,-0.0,0.0,0.0,0.0,0.0,0.0,0.0,0.0,0.0,0.0,0.0,0.0,0.0,0.0,0.0,0.0,-0.5907,-0.5557,-0.5353,-0.5644,-0.5791,-0.5815,-0.5722,-0.5987,-0.6227,-0.6254,-0.6363,-0.6441,-0.6471,-0.6586,-0.6722,-0.6875,-0.6885,-0.6939,-0.7051,-0.7085,-0.7099,-0.7099,-0.7099,-0.7112,-0.7139,-0.7112,0.0,-0.7139,-0.7139,-0.7139,-0.7139,-0.7139,-0.7139,-0.7139,-0.7139,-0.7139,-0.7136,-0.7109,-0.7082,-0.7058,-0.7088,-0.7099,-0.7102,-0.7132,-0.7139,-0.7139,-0.7139,-0.7051,-0.7054,-0.7054,-0.6962,0.0,-0.6789,-0.6704,-0.6704,-0.6432,-0.6428,-0.6428,-0.6428,-0.6428,-0.6428,-0.6428,-0.6428,-0.6428,-0.6428,-0.6428,-0.6428,-0.6428,-0.6343,-0.6254,-0.6254,-0.6169,-0.6039,-0.6171,-0.5978,-0.5834,-0.5856,-0.4499,-0.2887,-0.1128,-0.0631,-0.0464,-0.0455,-0.0452,-0.0519,-0.0503,-0.0513,-0.0367,-0.0,-0.0287,-0.0289,-0.0,-0.0291,-0.0663,-0.1052,-0.036,-0.0,0.0,0.0,0.0,0.0,0.0,0.0,0.0,0.0,0.0,0.0,0.0,-0.6253,-0.6065,0.0,-0.5903,-0.5782,-0.5624,-0.5579,-0.5874,-0.5983,-0.5982,-0.6056,-0.621,-0.6288,-0.6359,-0.643,-0.6536,-0.6688,-0.677,-0.6878,-0.7027,-0.7034,-0.7065,-0.7139,-0.7139,-0.7139,-0.7139,-0.7139,-0.7139,-0.7139,-0.7139,-0.7139,-0.7139,-0.7139,-0.7139,-0.7139,-0.7139,-0.7139,-0.7139,-0.7139,-0.7139,-0.7139,-0.7139,-0.7139,-0.7139,-0.7139,-0.7139,-0.7139,-0.7139,-0.7139,-0.7139,-0.7139,-0.7139,-0.7139,-0.7139,-0.7139,-0.7054,-0.6966,-0.6966,-0.6877,-0.6786,-0.6786,-0.6786,-0.6786,-0.6786,-0.6786,-0.6786,-0.6786,-0.6786,-0.6786,-0.6786,-0.6786,-0.6786,-0.6786,-0.6697,-0.6428,-0.6343,-0.6233,-0.6346,-0.6246,-0.6109,-0.616,-0.5034,-0.3547,-0.1732,-0.1213,-0.095,-0.0927,-0.0926,-0.0916,-0.0967,-0.0978,-0.0828,-0.0669,-0.0594,-0.0598,-0.0681,-0.0606,-0.0838,-0.1312,-0.0848,-0.054,0.0,0.0,0.0,0.0,0.0,0.0,0.0,-0.6057,-0.6488,-0.5934,-0.6097,-0.6267,-0.5923,-0.5878,-0.5821,-0.5617,-0.5637,-0.5759,-0.5996,-0.6057,-0.6122,-0.6247,-0.6285,-0.6346,-0.6461,-0.6525,-0.6664,-0.6909,-0.6953,-0.7021,-0.7136,-0.7139,-0.7139,-0.7139,-0.7139,-0.7139,-0.7139,-0.7139,-0.7139,-0.7139,-0.7139,-0.7139,-0.7139,-0.7139,-0.7139,-0.7139,-0.7139,-0.7139,-0.7139,-0.7139,-0.7139,-0.7139,-0.7139,-0.7139,-0.7139,-0.7139,-0.7139,-0.7139,-0.7139,-0.7139,-0.7139,-0.7139,-0.7139,-0.7139,-0.7139,-0.7139,-0.7139,-0.7139,-0.7139,-0.7139,-0.7139,-0.7139,-0.7139,-0.7139,-0.7139,-0.7139,-0.7139,-0.7139,-0.7139,-0.7139,-0.7139,-0.7139,-0.7139,-0.7139,-0.6962,-0.6605,-0.652,-0.652,-0.6517,-0.652,-0.648,-0.6461,-0.5583,-0.4325,-0.2786,-0.1823,-0.1299,-0.1268,-0.1266,-0.133,-0.1299,-0.1297,-0.1297,-0.1297,-0.0915,-0.0924,-0.1335,-0.0943,-0.0945,-0.1266,-0.1291,-0.114,-0.5932,-0.5829,-0.5583,-0.5357,-0.5681,-0.5855,0.0,-0.5378,-0.5747,-0.516,-0.5178,-0.5234,-0.5191,-0.5418,-0.5617,-0.5586,-0.581,-0.5993,-0.6023,-0.6149,-0.624,-0.6257,-0.6373,-0.6454,-0.6471,-0.6719,-0.6892,-0.6926,-0.7044,-0.7126,-0.7139,-0.7139,-0.7139,-0.7139,-0.7139,-0.7139,-0.7139,-0.7139,-0.7139,-0.7139,-0.7139,-0.7139,-0.7139,-0.7139,-0.7139,-0.7139,-0.7139,-0.7139,-0.7139,-0.7139,-0.7139,-0.7139,-0.7139,-0.7139,-0.7139,-0.7139,-0.7139,-0.7139,-0.7139,-0.7139,-0.7139,-0.7139,-0.7139,-0.7139,-0.7139,-0.7139,-0.7139,-0.7139,-0.7139,-0.7139,-0.7139,-0.7139,-0.7139,-0.7139,-0.7139,-0.7139,-0.7139,-0.7139,-0.7139,-0.7139,-0.7139,-0.7139,-0.7139,-0.7139,-0.7051,-0.7051,-0.6877,-0.6792,-0.6962,-0.6877,-0.6786,-0.7031,-0.6142,-0.4858,-0.2943,-0.1867,-0.133,-0.1299,-0.1297,-0.1284,-0.1332,-0.133,-0.133,-0.133,-0.1252,-0.1254,-0.1335,-0.1257,-0.1271,-0.1298,-0.1301,-0.1303,-0.5505,-0.5379,-0.5267,-0.5175,-0.5489,-0.5705,-0.5078,-0.5415,-0.5717,-0.5165,-0.5162,-0.5267,-0.5267,-0.5443,-0.5616,-0.5698,-0.5891,-0.6061,-0.6152,-0.622,-0.6338,-0.6338,-0.6464,-0.6607,-0.6607,-0.6722,-0.6868,-0.7037,-0.7105,-0.7139,-0.7139,-0.7139,-0.7139,-0.7139,-0.7139,-0.7139,-0.7139,-0.7139,-0.7139,-0.7139,-0.7139,-0.7139,-0.7139,-0.7139,-0.7139,-0.7139,-0.7139,-0.7139,-0.7139,-0.7139,-0.7139,-0.7139,-0.7139,-0.7139,-0.7139,-0.7139,-0.7139,-0.7139,-0.7139,-0.7139,-0.7139,-0.7139,-0.7139,-0.7139,-0.7139,-0.7139,-0.7139,-0.7139,-0.7139,-0.7139,-0.7139,-0.7139,-0.7139,-0.7139,-0.7139,-0.7139,-0.7139,-0.7139,-0.7139,-0.7139,-0.7139,-0.7139,-0.7139,-0.7139,-0.7139,-0.7139,-0.7054,-0.6966,-0.7051,-0.7054,-0.6789,-0.634,-0.5897,-0.4875,-0.2954,-0.2411,-0.1953,-0.1331,-0.1329,-0.1323,-0.1311,-0.131,-0.131,-0.131,-0.1292,-0.1292,-0.131,-0.1292,-0.1299,-0.1329,-0.1346,-0.1353,-0.5183,-0.5163,-0.5173,-0.5178,-0.5451,-0.5608,-0.5251,-0.5524,-0.5702,-0.5257,-0.5284,-0.5428,-0.5428,-0.5518,-0.5681,-0.5786,-0.5966,-0.6132,-0.6244,-0.6338,-0.6338,-0.6338,-0.6447,-0.661,-0.6695,-0.6773,-0.6909,-0.7126,-0.7139,-0.7139,-0.7139,-0.7139,-0.7139,-0.7139,-0.7139,-0.7163,-0.7204,-0.7204,-0.7224,-0.7268,-0.7268,-0.7268,-0.7265,-0.7224,-0.718,-0.7139,-0.7139,-0.7139,-0.7139,-0.7139,-0.7139,-0.7139,-0.7139,-0.7139,-0.7139,-0.7139,-0.7139,-0.7139,-0.7139,-0.7139,-0.7139,-0.7139,-0.7139,-0.7139,-0.7139,-0.7139,-0.7139,-0.7139,-0.7139,-0.7139,-0.7139,-0.7139,-0.7139,-0.7139,-0.7139,-0.7139,-0.7139,-0.7139,-0.7139,-0.7139,-0.7139,-0.7139,-0.7139,-0.7139,-0.7139,-0.7139,-0.7139,-0.7139,-0.7139,-0.7139,-0.6874,-0.6163,-0.5897,-0.5151,-0.3678,-0.3151,-0.2517,-0.1785,-0.1444,-0.1356,-0.1264,-0.1263,-0.1263,-0.1263,-0.1326,-0.1326,-0.1263,-0.1326,-0.1331,-0.136,-0.138,-0.1395,-0.5297,-0.5313,-0.5385,-0.5389,-0.5396,-0.5378,-0.5385,-0.5377,-0.5422,-0.5422,-0.5425,-0.5428,-0.5428,-0.5599,-0.5796,-0.58,-0.6057,-0.6254,-0.6261,-0.6338,-0.6338,-0.6338,-0.6345,-0.6386,-0.6671,-0.6959,-0.7132,-0.7139,-0.7139,-0.7139,-0.7139,-0.7139,-0.7139,-0.7139,-0.7139,-0.7214,-0.7363,-0.7363,-0.7438,-0.7587,-0.7587,-0.7587,-0.758,-0.7434,-0.7282,-0.7139,-0.7139,-0.7139,-0.7139,-0.7139,-0.7139,-0.7139,-0.7139,-0.7139,-0.7139,-0.7139,-0.7139,-0.7139,-0.7139,-0.7139,-0.7139,-0.7139,-0.7139,-0.7139,-0.7139,-0.7139,-0.7139,-0.7139,-0.7139,-0.7139,-0.7139,-0.7139,-0.7139,-0.7139,-0.7139,-0.7139,-0.7139,-0.7139,-0.7139,-0.7139,-0.7139,-0.7139,-0.7139,-0.7139,-0.7139,-0.7139,-0.7139,-0.7139,-0.7139,-0.7139,-0.7051,-0.7051,-0.6251,-0.5716,-0.5625,-0.3933,-0.2838,-0.2778,-0.1909,-0.1376,-0.1265,-0.1263,-0.1263,-0.1263,-0.1263,-0.1263,-0.1263,-0.1263,-0.1361,-0.1388,-0.139,-0.1406,-0.5333,-0.5404,-0.5448,-0.5548,-0.5623,-0.5608,-0.5719,-0.572,-0.569,-0.5554,-0.5554,-0.5488,-0.5425,-0.5603,-0.58,-0.58,-0.6061,-0.6338,-0.6338,-0.6342,-0.6366,-0.6349,-0.6522,-0.6705,-0.6702,-0.679,-0.6929,-0.7126,-0.7139,-0.7139,-0.7139,-0.7139,-0.7139,-0.7139,-0.7139,-0.7166,-0.7217,-0.7319,-0.7397,-0.7448,-0.755,-0.7546,-0.7451,-0.7499,-0.7441,-0.7292,-0.7292,-0.7292,-0.7285,-0.7183,-0.7139,-0.7139,-0.7139,-0.7139,-0.7139,-0.7139,-0.7139,-0.7139,-0.7139,-0.7139,-0.7139,-0.7139,-0.7139,-0.7139,-0.7139,-0.7139,-0.7139,-0.7139,-0.7139,-0.7139,-0.7139,-0.7139,-0.7139,-0.7139,-0.7139,-0.7139,-0.7139,-0.7139,-0.7139,-0.7139,-0.7139,-0.7139,-0.7139,-0.7139,-0.7139,-0.7139,-0.7139,-0.7139,-0.7139,-0.7139,-0.7139,-0.7139,-0.6786,-0.634,-0.5719,-0.5095,-0.4192,-0.2926,-0.2571,-0.2122,-0.1406,-0.1406,-0.1406,-0.1406,-0.1386,-0.1386,-0.1406,-0.1386,-0.1391,-0.142,-0.142,-0.1425,-0.5473,-0.5596,-0.5743,-0.5841,-0.5875,-0.5883,-0.5994,-0.5954,-0.5888,-0.5752,-0.5639,-0.5487,-0.5481,-0.5583,-0.5677,-0.5783,-0.6013,-0.6213,-0.6322,-0.6373,-0.6403,-0.6417,-0.6624,-0.677,-0.678,-0.678,-0.6881,-0.7122,-0.7139,-0.7139,-0.7139,-0.7139,-0.7139,-0.7139,-0.7139,-0.7193,-0.7302,-0.7404,-0.7506,-0.7611,-0.7709,-0.7678,-0.7533,-0.7631,-0.7594,-0.7451,-0.7451,-0.7451,-0.7444,-0.7346,-0.7272,-0.7221,-0.7221,-0.7187,-0.7139,-0.7139,-0.7139,-0.7139,-0.7139,-0.7139,-0.7139,-0.7139,-0.7139,-0.7139,-0.7139,-0.7139,-0.7139,-0.7139,-0.7139,-0.7139,-0.7139,-0.7139,-0.7139,-0.7139,-0.7139,-0.7139,-0.7139,-0.7139,-0.7139,-0.7139,-0.7139,-0.7139,-0.7139,-0.7139,-0.7139,-0.7139,-0.7139,-0.7139,-0.7139,-0.7139,-0.7139,-0.7139,-0.7139,-0.6874,-0.6251,-0.5897,-0.5186,-0.3937,-0.358,-0.3133,-0.2506,-0.2151,-0.1973,-0.1973,-0.1593,-0.1416,-0.1436,-0.1416,-0.1416,-0.1436,-0.1436,-0.1436,-0.5636,-0.5888,-0.6211,-0.6219,-0.6222,-0.6214,-0.6214,-0.6079,-0.5943,-0.5877,-0.5618,-0.5424,-0.5567,-0.5481,-0.5521,-0.5742,-0.5925,-0.6135,-0.643,-0.6363,-0.6386,-0.6668,-0.6586,-0.6617,-0.6902,-0.6936,-0.6997,-0.7129,-0.7139,-0.7139,-0.7139,-0.7139,-0.7143,-0.7153,-0.7153,-0.7295,-0.7597,-0.7607,-0.7753,-0.8038,-0.8038,-0.796,-0.7811,-0.7821,-0.7746,-0.7611,-0.7611,-0.7611,-0.7611,-0.7604,-0.7512,-0.7383,-0.7383,-0.7292,-0.7163,-0.7163,-0.7163,-0.7163,-0.7163,-0.7156,-0.7153,-0.7153,-0.7156,-0.7163,-0.7163,-0.7156,-0.7153,-0.7153,-0.7146,-0.7139,-0.7139,-0.7139,-0.7139,-0.7139,-0.7139,-0.7139,-0.7139,-0.7139,-0.7139,-0.7139,-0.7139,-0.7139,-0.7139,-0.7139,-0.7139,-0.7139,-0.7139,-0.7139,-0.7139,-0.7139,-0.7139,-0.7139,-0.7139,-0.7139,-0.7139,-0.6251,-0.5719,-0.5719,-0.4825,-0.4378,-0.4289,-0.3401,-0.2956,-0.2956,-0.2061,-0.1524,-0.1435,-0.1435,-0.1436,-0.1436,-0.1436,-0.1435,-0.6035,-0.6137,-0.6244,-0.6314,-0.6318,-0.635,-0.635,-0.6246,-0.6089,-0.5901,-0.57,-0.5532,-0.5454,-0.5535,-0.5628,-0.5745,-0.593,-0.6135,-0.643,-0.6539,-0.6617,-0.6692,-0.6861,-0.6959,-0.6932,-0.7024,-0.7102,-0.7136,-0.7139,-0.7139,-0.7139,-0.7139,-0.7193,-0.7309,-0.7312,-0.7404,-0.7597,-0.7702,-0.7851,-0.8038,-0.8038,-0.796,-0.7814,-0.7929,-0.7899,-0.7756,-0.7756,-0.7756,-0.775,-0.7645,-0.7577,-0.7543,-0.7543,-0.7516,-0.7482,-0.7482,-0.7482,-0.7482,-0.7482,-0.7407,-0.7312,-0.7312,-0.739,-0.7482,-0.7482,-0.7404,-0.7312,-0.7312,-0.7227,-0.7139,-0.7139,-0.7139,-0.7139,-0.7139,-0.7139,-0.7139,-0.7139,-0.7139,-0.7139,-0.7139,-0.7139,-0.7139,-0.7139,-0.7139,-0.7139,-0.7139,-0.7139,-0.7139,-0.7139,-0.7139,-0.7139,-0.7139,-0.7139,-0.7139,-0.7139,-0.6874,-0.6428,-0.5719,-0.5453,-0.5003,-0.4289,-0.4111,-0.3933,-0.3933,-0.3666,-0.3221,-0.251,-0.251,-0.2152,-0.1436,-0.2152,-0.251,-0.6182,-0.6269,-0.629,-0.6392,-0.642,-0.6396,-0.6319,-0.6281,-0.6186,-0.6228,-0.5888,-0.5608,-0.5808,-0.5611,-0.5452,-0.5737,-0.5847,-0.6081,-0.6512,-0.6586,-0.6671,-0.6868,-0.6987,-0.7041,-0.7024,-0.7095,-0.7143,-0.7234,-0.7234,-0.7231,-0.7139,-0.7289,-0.7368,-0.7366,-0.7438,-0.7543,-0.7692,-0.7838,-0.7957,-0.8038,-0.8038,-0.7994,-0.7916,-0.8001,-0.7991,-0.7913,-0.7913,-0.7913,-0.7906,-0.7824,-0.7753,-0.7692,-0.7692,-0.7746,-0.7785,-0.7785,-0.7879,-0.7973,-0.7785,-0.7775,-0.7747,-0.7588,-0.7529,-0.76,-0.76,-0.7539,-0.7458,-0.739,-0.7309,-0.7224,-0.7156,-0.7139,-0.7139,-0.7139,-0.7139,-0.7139,-0.7139,-0.7139,-0.7139,-0.7139,-0.7139,-0.7139,-0.7139,-0.7139,-0.7139,-0.7139,-0.7139,-0.7139,-0.7139,-0.7139,-0.7139,-0.7139,-0.7139,-0.7139,-0.7139,-0.7139,-0.6874,-0.634,-0.634,-0.6071,-0.5536,-0.509,-0.4914,-0.4914,-0.4467,-0.4022,-0.3489,-0.3489,-0.3221,-0.2685,-0.3221,-0.3489,-0.6244,-0.6298,-0.642,-0.642,-0.64,-0.6339,-0.6307,-0.6295,-0.6335,-0.6703,-0.6164,-0.5801,-0.6366,-0.5819,-0.5395,-0.5748,-0.5814,-0.5989,-0.6614,-0.6586,-0.6661,-0.7088,-0.7031,-0.7004,-0.7129,-0.7143,-0.7234,-0.7507,-0.7595,-0.751,-0.717,-0.7472,-0.7657,-0.7428,-0.758,-0.7719,-0.7841,-0.7974,-0.8038,-0.8038,-0.8038,-0.8041,-0.8038,-0.8038,-0.8038,-0.8137,-0.8137,-0.8137,-0.8137,-0.8137,-0.8058,-0.7938,-0.7938,-0.8051,-0.8124,-0.8124,-0.8219,-0.8404,-0.8219,-0.8122,-0.8118,-0.777,-0.7641,-0.7658,-0.7658,-0.7631,-0.757,-0.7441,-0.7373,-0.7309,-0.7177,-0.7139,-0.7139,-0.7139,-0.7139,-0.7139,-0.7139,-0.7139,-0.7139,-0.7139,-0.7139,-0.7139,-0.7139,-0.7139,-0.7139,-0.7139,-0.7139,-0.7139,-0.7139,-0.7139,-0.7139,-0.7139,-0.7139,-0.7139,-0.7139,-0.7139,-0.7139,-0.7139,-0.7139,-0.7139,-0.7139,-0.634,-0.5897,-0.5897,-0.5092,-0.4645,-0.4467,-0.4467,-0.4378,-0.4289,-0.4467,-0.4467,-0.6371,-0.6392,-0.642,-0.642,-0.6306,-0.6375,-0.6778,-0.6643,-0.6567,-0.7089,-0.6966,-0.6718,-0.6313,-0.6115,-0.5943,-0.5847,-0.5795,-0.6016,-0.66,-0.6678,-0.678,-0.7102,-0.7119,-0.7204,-0.7411,-0.7415,-0.7503,-0.7768,-0.8028,-0.7908,-0.759,-0.7622,-0.7663,-0.7726,-0.7882,-0.7974,-0.7997,-0.8024,-0.8038,-0.8038,-0.8038,-0.8137,-0.8333,-0.8333,-0.8432,-0.8627,-0.8627,-0.8627,-0.8627,-0.8627,-0.8612,-0.8587,-0.8587,-0.8667,-0.8641,-0.8641,-0.8645,-0.8739,-0.8641,-0.8565,-0.8269,-0.7918,-0.7862,-0.7963,-0.7963,-0.7794,-0.7594,-0.7567,-0.7377,-0.7173,-0.7146,-0.7139,-0.7139,-0.7139,-0.7139,-0.7139,-0.7139,-0.7139,-0.7139,-0.7139,-0.7139,-0.7139,-0.7139,-0.7139,-0.7139,-0.7139,-0.7139,-0.7139,-0.7139,-0.7139,-0.7139,-0.7139,-0.7139,-0.7139,-0.7139,-0.7139,-0.7139,-0.7139,-0.7139,-0.7139,-0.7139,-0.6962,-0.6874,-0.6874,-0.6694,-0.6251,-0.5453,-0.5453,-0.5092,-0.4289,-0.5092,-0.5453,-0.6698,-0.6724,-0.6724,-0.6724,-0.6654,-0.6715,-0.7046,-0.7011,-0.7054,-0.7538,-0.7318,-0.7079,-0.7069,-0.6875,-0.6569,-0.632,-0.6152,-0.6253,-0.6527,-0.6613,-0.6695,-0.6993,-0.7186,-0.7326,-0.7507,-0.7595,-0.7768,-0.8028,-0.8113,-0.8059,-0.761,-0.7587,-0.7681,-0.7804,-0.8055,-0.8137,-0.8038,-0.816,-0.822,-0.8122,-0.822,-0.8412,-0.8514,-0.8594,-0.8726,-0.8821,-0.8739,-0.875,-0.8817,-0.8735,-0.875,-0.8825,-0.8825,-0.8928,-0.9031,-0.9031,-0.913,-0.9225,-0.9031,-0.8931,-0.8707,-0.8351,-0.8056,-0.7923,-0.8217,-0.7966,-0.7584,-0.7684,-0.7461,-0.7241,-0.7163,-0.7139,-0.7139,-0.7139,-0.7139,-0.7139,-0.7139,-0.7139,-0.7139,-0.7139,-0.7139,-0.7139,-0.7139,-0.7139,-0.7139,-0.7139,-0.7139,-0.7139,-0.7139,-0.7139,-0.7139,-0.7139,-0.7139,-0.7139,-0.7139,-0.7139,-0.7139,-0.7139,-0.7139,-0.7139,-0.7139,-0.7139,-0.7139,-0.7139,-0.7139,-0.6874,-0.6432,-0.6432,-0.616,-0.5802,-0.6248,-0.6432,-0.7092,-0.7173,-0.7197,-0.715,-0.714,-0.7223,-0.7464,-0.7437,-0.7566,-0.8026,-0.7777,-0.7563,-0.7818,-0.7554,-0.7156,-0.6871,-0.6696,-0.6613,-0.6636,-0.6794,-0.7027,-0.7222,-0.7581,-0.794,-0.8197,-0.8113,-0.8113,-0.8548,-0.8376,-0.8044,-0.7731,-0.7728,-0.7837,-0.7952,-0.8167,-0.8234,-0.8041,-0.8408,-0.8442,-0.8254,-0.8442,-0.8538,-0.8638,-0.8758,-0.8818,-0.8815,-0.8783,-0.8802,-0.8815,-0.8821,-0.8855,-0.8973,-0.8913,-0.913,-0.9331,-0.9292,-0.9375,-0.9563,-0.9233,-0.9123,-0.9002,-0.8775,-0.8368,-0.8,-0.8449,-0.8142,-0.7712,-0.7766,-0.7619,-0.7476,-0.7351,-0.7231,-0.7143,-0.7139,-0.7139,-0.7139,-0.7139,-0.7139,-0.7139,-0.7139,-0.7139,-0.7139,-0.7139,-0.7139,-0.7139,-0.7139,-0.7139,-0.7139,-0.7139,-0.7139,-0.7139,-0.7139,-0.7139,-0.7139,-0.7139,-0.7139,-0.7139,-0.7139,-0.7139,-0.7139,-0.7139,-0.7139,-0.7139,-0.7139,-0.7139,-0.7139,-0.7139,-0.7139,-0.7139,-0.7139,-0.7139,-0.7139,-0.7514,-0.773,-0.7834,-0.7631,-0.7633,-0.78,-0.8056,-0.7978,-0.8014,-0.8593,-0.8699,-0.848,-0.7984,-0.7836,-0.7692,-0.7308,-0.7215,-0.7166,-0.7029,-0.7903,-0.8544,-0.8543,-0.869,-0.9235,-1.0529,-0.9148,-0.8636,-0.9685,-0.8811,-0.8271,-0.834,-0.8244,-0.825,-0.8265,-0.828,-0.8287,-0.8291,-0.8273,-0.8359,-0.8269,-0.8359,-0.8453,-0.8734,-0.875,-0.8855,-0.9051,-0.9035,-0.9035,-0.9063,-0.9299,-0.9364,-0.9397,-0.9465,-0.9529,-0.9509,-0.9441,-0.938,-0.936,-0.9202,-0.8953,-0.8757,-0.9031,-0.8851,-0.8464,-0.8408,-0.8158,-0.8033,-0.8018,-0.7994,-0.7875,-0.7856,-0.768,-0.7415,-0.7143,-0.7139,-0.7139,-0.7139,-0.7139,-0.7139,-0.7139,-0.7139,-0.7139,-0.7139,-0.7139,-0.7139,-0.7139,-0.7139,-0.7139,-0.7139,-0.7139,-0.7139,-0.7139,-0.7139,-0.7139,-0.7139,-0.7139,-0.7139,-0.7139,-0.7139,-0.7139,-0.7139,-0.7139,-0.7139,-0.7139,-0.7139,-0.7139,-0.7139,-0.7139,-0.7139,-0.7139,-0.7139,-0.7139,-0.8159,-0.844,-0.8571,-0.8261,-0.8251,-0.8323,-0.8532,-0.8504,-0.8527,-0.8752,-0.8804,-0.8752,-0.8474,-0.8421,-0.8327,-0.7909,-0.7731,-0.7686,-0.763,-0.8165,-0.8683,-0.9162,-0.9614,-1.0123,-1.0945,-1.0448,-1.0024,-0.9946,-0.951,-0.902,-0.8577,-0.8291,-0.8199,-0.8199,-0.8381,-0.843,-0.8337,-0.8517,-0.8559,-0.8379,-0.8559,-0.8651,-0.8746,-0.8854,-0.8999,-0.9092,-0.8978,-0.8995,-0.9092,-0.9051,-0.9096,-0.9206,-0.9279,-0.9311,-0.9299,-0.9226,-0.9202,-0.919,-0.912,-0.9003,-0.8979,-0.8966,-0.8794,-0.8745,-0.8578,-0.8351,-0.8042,-0.8131,-0.7993,-0.7944,-0.7944,-0.7856,-0.768,-0.7588,-0.7588,-0.7588,-0.7588,-0.7588,-0.7588,-0.7588,-0.7411,-0.7323,-0.7323,-0.7231,-0.7139,-0.7139,-0.7139,-0.7139,-0.7139,-0.7139,-0.7139,-0.7139,-0.7139,-0.7139,-0.7139,-0.7139,-0.7139,-0.7139,-0.7139,-0.7139,-0.7139,-0.7139,-0.7139,-0.7139,-0.7234,-0.7323,-0.7323,-0.7323,-0.7411,-0.7588,-0.7231,-0.7231,-0.889,-0.9034,-0.9067,-0.8737,-0.8731,-0.8783,-0.8811,-0.8804,-0.8804,-0.8804,-0.8804,-0.8804,-0.8804,-0.8804,-0.8711,-0.8416,-0.833,-0.8305,-0.8313,-0.8815,-0.9371,-0.9927,-1.0439,-1.1028,-1.1691,-1.1707,-1.1322,-1.0376,-1.0289,-1.0033,-0.9432,-0.8945,-0.8477,-0.8211,-0.8504,-0.8563,-0.8379,-0.8627,-0.8657,-0.8477,-0.8657,-0.8747,-0.8751,-0.8881,-0.8942,-0.8934,-0.8804,-0.882,-0.8934,-0.8852,-0.8897,-0.9019,-0.9076,-0.9096,-0.9092,-0.9035,-0.9015,-0.9007,-0.8958,-0.8942,-0.8917,-0.8787,-0.8747,-0.8747,-0.8747,-0.848,-0.812,-0.8292,-0.8204,-0.812,-0.8028,-0.8028,-0.794,-0.7944,-0.7944,-0.7944,-0.7944,-0.7944,-0.7944,-0.7944,-0.7768,-0.7595,-0.7507,-0.7323,-0.7231,-0.7139,-0.7139,-0.7139,-0.7139,-0.7139,-0.7139,-0.7139,-0.7139,-0.7139,-0.7139,-0.7139,-0.7143,-0.7231,-0.7231,-0.7231,-0.7319,-0.7319,-0.7319,-0.7319,-0.7503,-0.7591,-0.7591,-0.7591,-0.768,-0.7856,-0.7496,-0.7499,-0.9569,-0.9388,-0.9123,-0.8891,-0.8977,-0.911,-0.8878,-0.8804,-0.8804,-0.8804,-0.8804,-0.8804,-0.8804,-0.8804,-0.8804,-0.8811,-0.8997,-0.9131,-0.9012,-1.0171,-1.1108,-1.1177,-1.135,-1.2023,-1.3451,-1.3058,-1.2272,-1.1322,-1.1322,-1.1241,-1.1241,-1.0381,-0.9519,-0.866,-0.8572,-0.8572,-0.8572,-0.8572,-0.8568,-0.8568,-0.8568,-0.8568,-0.8568,-0.8572,-0.8572,-0.8572,-0.8572,-0.8572,-0.8584,-0.8751,-0.8824,-0.884,-0.9023,-0.9096,-0.9076,-0.8889,-0.8824,-0.88,-0.8629,-0.8572,-0.8572,-0.8572,-0.8568,-0.8568,-0.8568,-0.8568,-0.8568,-0.8568,-0.8568,-0.8564,-0.8288,-0.8201,-0.8113,-0.794,-0.7944,-0.7944,-0.7944,-0.7944,-0.7944,-0.7944,-0.7856,-0.7856,-0.7507,-0.7507,-0.7415,-0.7143,-0.7139,-0.7139,-0.7139,-0.7139,-0.7139,-0.7139,-0.7139,-0.7139,-0.7139,-0.7139,-0.7231,-0.7507,-0.7507,-0.7591,-0.7852,-0.7856,-0.7856,-0.7856,-0.7856,-0.7856,-0.7856,-0.7856,-0.7856,-0.7944,-0.7856,-0.7856,-1.005,-1.0019,-0.9904,-0.9227,-0.9117,-0.911,-0.8871,-0.8804,-0.8804,-0.8804,-0.8804,-0.8804,-0.8804,-0.8804,-0.8871,-0.9072,-0.9352,-0.959,-0.9746,-1.066,-1.1394,-1.1649,-1.2395,-1.3127,-1.3552,-1.3058,-1.2619,-1.2272,-1.2272,-1.2015,-1.1322,-1.1671,-1.1068,-0.9515,-0.8911,-0.8568,-0.8568,-0.8568,-0.8568,-0.8568,-0.8568,-0.8568,-0.8568,-0.8568,-0.8568,-0.8568,-0.8568,-0.8568,-0.8572,-0.8625,-0.8649,-0.8653,-0.871,-0.8735,-0.8727,-0.867,-0.8649,-0.8637,-0.8584,-0.8568,-0.8568,-0.8568,-0.8568,-0.8568,-0.8568,-0.8568,-0.8568,-0.8568,-0.8568,-0.8568,-0.8476,-0.8472,-0.8476,-0.8388,-0.8388,-0.8388,-0.8388,-0.8388,-0.8388,-0.8388,-0.8204,-0.8113,-0.8028,-0.768,-0.7507,-0.7415,-0.7231,-0.7139,-0.7139,-0.7139,-0.7316,-0.8017,-0.8017,-0.7753,-0.7139,-0.7139,-0.7231,-0.7507,-0.7507,-0.7591,-0.7856,-0.7944,-0.7944,-0.7944,-0.8025,-0.8113,-0.8113,-0.8113,-0.8028,-0.7944,-0.8208,-0.8296,-1.0423,-1.0386,-1.032,-0.9803,-0.9646,-0.9596,-0.9456,-0.9263,-0.9113,-0.9113,-0.8962,-0.8804,-0.8804,-0.8804,-0.8864,-0.9051,-0.9419,-0.9826,-1.0227,-1.0942,-1.1577,-1.1984,-1.2786,-1.3353,-1.3467,-1.3239,-1.3109,-1.3215,-1.3222,-1.296,-1.2357,-1.2534,-1.2186,-1.0982,-0.9777,-0.8911,-0.8568,-0.8568,-0.8568,-0.8568,-0.8568,-0.8568,-0.8568,-0.8568,-0.8568,-0.8568,-0.8568,-0.8568,0.0,-0.8568,-0.8568,-0.8568,-0.8568,-0.8568,-0.8568,-0.8568,-0.8568,-0.8568,-0.8568,-0.8568,-0.8568,-0.8568,-0.8568,-0.8568,-0.8568,-0.8568,-0.8568,-0.8568,-0.8568,-0.8568,-0.8568,-0.8568,-0.8568,-0.8568,-0.8568,-0.8652,-0.8999,-0.9087,-0.917,-0.9519,-0.951,-0.9327,-0.9157,-0.8899,-0.8636,-0.846,-0.8277,-0.8185,-0.8185,-0.8185,-0.8448,-0.9148,-0.9148,-0.8969,-0.8444,-0.8356,-0.8452,-0.8636,-0.8464,-0.8372,-0.864,-0.8384,-0.812,-0.812,-0.8296,-0.838,-0.838,-0.838,-0.8296,-0.8208,-0.8476,-0.8476,0.0,-1.0524,-1.0351,-1.0375,-1.0383,-1.0332,-1.0407,-1.0012,0.0,-0.9666,-0.9211,-0.8857,-0.8857,-0.8804,-0.8811,-0.8884,-0.9388,-0.9966,-1.051,-1.1049,-1.1643,-1.2231,-1.2565,-1.2936,-1.3153,-1.346,-1.3761,-1.4035,-1.4075,-1.4088,-1.4088,-1.3307,-1.279,-1.2705,-1.0977,-0.9689,-0.874,-0.8656,-0.8568,-0.8568,-0.8568,-0.8568,-0.8568,-0.8568,-0.8568,-0.8568,-0.8568,-0.8568,-0.8568,-0.8568,-0.8568,-0.8568,-0.8568,-0.8568,-0.8568,-0.8568,-0.8568,-0.8568,-0.8568,-0.8568,-0.8568,-0.8568,-0.8656,-0.8652,-0.8652,-0.8652,-0.8568,-0.8568,-0.8568,-0.8656,-0.8656,-0.8652,-0.874,-0.874,-0.8828,-0.8999,-0.9859,-1.0033,-1.0289,-1.1154,-1.1327,-1.1154,-1.0717,-1.0636,-1.0458,-1.0009,-0.9923,-0.9923,-0.9923,-0.9923,-1.0009,-1.0356,-1.0356,-1.0529,-1.0783,-1.0438,-1.0361,-1.0631,-1.0019,-0.9758,-1.0028,-0.9257,-0.874,-0.8652,-0.8656,-0.8568,-0.8568,-0.8568,-0.8568,-0.8568,-0.8568,-0.8568,-1.0388,0.0,-1.007,-0.9962,-0.9927,-0.9998,0.0,-1.0312,-1.021,-1.021,-0.9762,-0.9413,-0.9413,-0.9061,-0.9037,-0.9688,-0.9907,-1.0181,-1.0728,-1.117,-1.1643,-1.2231,-1.2565,-1.2849,-1.2929,-1.3333,-1.3592,-1.3741,-1.3961,-1.4088,-1.4088,-1.3913,-1.3483,-1.2705,-1.2272,-1.1241,-0.9602,-0.8911,-0.8568,-0.8568,-0.8568,-0.8568,-0.8568,-0.8568,-0.8568,-0.8568,-0.8568,-0.8568,-0.8568,-0.8568,-0.8568,-0.8568,-0.8568,-0.8568,-0.8568,-0.8568,-0.8568,-0.8568,-0.8568,-0.8568,-0.8568,-0.8568,-0.9087,-0.9602,-0.9602,-0.9174,-0.8568,-0.8568,-0.8568,-0.874,-0.9432,-0.9602,-0.9772,-1.0463,-1.0636,-1.0722,-1.0895,-1.0977,-1.1068,-1.1235,-1.1327,-1.1235,-1.1149,-1.0971,-1.0794,-1.0458,-1.0274,-1.0096,-0.9923,-0.9923,-1.0274,-1.1235,-1.1408,-1.1666,-1.2443,-1.1133,-1.0443,-1.0875,-1.0539,-1.0544,-1.0982,-1.0809,-1.0289,-0.9602,-0.8915,-0.8568,-0.8568,-0.8568,-0.8568,-0.8568,-0.8568,-0.8568,-1.0004,-1.0337,-1.0679,-1.0595,-1.0725,-1.0895,-1.1149,-1.099,-1.0787,-1.0787,0.0,-0.9917,-0.9666,-0.9562,-0.9671,-1.0092,-1.0229,-1.0509,-1.1066,-1.1438,-1.1797,-1.2245,-1.2445,-1.2592,-1.2808,-1.3039,-1.3293,-1.3434,-1.3594,-1.3687,-1.3687,-1.3687,-1.3434,-1.2928,-1.2508,-1.1528,-0.9946,-0.9428,-0.8999,-0.8568,-0.8568,-0.8568,-0.8568,-0.8568,-0.8568,-0.8568,-0.8568,-0.8568,-0.8568,-0.8568,-0.8568,-0.8568,-0.8568,-0.8568,-0.8568,-0.8568,-0.8568,-0.8568,-0.8568,-0.8828,-0.9257,-0.9689,-1.012,-1.0549,-1.0549,-1.0207,-0.9864,-0.9864,-0.9864,-0.9946,-1.0463,-1.0549,-1.0636,-1.1149,-1.1327,-1.1413,-1.1843,-1.1929,-1.21,-1.2534,-1.2613,-1.2528,-1.2443,-1.2351,-1.2089,-1.1843,-1.1666,-1.1483,-1.1225,-1.1139,-1.1488,-1.2357,-1.2448,-1.279,-1.3483,-1.2437,-1.1826,-1.2089,-1.1666,-1.1585,-1.1929,-1.1494,-1.1068,-1.0549,-1.012,-0.9864,-0.9864,-0.9864,-0.9602,-0.917,-0.917,-0.917,-0.9796,-1.0563,-1.1397,-1.1397,-1.1645,-1.1969,-1.2049,0.0,0.0,0.0,0.0,-1.0423,-0.9925,-1.011,-1.0337,-1.0301,-1.0453,-1.0785,-1.133,-1.1643,-1.1924,-1.2265,-1.2305,-1.2405,-1.2728,-1.2795,-1.2859,-1.312,-1.318,-1.3213,-1.3213,-1.3213,-1.3213,-1.3213,-1.2399,-1.1472,-1.0186,-1.0139,-0.9643,-0.896,-0.8811,-0.8828,-0.8828,-0.8652,-0.8568,-0.8568,-0.8568,-0.8656,-0.8828,-0.8652,-0.8656,-0.8828,-0.8652,-0.8568,-0.8656,-0.874,-0.8828,-0.8828,-0.8999,-0.9515,-1.0202,-1.1063,-1.1408,-1.1499,-1.1499,-1.1585,-1.1757,-1.1757,-1.1499,-1.1322,-1.1499,-1.1499,-1.1585,-1.1671,-1.1757,-1.1929,-1.2705,-1.2875,-1.3137,-1.3913,-1.4088,-1.4004,-1.3822,-1.3737,-1.3652,-1.3222,-1.3222,-1.3137,-1.2875,-1.279,-1.296,-1.3398,-1.3392,-1.3568,-1.4004,-1.3652,-1.3398,-1.3398,-1.2881,-1.2619,-1.2875,-1.2015,-1.1499,-1.1499,-1.1413,-1.1327,-1.1327,-1.1327,-1.0895,-1.0115,-1.0115,-1.0115,-1.0169,-1.0597,-1.1002,-1.1002,-1.1048,-1.1269,-1.192,-1.1771,0.0,0.0,0.0,0.0,-1.1065,-1.0527,-1.0301,-1.0724,-1.0808,-1.0965,-1.1364,-1.1463,-1.1697,-1.2238,-1.2305,-1.2318,-1.2365,-1.2599,-1.2842,-1.2889,-1.306,-1.3213,-1.3213,-1.3213,-1.3213,-1.3213,-1.3048,-1.2523,-1.1543,-1.1012,-1.0695,-1.0531,-0.9947,-0.9685,-0.9689,-0.8911,-0.8568,-0.8568,-0.8568,-0.8999,-0.9602,-0.8915,-0.8999,-0.9598,-0.8911,-0.8568,-0.8652,-0.9432,-0.9685,-0.9772,-1.0636,-1.0982,-1.1149,-1.1235,-1.1843,-1.2534,-1.2534,-1.3045,-1.3652,-1.3652,-1.2534,-1.1499,-1.2272,-1.2534,-1.2705,-1.3483,-1.3652,-1.3737,-1.3828,-1.3913,-1.3913,-1.4088,-1.4088,-1.4088,-1.4082,-1.4004,-1.3913,-1.3652,-1.3652,-1.3561,-1.3307,-1.3137,-1.3222,-1.3652,-1.3483,-1.3483,-1.3737,-1.3568,-1.3398,-1.3398,-1.3307,-1.3483,-1.3828,-1.296,-1.2534,-1.2534,-1.1666,-1.1327,-1.1327,-1.1327,-1.1241,-1.1068,-1.1068,-1.1068,-1.0438,-1.077,-1.1132,-1.1132,-1.1324,-1.1665,-1.2043,-1.1938,-1.1856,0.0,-1.1877,-1.1628,-1.1368,-1.1412,-1.1622,-1.1911,-1.1881,-1.1832,-1.1924,-1.1628,-1.1643,-1.2231,-1.2305,-1.2305,-1.2305,-1.2425,-1.2505,-1.2505,-1.2639,-1.2719,-1.2719,-1.2719,-1.2719,-1.2719,-1.2719,-1.249,-1.2094,-1.1975,-1.1612,-1.0893,-1.0701,-1.0636,-1.0636,-1.0207,-1.0033,-1.0033,-1.0033,-1.0294,-1.0636,-1.0207,-1.0294,-1.0636,-1.0207,-1.0033,-1.012,-1.0549,-1.0636,-1.0809,-1.1757,-1.21,-1.21,-1.2619,-1.313,-1.3483,-1.3483,-1.3743,-1.4088,-1.4088,-1.3483,-1.2875,-1.3313,-1.3483,-1.3568,-1.4004,-1.4088,-1.4088,-1.4088,-1.4088,-1.4088,-1.4088,-1.4088,-1.4088,-1.4088,-1.4088,-1.3997,-1.3737,-1.3652,-1.3483,-1.3398,-1.3137,-1.3052,-1.3652,-1.3483,-1.3568,-1.3913,-1.3737,-1.3483,-1.3398,-1.3483,-1.3737,-1.4088,-1.3659,-1.3483,-1.3483,-1.3045,-1.279,-1.279,-1.279,-1.2528,-1.21,-1.21,-1.21,-1.0713,-1.1069,-1.146,-1.1433,-1.1705,-1.1966,-1.2058,-1.2003,-1.2015,-1.2058,-1.2076,-1.1977,-1.1578,-1.2111,-1.2627,-1.278,-1.2526,-1.2296,-1.2314,-1.1784,-1.1617,-1.2138,-1.2265,-1.2305,-1.2305,-1.2305,-1.2305,-1.2305,-1.2305,-1.2305,-1.2305,-1.2305,-1.2305,-1.2305,-1.2305,-1.2305,-1.2305,-1.2599,-1.2342,-1.1385,-1.1438,-1.1503,-1.1503,-1.1386,-1.1327,-1.1327,-1.1327,-1.1408,-1.1585,-1.1408,-1.1408,-1.1585,-1.1413,-1.1408,-1.1671,-1.1671,-1.1757,-1.21,-1.279,-1.3052,-1.3137,-1.3828,-1.4088,-1.4088,-1.4088,-1.4088,-1.4088,-1.4088,-1.4088,-1.4088,-1.4088,-1.4088,-1.4088,-1.4088,-1.4088,-1.4088,-1.4088,-1.4088,-1.4088,-1.4088,-1.4088,-1.4088,-1.4088,-1.4088,-1.4004,-1.3822,-1.3652,-1.3568,-1.3568,-1.3222,-1.313,-1.3737,-1.3568,-1.3652,-1.3997,-1.3822,-1.3652,-1.3476,-1.3652,-1.3822,-1.4088,-1.4088,-1.4088,-1.4088,-1.4088,-1.4088,-1.4088,-1.4088,-1.3743,-1.3052,-1.3052,-1.3052,-1.1136,-1.1516,-1.187,-1.1868,-1.1705,-1.1627,-1.1994,-1.1792,-1.1636,-1.2003,-1.2076,-1.2076,-1.2026,-1.2219,-1.2352,-1.2482,-1.2012,-1.167,-1.2021,-1.1653,-1.1543,-1.1864,-1.2138,-1.2305,-1.2305,-1.2305,-1.2305,-1.2305,-1.2305,-1.2305,-1.2305,-1.2305,-1.2305,-1.2305,-1.2305,-1.2305,-1.2305,-1.2599,-1.2766,-1.2659,-1.2338,-1.226,-1.2183,-1.1566,-1.1327,-1.1327,-1.1327,-1.1757,-1.2534,-1.1671,-1.1843,-1.2528,-1.1666,-1.1843,-1.2619,-1.2619,-1.3137,-1.3913,-1.4004,-1.4004,-1.4004,-1.4088,-1.4088,-1.4088,-1.4088,-1.4088,-1.4088,-1.4088,-1.4088,-1.4088,-1.4088,-1.4088,-1.4088,-1.4088,-1.4088,-1.4088,-1.4088,-1.4088,-1.4088,-1.4088,-1.4088,-1.4088,-1.4088,-1.4088,-1.4088,-1.4088,-1.4088,-1.4082,-1.4082,-1.3828,-1.3737,-1.4004,-1.3828,-1.3652,-1.3737,-1.3737,-1.3652,-1.3652,-1.3652,-1.3822,-1.4088,-1.4088,-1.4088,-1.4088,-1.4088,-1.4088,-1.4088,-1.4088,-1.4088,-1.4004,-1.4004,-1.4004,-1.1425,-1.1899,-1.2371,-1.2233,-1.2528,-1.2704,-1.2187,-1.2199,-1.231,-1.2466,-1.2654,-1.291,-1.3158,-1.3077,-1.3088,-1.3639,-1.3208,-1.2709,-1.2613,-1.2131,-1.1803,-1.1881,-1.1964,-1.2104,-1.2285,-1.2305,-1.2305,-1.2305,-1.2305,-1.2305,-1.2305,-1.2305,-1.2305,-1.2305,-1.2305,-1.2305,-1.2305,-1.2412,-1.2472,-1.2478,-1.2765,-1.2885,-1.2891,-1.2582,-1.2462,-1.2474,-1.264,-1.2964,-1.3233,-1.3062,-1.3121,-1.3201,-1.2694,-1.2713,-1.3065,-1.3239,-1.347,-1.3841,-1.4021,-1.3968,-1.3841,-1.4028,-1.3961,-1.3848,-1.4035,-1.4088,-1.4088,-1.4088,-1.4088,-1.4088,-1.4088,-1.4088,-1.4088,-1.4088,-1.4088,-1.4088,-1.4088,-1.4088,-1.4088,-1.4088,-1.4088,-1.4088,-1.4088,-1.4088,-1.4088,-1.4088,-1.3997,-1.3913,-1.4088,-1.3737,-1.3652,-1.4088,-1.3997,-1.3913,-1.3913,-1.3828,-1.3737,-1.3913,-1.3822,-1.3822,-1.4088,-1.4088,-1.4088,-1.4088,-1.4088,-1.4088,-1.4088,-1.4088,-1.4088,-1.4088,-1.4088,-1.4088,-1.1855,-1.2469,-1.3065,-1.2807,-1.3212,-1.3457,-1.2598,-1.262,-1.2763,-1.2687,-1.2945,-1.3313,-1.3782,-1.3617,-1.3617,-1.4378,-1.395,-1.3414,-1.3222,-1.2477,-1.1999,-1.1957,-1.181,-1.1844,-1.2138,-1.2164,-1.2204,-1.2291,-1.2305,-1.2305,-1.2305,-1.2305,-1.2305,-1.2305,-1.2305,-1.2305,-1.2305,-1.2305,-1.2305,-1.2305,-1.2726,-1.2973,-1.3066,-1.3166,-1.3213,-1.322,-1.342,-1.3507,-1.352,-1.3728,-1.3694,-1.3487,-1.3287,-1.3213,-1.3233,-1.3434,-1.3507,-1.3534,-1.3741,-1.3674,-1.354,-1.3741,-1.3674,-1.354,-1.3748,-1.3808,-1.3808,-1.3808,-1.3808,-1.3808,-1.3808,-1.3881,-1.3948,-1.3948,-1.3948,-1.3948,-1.3948,-1.4021,-1.4088,-1.4088,-1.4088,-1.4088,-1.4088,-1.4088,-1.4088,-1.4088,-1.3913,-1.3913,-1.4088,-1.3828,-1.3737,-1.4088,-1.4088,-1.4088,-1.4088,-1.3913,-1.3913,-1.4088,-1.3913,-1.3913,-1.4088,-1.4088,-1.4088,-1.4088,-1.4088,-1.4088,-1.4088,-1.4088,-1.4088,-1.4088,-1.4088,-1.4088,-1.2435,-1.3242,-1.3905,-1.3586,-1.3662,-1.3674,-1.3112,-1.3016,-1.2959,-1.2735,-1.2828,-1.3131,-1.3792,-1.3673,-1.3737,-1.4378,-1.3941,-1.3511,-1.3511,-1.2641,-1.2028,-1.1971,-1.1646,-1.1536,-1.1837,-1.187,-1.1991,-1.2278,-1.2305,-1.2305,-1.2305,-1.2305,-1.2305,-1.2305,-1.2305,-1.2305,-1.2305,-1.2305,-1.2305,-1.2305,-1.2305,-1.2458,-1.2829,-1.306,-1.32,-1.32,-1.32,-1.3206,-1.3206,-1.3206,-1.3206,-1.3206,-1.32,-1.32,-1.32,-1.32,-1.3206,-1.3206,-1.3213,-1.3206,-1.3206,-1.3213,-1.3206,-1.3206,-1.3213,-1.3213,-1.3213,-1.3213,-1.3206,-1.3206,-1.3206,-1.342,-1.3634,-1.3641,-1.3641,-1.3641,-1.3641,-1.3868,-1.4082,-1.4082,-1.4082,-1.4082,-1.4088,-1.4088,-1.4088,-1.4088,-1.4088,-1.4088,-1.4088,-1.4088,-1.4088,-1.4088,-1.4088,-1.4088,-1.4088,-1.4088,-1.4088,-1.4088,-1.4088,-1.4088,-1.4088,-1.4088,-1.4088,-1.4088,-1.4088,-1.4088,-1.4088,-1.4088,-1.4088,-1.4088,-1.4088,-1.4088,-1.2184,-1.2789,-1.3415,-1.3553,-1.4005,-1.4236,-1.36,-1.3224,-1.3113,-1.3234,-1.322,-1.3322,-1.3791,-1.3838,-1.3949,-1.4423,-1.4428,-1.4172,-1.3571,-1.3291,-1.2899,-1.2071,-1.192,-1.1766,-1.1599,-1.175,-1.1904,-1.1991,-1.2184,-1.2305,-1.2305,-1.2305,-1.2305,-1.2305,-1.2305,-1.2305,-1.2305,-1.2305,-1.2305,-1.2305,-1.2305,-1.2345,-1.2438,-1.2525,-1.2572,-1.2585,-1.2792,-1.2886,-1.2886,-1.2886,-1.2886,-1.2866,-1.2652,-1.2572,-1.2599,-1.2806,-1.2886,-1.2913,-1.3133,-1.3066,-1.2919,-1.314,-1.3066,-1.2926,-1.314,-1.3213,-1.3286,-1.381,-1.3952,-1.4109,-1.4654,-1.4712,-1.4443,-1.3518,-1.334,-1.334,-1.334,-1.3407,-1.3534,-1.3734,-1.3774,-1.3841,-1.4048,-1.4088,-1.4088,-1.4088,-1.4088,-1.4088,-1.4088,-1.4088,-1.4088,-1.4088,-1.4088,-1.4088,-1.4088,-1.4088,-1.4088,-1.4088,-1.4088,-1.4088,-1.4088,-1.4088,-1.4088,-1.4088,-1.4088,-1.4088,-1.4088,-1.4088,-1.4088,-1.4088,-1.4088,-1.4088,-1.2842,-1.336,-1.3732,-1.4232,-1.4461,-1.434,-1.3525,-1.3184,-1.3058,-1.3206,-1.3392,-1.3625,-1.3922,-1.3996,-1.4192,-1.4551,-1.4666,-1.4538,-1.4172,-1.3692,-1.3099,-1.238,-1.1774,-1.1386,-1.1357,-1.1478,-1.1708,-1.1823,-1.1999,-1.2029,-1.1957,-1.2064,-1.2131,-1.2131,-1.2238,-1.2305,-1.2305,-1.2305,-1.2305,-1.2305,-1.2305,-1.2305,-1.2305,-1.2305,-1.2305,-1.2311,-1.2492,-1.2565,-1.2565,-1.2565,-1.2565,-1.2552,-1.2371,-1.2305,-1.2325,-1.2505,-1.2565,-1.2599,-1.2786,-1.2954,-1.3119,-1.3244,-1.3395,-1.3561,-1.3694,-1.3751,-1.3827,-1.426,-1.4404,-1.4554,-1.5005,-1.5004,-1.4719,-1.4088,-1.3944,-1.3867,-1.3557,-1.3804,-1.3952,-1.3514,-1.3695,-1.3871,-1.3944,-1.3908,-1.3948,-1.4068,-1.4088,-1.4088,-1.4088,-1.4088,-1.4088,-1.4088,-1.4088,-1.4088,-1.4088,-1.4088,-1.4088,-1.4088,-1.4088,-1.4088,-1.4088,-1.4088,-1.4088,-1.4088,-1.4088,-1.4088,-1.4088,-1.4088,-1.4088,-1.4088,-1.4088,-1.4088,-1.393,-1.4467,-1.451,-1.5257,-1.4869,-1.4025,-1.3113,-1.2864,-1.2875,-1.2875,-1.3413,-1.3886,-1.4035,-1.4204,-1.4421,-1.4709,-1.4715,-1.4715,-1.497,-1.3752,-1.2826,-1.2826,-1.1545,-1.0853,-1.1118,-1.1231,-1.1361,-1.1642,-1.1683,-1.1635,-1.1423,-1.1753,-1.1915,-1.1942,-1.2124,-1.2278,-1.2305,-1.2305,-1.2305,-1.2305,-1.2305,-1.2305,-1.2305,-1.2305,-1.2305,-1.2305,-1.2305,-1.2305,-1.2305,-1.2305,-1.2305,-1.2305,-1.2305,-1.2305,-1.2305,-1.2305,-1.2305,-1.2305,-1.2378,-1.2879,-1.3528,-1.36,-1.4034,-1.4601,-1.4601,-1.4601,-1.4601,-1.4673,-1.4744,-1.4744,-1.4816,-1.4816,-1.4904,-1.5153,-1.516,-1.4856,-1.4111,-1.4721,-1.5027,-1.3625,-1.3917,-1.4237,-1.3784,-1.3702,-1.3823,-1.4041,-1.4088,-1.4088,-1.4088,-1.4088,-1.4088,-1.4088,-1.4088,-1.4088,-1.4088,-1.4088,-1.4088,-1.4088,-1.4088,-1.4088,-1.4088,-1.4088,-1.4088,-1.4088,-1.4088,-1.4088,-1.4088,-1.4088,-1.4088,-1.4088,-1.4088,-1.4088,-1.3223,-1.3727,-1.3903,-1.4845,-1.4676,-1.3941,-1.2968,-1.2743,-1.2761,-1.2761,-1.3036,-1.3394,-1.3704,-1.4053,-1.4421,-1.4845,-1.4588,-1.446,-1.4911,-1.3941,-1.3078,-1.2826,-1.2158,-1.145,-1.096,-1.1245,-1.1476,-1.1546,-1.1769,-1.1833,-1.1765,-1.1765,-1.1839,-1.207,-1.2002,-1.2071,-1.2298,-1.2305,-1.2305,-1.2305,-1.2305,-1.2305,-1.2305,-1.2305,-1.2305,-1.2305,-1.2305,-1.2305,-1.2305,-1.2305,-1.2305,-1.2305,-1.2305,-1.2305,-1.2305,-1.2305,-1.2305,-1.2372,-1.3025,-1.339,-1.3608,-1.4178,-1.4458,-1.4601,-1.4601,-1.4601,-1.4752,-1.533,-1.5542,-1.5692,-1.6254,-1.6403,-1.6421,-1.651,-1.5589,-1.4648,-1.4496,-1.4623,-1.4765,-1.4674,-1.4795,-1.4744,-1.423,-1.4351,-1.4472,-1.4126,-1.4088,-1.4088,-1.4088,-1.4088,-1.4088,-1.4088,-1.4088,-1.4088,-1.4088,-1.4088,-1.4088,-1.4088,-1.4088,-1.4088,-1.4088,-1.4088,-1.4088,-1.4088,-1.4088,-1.4088,-1.4088,-1.4088,-1.4088,-1.4088,-1.4088,-1.4088,-1.3166,-1.361,-1.3614,-1.4751,-1.4631,-1.4035,-1.3286,-1.2968,-1.2783,-1.2783,-1.3063,-1.3359,-1.3475,-1.4029,-1.4525,-1.4744,-1.477,-1.4715,-1.4725,-1.3863,-1.307,-1.2642,-1.1973,-1.1428,-1.1052,-1.1263,-1.1425,-1.1425,-1.1509,-1.1593,-1.1535,-1.1542,-1.162,-1.1642,-1.1791,-1.2073,-1.2655,-1.2662,-1.2876,-1.3382,-1.3382,-1.3382,-1.3382,-1.2659,-1.2305,-1.2305,-1.2305,-1.2305,-1.2305,-1.2305,-1.2305,-1.2372,-1.2732,-1.2879,-1.2952,-1.3237,-1.3382,-1.3455,-1.389,-1.425,-1.4681,-1.5037,-1.5392,-1.5683,-1.5683,-1.5683,-1.5824,-1.6193,-1.6333,-1.6403,-1.6769,-1.6908,-1.6908,-1.6908,-1.6263,-1.5613,-1.5251,-1.5463,-1.5522,-1.4985,-1.5178,-1.5284,-1.4804,-1.4613,-1.4554,-1.4482,-1.4117,-1.3928,-1.4068,-1.4088,-1.4088,-1.4088,-1.4088,-1.4088,-1.4088,-1.4088,-1.4088,-1.4088,-1.4088,-1.4088,-1.4088,-1.4496,-1.4496,-1.4088,-1.3948,-1.3948,-1.4088,-1.3941,-1.3948,-1.4088,-1.4088,-1.4088,-1.3083,-1.3631,-1.3674,-1.4785,-1.4777,-1.4305,-1.3847,-1.3344,-1.3017,-1.3017,-1.3204,-1.3367,-1.3333,-1.3922,-1.4414,-1.4492,-1.4697,-1.4772,-1.4594,-1.3639,-1.2874,-1.2504,-1.167,-1.1247,-1.1303,-1.1303,-1.1365,-1.1365,-1.1428,-1.1483,-1.1365,-1.161,-1.1711,-1.1442,-1.1819,-1.2305,-1.2961,-1.31,-1.3607,-1.4585,-1.4649,-1.4673,-1.4601,-1.331,-1.2739,-1.2739,-1.2739,-1.2739,-1.2739,-1.2739,-1.2739,-1.2732,-1.3455,-1.3673,-1.3745,-1.4386,-1.4601,-1.4601,-1.4744,-1.5251,-1.5833,-1.5974,-1.6403,-1.6908,-1.6908,-1.6908,-1.6908,-1.6908,-1.6908,-1.6908,-1.6908,-1.6908,-1.6908,-1.6908,-1.6908,-1.676,-1.6114,-1.6482,-1.6542,-1.5251,-1.5401,-1.566,-1.5365,-1.4835,-1.4521,-1.4866,-1.4405,-1.4131,-1.4386,-1.4545,-1.458,-1.458,-1.458,-1.458,-1.458,-1.458,-1.458,-1.458,-1.458,-1.458,-1.458,-1.5228,-1.5289,-1.442,-1.4221,-1.4241,-1.458,-1.4241,-1.4166,-1.4334,-1.4496,-1.4496,-1.1832,-1.3155,-1.4296,-1.4933,-1.5062,-1.4869,-1.4351,-1.3847,-1.3525,-1.3525,-1.325,-1.3076,-1.3387,-1.3542,-1.3747,-1.4107,-1.378,-1.3774,-1.4646,-1.3238,-1.2297,-1.3028,-1.2166,-1.1498,-1.131,-1.1435,-1.156,-1.156,-1.2035,-1.2328,-1.2328,-1.2744,-1.2859,-1.2538,-1.2956,-1.3079,-1.2908,-1.3498,-1.4001,-1.4494,-1.4741,-1.4824,-1.4832,-1.4617,-1.4466,-1.4314,-1.4314,-1.4314,-1.4314,-1.4314,-1.4314,-1.4314,-1.4386,-1.4458,-1.4458,-1.453,-1.4601,-1.4673,-1.5401,-1.5692,-1.5903,-1.6551,-1.6839,-1.6908,-1.6908,-1.6908,-1.6908,-1.6908,-1.6908,-1.6908,-1.6908,-1.6908,-1.6908,-1.6908,-1.6908,-1.6908,-1.676,-1.683,-1.6839,-1.6621,-1.6184,-1.5882,-1.6032,-1.5462,-1.5091,-1.5358,-1.5591,-1.5808,-1.5854,-1.611,-1.637,-1.637,-1.637,-1.637,-1.637,-1.637,-1.637,-1.637,-1.637,-1.637,-1.637,-1.6453,-1.6312,-1.587,-1.6095,-1.6324,-1.637,-1.6324,-1.5921,-1.5228,-1.5966,-1.5966,-1.1829,-1.3492,-1.4833,-1.5381,-1.5289,-1.5062,-1.4823,-1.4165,-1.3621,-1.3621,-1.3248,-1.2939,-1.3125,-1.335,-1.3574,-1.375,-1.371,-1.3768,-1.3893,-1.3191,-1.2594,-1.2484,-1.2054,-1.1715,-1.1476,-1.156,-1.1622,-1.1622,-1.2158,-1.2512,-1.2512,-1.307,-1.3275,-1.3,-1.3178,-1.3484,-1.3857,-1.4115,-1.4802,-1.5797,-1.5916,-1.6111,-1.6324,-1.6324,-1.5754,-1.4752,-1.4752,-1.4681,-1.4601,-1.4601,-1.4601,-1.4673,-1.5108,-1.5251,-1.533,-1.5754,-1.5895,-1.5974,-1.6263,-1.6403,-1.6482,-1.676,-1.6908,-1.6908,-1.6908,-1.6908,-1.6908,-1.6908,-1.6908,-1.6908,-1.6908,-1.6908,-1.6908,-1.6908,-1.6908,-1.6908,-1.6908,-1.6908,-1.6908,-1.6908,-1.6621,-1.6456,-1.6555,-1.6002,-1.5543,-1.5831,-1.5718,-1.566,-1.6055,-1.6237,-1.6484,-1.6675,-1.6698,-1.6698,-1.6698,-1.6698,-1.6698,-1.6698,-1.6698,-1.6698,-1.6698,-1.718,-1.7266,-1.683,-1.6379,-1.6222,-1.6332,-1.6222,-1.6165,-1.6131,-1.6535,-1.6453,-1.1886,-1.3444,-1.4593,-1.5396,-1.5419,-1.5289,-1.5289,-1.4593,-1.3941,-1.38,-1.3382,-1.3017,-1.2929,-1.3135,-1.335,-1.335,-1.3613,-1.369,-1.3318,-1.3121,-1.2822,-1.2291,-1.2182,-1.2055,-1.1714,-1.175,-1.174,-1.1622,-1.2343,-1.2757,-1.2757,-1.3554,-1.3863,-1.3554,-1.3666,-1.3995,-1.455,-1.4834,-1.5512,-1.6523,-1.6797,-1.7073,-1.7377,-1.7482,-1.6757,-1.5469,-1.55,-1.5392,-1.5242,-1.518,-1.518,-1.5251,-1.5833,-1.6044,-1.6123,-1.6691,-1.6908,-1.6908,-1.6908,-1.6908,-1.6908,-1.6908,-1.6908,-1.6908,-1.6908,-1.6908,-1.6908,-1.6908,-1.6908,-1.6908,-1.6908,-1.6908,-1.6908,-1.6908,-1.6908,-1.6908,-1.6908,-1.6908,-1.6908,-1.6908,-1.6908,-1.6908,-1.6908,-1.6403,-1.6148,-1.6355,-1.6032,-1.5955,-1.6522,-1.6686,-1.6875,-1.7309,-1.735,-1.735,-1.735,-1.735,-1.735,-1.735,-1.735,-1.7309,-1.7218,-1.786,-1.7952,-1.7405,-1.6581,-1.6368,-1.6735,-1.655,-1.6661,-1.7025,-1.7269,-1.7269,-1.1535,-1.2384,-1.3167,-1.4665,-1.542,-1.5748,-1.5748,-1.5379,-1.4869,-1.4351,-1.3884,-1.343,-1.2968,-1.29,-1.291,-1.291,-1.293,-1.3086,-1.3435,-1.2959,-1.2688,-1.3086,-1.2959,-1.2605,-1.1968,-1.22,-1.2212,-1.1622,-1.2781,-1.345,-1.345,-1.4638,-1.5059,-1.4469,-1.5001,-1.501,-1.4506,-1.5489,-1.5962,-1.5846,-1.6706,-1.71,-1.7139,-1.7533,-1.7427,-1.7006,-1.7067,-1.7097,-1.7028,-1.683,-1.676,-1.676,-1.683,-1.6839,-1.6839,-1.6908,-1.6908,-1.6908,-1.6908,-1.6908,-1.6908,-1.6908,-1.6908,-1.6908,-1.6908,-1.6908,-1.6908,-1.6908,-1.6908,-1.6908,-1.6908,-1.6908,-1.6908,-1.6908,-1.6908,-1.6908,-1.6908,-1.6908,-1.6908,-1.6908,-1.6908,-1.6908,-1.6908,-1.6908,-1.6839,-1.6857,-1.7186,-1.7506,-1.7942,-1.8324,-1.8706,-1.9097,-1.9134,-1.9134,-1.9134,-1.9134,-1.9134,-1.9134,-1.9134,-1.897,-1.8597,-1.8665,-1.8291,-1.7496,-1.746,-1.777,-1.8552,-1.8534,-1.8335,-1.7917,-1.8807,-1.8727,-1.0978,-1.2122,-1.347,-1.4349,-1.4935,-1.5372,-1.572,-1.5424,-1.5062,-1.4869,-1.4176,-1.3573,-1.3392,-1.3113,-1.2881,-1.2881,-1.2881,-1.293,-1.3086,-1.2907,-1.2748,-1.2732,-1.269,-1.2636,-1.2555,-1.2373,-1.2438,-1.2801,-1.3339,-1.3835,-1.4154,-1.4942,-1.5294,-1.5059,-1.5294,-1.5294,-1.5059,-1.5449,-1.5791,-1.6013,-1.6315,-1.6607,-1.6834,-1.698,-1.697,-1.6834,-1.671,-1.6646,-1.6534,-1.6327,-1.6409,-1.664,-1.6523,-1.6679,-1.6908,-1.6908,-1.6908,-1.6908,-1.6908,-1.6743,-1.6569,-1.6826,-1.6734,-1.6578,-1.6835,-1.6908,-1.6908,-1.6908,-1.6908,-1.6908,-1.6908,-1.6908,-1.6908,-1.6908,-1.6908,-1.6908,-1.6908,-1.6908,-1.6908,-1.6908,-1.6908,-1.6908,-1.6908,-1.6908,-1.6908,-1.6908,-1.7027,-1.7266,-1.7669,-1.8082,-1.8485,-1.888,-1.9155,-1.9301,-1.9301,-1.9301,-1.9301,-1.9301,-1.9063,-1.8861,-1.8715,-1.8467,-1.8073,-1.7504,-1.7495,-1.7642,-1.7926,-1.8201,-1.8379,-1.8449,-1.9025,-1.9134,-1.0485,-1.1856,-1.3643,-1.4186,-1.4554,-1.4959,-1.5636,-1.5472,-1.508,-1.488,-1.4305,-1.3752,-1.343,-1.3113,-1.2881,-1.2881,-1.2881,-1.2881,-1.2881,-1.2881,-1.2831,-1.2647,-1.2735,-1.2821,-1.275,-1.2616,-1.269,-1.3024,-1.3411,-1.3725,-1.4057,-1.464,-1.5049,-1.5195,-1.5342,-1.541,-1.541,-1.5584,-1.5781,-1.585,-1.6227,-1.6455,-1.6514,-1.667,-1.665,-1.6504,-1.6369,-1.6268,-1.6284,-1.6019,-1.6039,-1.6299,-1.6324,-1.6477,-1.6725,-1.6862,-1.6908,-1.689,-1.6762,-1.6624,-1.6532,-1.667,-1.6624,-1.656,-1.6826,-1.6908,-1.6908,-1.6908,-1.6908,-1.6908,-1.6908,-1.6908,-1.6908,-1.6908,-1.6908,-1.6908,-1.6908,-1.6908,-1.6908,-1.6908,-1.6908,-1.6908,-1.6908,-1.6908,-1.6908,-1.6908,-1.6908,-1.7055,-1.7449,-1.7743,-1.8119,-1.865,-1.8834,-1.8962,-1.9091,-1.8981,-1.8907,-1.8907,-1.866,-1.8449,-1.8311,-1.8054,-1.7715,-1.7312,-1.7293,-1.7293,-1.7293,-1.7715,-1.8192,-1.8715,-1.8981,-1.9016,0.0,0.0,0.0,-1.413,-1.4332,-1.4651,-1.5572,-1.5477,-1.5024,-1.4471,-1.4283,-1.4003,-1.3113,-1.2929,-1.2881,-1.2881,-1.2881,-1.2881,-1.2881,-1.2881,-1.2881,-1.2881,-1.3242,-1.3231,-1.2611,-1.2958,-1.2905,-1.23,-1.2859,-1.3204,-1.3214,-1.3755,-1.4336,-1.4775,-1.5176,-1.54,-1.541,-1.6026,-1.6026,-1.542,-1.6473,-1.6687,-1.6176,-1.6556,-1.6517,-1.6096,-1.6096,-1.6218,-1.6408,-1.6036,-1.5918,-1.5909,-1.6186,-1.6285,-1.6349,-1.6734,-1.6872,-1.6817,-1.6431,-1.6551,-1.6807,-1.6422,-1.6569,-1.689,-1.689,-1.689,-1.6908,-1.6908,-1.6908,-1.6908,-1.6908,-1.6908,-1.6908,-1.6908,-1.6908,-1.6908,-1.6908,-1.6908,-1.6908,-1.6908,-1.6908,-1.6908,-1.6908,-1.6908,-1.6908,-1.6908,-1.6908,-1.7046,-1.7431,-1.7486,-1.7798,-1.8586,-1.8348,-1.8284,-1.8669,-1.8339,-1.8128,-1.8128,-1.8109,-1.7917,-1.7513,-1.7486,-1.7293,-1.6908,-1.6908,-1.6908,-1.6908,-1.7303,-1.7899,-1.8678,-1.861,-1.8422,-1.1466,0.0,0.0,0.0,0.0,0.0,-1.5323,-1.5098,-1.4747,-1.4991,-1.4418,-1.379,-1.3464,-1.3113,-1.2881,-1.2881,-1.2881,-1.2881,-1.2881,-1.2881,-1.2881,-1.2881,-1.2988,-1.3124,-1.3212,-1.3077,-1.317,-1.3528,-1.348,-1.3547,-1.3853,-1.4024,-1.4336,-1.4775,-1.4902,-1.5107,-1.541,-1.6026,-1.6197,-1.6083,-1.6779,-1.7059,-1.6899,-1.7037,-1.7026,-1.6899,-1.6899,-1.6905,-1.6917,-1.6068,-1.5846,-1.5994,-1.5942,-1.5925,-1.5881,-1.5982,-1.6028,-1.6075,-1.628,-1.6503,-1.6644,-1.6796,-1.6983,-1.7064,-1.6987,-1.6934,-1.6908,-1.6908,-1.6908,-1.6908,-1.6908,-1.6908,-1.6908,-1.6908,-1.6908,-1.6908,-1.6908,-1.6908,-1.6908,-1.6908,-1.6908,-1.6908,-1.6908,-1.6908,-1.6908,-1.6908,-1.6908,-1.6945,-1.7055,-1.7321,-1.7578,-1.7807,-1.8009,-1.8164,-1.8284,-1.8183,-1.8128,-1.8128,-1.7834,-1.7614,-1.7495,-1.722,-1.7018,-1.6908,-1.6908,-1.6908,-1.6908,-1.7303,-1.7614,-1.7844,-1.7605,-1.7412,-1.2165,-1.2787,-1.3749,-1.3644,0.0,0.0,-1.4933,-1.4774,-1.4647,-1.5101,-1.471,-1.4193,-1.3924,-1.3525,-1.32,-1.32,-1.3017,-1.2881,-1.2881,-1.2881,-1.2881,-1.2881,-1.2881,-1.2978,-1.3223,-1.3027,-1.3086,-1.3574,-1.3379,-1.335,-1.3603,-1.3779,-1.4072,-1.4502,-1.4687,-1.5094,-1.5796,-1.6358,-1.6698,-1.6698,-1.7313,-1.7424,-1.7202,-1.7202,-1.7202,-1.7202,-1.7202,-1.7257,-1.7379,-1.6775,-1.6477,-1.6443,-1.6447,-1.6435,-1.6436,-1.6621,-1.6689,-1.666,-1.6785,-1.6959,-1.7089,-1.7032,-1.7269,-1.752,-1.7399,-1.7436,-1.7569,-1.7569,-1.7569,-1.7569,-1.7569,-1.7569,-1.751,-1.7304,-1.7235,-1.7176,-1.6978,-1.6908,-1.6908,-1.6908,-1.6908,-1.6908,-1.6908,-1.6908,-1.6908,-1.6908,-1.6908,-1.6908,-1.6908,-1.711,-1.7312,-1.7477,-1.7568,-1.7688,-1.7844,-1.7715,-1.7614,-1.7614,-1.7385,-1.7248,-1.7248,-1.7027,-1.6908,-1.6908,-1.6908,-1.6908,-1.6908,-1.7138,-1.7339,-1.7504,-1.7094,-1.6901,-1.2954,-1.357,-1.4648,-1.4151,-1.3987,0.0,-1.4613,-1.4636,-1.4642,-1.5019,-1.5071,-1.4835,-1.4422,-1.3935,-1.3643,-1.3695,-1.3256,-1.2919,-1.292,-1.2881,-1.2881,-1.2881,-1.2881,-1.2881,-1.2881,-1.2881,-1.2881,-1.2881,-1.2881,-1.2929,-1.2978,-1.3332,-1.3755,-1.4271,-1.4666,-1.5371,-1.6415,-1.6978,-1.7313,-1.7313,-1.7929,-1.7929,-1.7424,-1.7424,-1.7424,-1.7424,-1.7424,-1.7545,-1.7831,-1.7831,-1.7556,-1.7043,-1.7327,-1.7371,-1.7366,-1.773,-1.7838,-1.7835,-1.752,-1.769,-1.7899,-1.7225,-1.7573,-1.8194,-1.7914,-1.8097,-1.8439,-1.8489,-1.8509,-1.8509,-1.8509,-1.8442,-1.8307,-1.7842,-1.7638,-1.751,-1.6978,-1.6908,-1.6908,-1.6908,-1.6908,-1.6908,-1.6908,-1.6908,-1.6908,-1.6908,-1.6908,-1.6908,-1.6908,-1.6908,-1.7037,-1.7394,-1.711,-1.7046,-1.7394,-1.711,-1.6908,-1.6908,-1.6908,-1.6908,-1.6908,-1.6908,-1.6908,-1.6908,-1.6908,-1.6908,-1.6908,-1.6908,-1.7092,-1.744,-1.6915,-1.6698,-1.6131,-1.6013,-1.5788,-1.5417,-1.5708,0.0,-1.5189,-1.4839,-1.4774,-1.5159,-1.469,-1.4301,-1.4563,-1.4204,-1.3982,-1.4413,-1.3648,-1.2955,-1.2929,-1.2881,-1.2881,-1.2881,-1.2881,-1.2881,-1.2881,-1.2881,-1.2881,-1.2881,-1.2881,-1.3065,-1.343,-1.356,-1.4167,-1.5453,-1.5571,-1.6074,-1.7024,-1.7644,-1.7929,-1.7929,-1.8548,-1.8762,-1.8655,-1.8655,-1.8655,-1.8655,-1.8655,-1.8709,-1.8774,-1.8774,-1.8159,-1.7335,-1.7378,-1.7175,-1.6835,-1.692,-1.6963,-1.7009,-1.732,-1.7728,-1.8115,-1.7924,-1.8068,-1.8296,-1.8246,-1.808,-1.8011,-1.8409,-1.8509,-1.8509,-1.8509,-1.8172,-1.7842,-1.7706,-1.7373,-1.7038,-1.6908,-1.6908,-1.6908,-1.6908,-1.6908,-1.6908,-1.6908,-1.6908,-1.6908,-1.6908,-1.6908,-1.6908,-1.6908,-1.6908,-1.6936,-1.7009,-1.6954,-1.6936,-1.7009,-1.6954,-1.6908,-1.6908,-1.6908,-1.6908,-1.6908,-1.6908,-1.6908,-1.6908,-1.6908,-1.6908,-1.6908,-1.6908,-1.6945,-1.7027,-1.6307,-1.5985,-1.6793,-1.6706,-1.6586,-1.6078,-1.6326,0.0,0.0,-1.5581,-1.5568,-1.5976,-1.5315,-1.4761,-1.5018,-1.4618,-1.4353,-1.4605,-1.4149,-1.3736,-1.37,-1.3248,-1.2881,-1.2881,-1.2881,-1.2881,-1.2881,-1.2881,-1.2881,-1.2881,-1.3113,-1.3344,-1.3573,-1.3847,-1.4403,-1.5361,-1.5382,-1.5994,-1.7221,-1.7554,-1.8012,-1.8536,-1.8881,-1.8987,-1.8987,-1.8987,-1.8987,-1.8987,-1.8987,-1.8987,-1.8987,-1.8987,-1.8655,-1.8213,-1.8213,-1.8038,-1.7863,-1.7863,-1.7863,-1.7863,-1.8104,-1.8374,-1.8548,-1.8426,-1.852,-1.8776,-1.8658,-1.8707,-1.8935,-1.9194,-1.933,-1.933,-1.933,-1.8921,-1.8432,-1.8172,-1.7706,-1.7245,-1.6968,-1.6908,-1.6908,-1.6908,-1.6908,-1.6908,-1.6908,-1.6908,-1.6908,-1.6908,-1.6908,-1.6908,-1.6908,-1.6908,-1.6908,-1.6908,-1.6908,-1.6908,-1.6908,-1.6908,-1.6908,-1.6908,-1.6908,-1.6908,-1.6908,-1.6908,-1.6908,-1.6908,-1.6908,-1.6908,-1.6908,-1.6551,-1.6542,-1.6908,-1.6542,-1.6333,-1.7088,-1.7156,-1.7417,-1.675,-1.6866,-1.7072,0.0,0.0,0.0,-1.6788,-1.6173,-1.5579,-1.5608,-1.509,-1.4713,-1.4946,-1.4626,-1.4474,-1.4699,-1.3873,-1.3248,-1.3152,-1.3017,-1.2929,-1.3017,-1.3017,-1.3017,-1.3017,-1.3478,-1.38,-1.3894,-1.4258,-1.4722,-1.5304,-1.5315,-1.5935,-1.73,-1.7404,-1.7932,-1.8843,-1.8939,-1.8987,-1.8987,-1.8987,-1.8987,-1.8987,-1.8987,-1.8987,-1.8987,-1.8987,-1.8987,-1.8987,-1.8987,-1.8987,-1.8987,-1.8987,-1.8987,-1.8987,-1.8987,-1.8987,-1.8934,-1.8774,-1.8912,-1.9179,-1.8885,-1.9194,-1.9695,-1.976,-1.9803,-1.9802,-1.9802,-1.9386,-1.89,-1.8442,-1.7969,-1.7442,-1.6968,-1.6908,-1.6908,-1.6908,-1.6908,-1.6908,-1.6908,-1.6908,-1.6908,-1.6908,-1.6908,-1.6908,-1.6908,-1.6908,-1.6908,-1.6908,-1.6908,-1.6908,-1.6908,-1.6908,-1.6908,-1.6908,-1.6908,-1.6908,-1.6908,-1.6908,-1.6908,-1.6908,-1.6908,-1.6908,-1.6908,-1.6333,-1.6333,-1.6908,-1.6621,-1.6542,-1.8907,-1.8825,-1.8738,-1.8129,-1.8397,-1.852,-1.7358,0.0,-1.7348,-1.695,0.0,-1.6292,-1.6376,0.0,0.0,-1.6131,-1.5024,-1.4387,-1.5325,-1.4926,-1.4433,-1.4165,-1.3392,-1.3065,-1.3478,-1.3525,-1.3525,-1.3525,-1.3941,-1.4444,-1.4915,-1.4971,-1.5429,-1.6373,-1.6432,-1.6717,-1.7386,-1.7864,-1.8178,-1.8301,-1.877,-1.8987,-1.8987,-1.8987,-1.8987,-1.8987,-1.8987,-1.8987,-1.8987,-1.8987,-1.8987,-1.8987,-1.8987,-1.8987,-1.8987,-1.8987,-1.8987,-1.8987,-1.8987,-1.8987,-1.8987,-1.8934,-1.8967,-1.8885,-1.8589,-1.8561,-1.8722,-1.8775,-1.8744,-1.871,-1.871,-1.8307,-1.7842,-1.7842,-1.7373,-1.6968,-1.6908,-1.6908,-1.6908,-1.6908,-1.6908,-1.6908,-1.6908,-1.6908,-1.6908,-1.6908,-1.6908,-1.6908,-1.6908,-1.6908,-1.6908,-1.6908,-1.6908,-1.6908,-1.6908,-1.6908,-1.6908,-1.6908,-1.6908,-1.6908,-1.6908,-1.6908,-1.6908,-1.6908,-1.6908,-1.6908,-1.6908,-1.6839,-1.6839,-1.6908,-1.5463,-1.5251,-1.9213,-1.9139,-1.9118,-1.8782,-1.895,-1.9045,-1.8433,-1.8198,-1.8068,-1.789,0.0,0.0,0.0,0.0,0.0,0.0,-1.5669,-1.541,-1.5545,-1.503,-1.4607,-1.4538,-1.4107,-1.3789,-1.361,-1.3621,-1.3621,-1.3621,-1.4316,-1.4869,-1.5108,-1.5334,-1.5709,-1.6116,-1.6128,-1.638,-1.6955,-1.7183,-1.7436,-1.7748,-1.8277,-1.853,-1.8542,-1.8855,-1.8987,-1.8987,-1.8987,-1.8987,-1.8987,-1.8987,-1.8987,-1.8987,-1.8987,-1.8987,-1.8987,-1.8987,-1.8987,-1.8987,-1.8987,-1.8987,-1.8987,-1.8987,-1.8982,-1.8936,-1.8906,-1.9204,-1.9465,-1.9405,-1.9554,-1.9639,-1.9253,-1.9054,-1.8777,-1.8192,-1.791,-1.7706,-1.7166,-1.7185,-1.7185,-1.7107,-1.7185,-1.7263,-1.7263,-1.7047,-1.6908,-1.6908,-1.6908,-1.6908,-1.6908,-1.6908,-1.6908,-1.6908,-1.6908,-1.6908,-1.6908,-1.6908,-1.6908,-1.6908,-1.6908,-1.6908,-1.6908,-1.7038,-1.7097,-1.7097,-1.7185,-1.7263,-1.7263,-1.6751,-1.6821,-1.7263,-1.6324,-1.6114,-1.9406,-1.9347,-1.9398,-1.9176,-1.9176,-1.9213,-1.9101,-1.886,-1.863,-1.85,-1.7918,0.0,0.0,0.0,-1.6468,-1.6181,0.0,-1.625,-1.5844,-1.5271,-1.4884,-1.4865,-1.4801,-1.4468,-1.3847,-1.3941,-1.3988,-1.3988,-1.4823,-1.5289,-1.5289,-1.5603,-1.5792,-1.5792,-1.5792,-1.5972,-1.6356,-1.6512,-1.6822,-1.7207,-1.7736,-1.7989,-1.8001,-1.853,-1.877,-1.8782,-1.8927,-1.8987,-1.8987,-1.8987,-1.8987,-1.8987,-1.8987,-1.8987,-1.8987,-1.8987,-1.8987,-1.8987,-1.8987,-1.8987,-1.8987,-1.8987,-1.8934,-1.8899,-1.9061,-1.9307,-1.9528,-1.956,-1.9802,-1.9997,-1.9683,-1.9639,-1.9497,-1.8586,-1.8452,-1.8307,-1.7442,-1.7392,-1.7461,-1.7314,-1.7392,-1.747,-1.747,-1.7254,-1.7047,-1.7047,-1.7047,-1.7047,-1.7047,-1.7047,-1.7047,-1.7047,-1.7047,-1.7047,-1.7047,-1.7047,-1.7047,-1.7047,-1.7047,-1.7047,-1.7047,-1.7176,-1.7314,-1.7314,-1.7461,-1.747,-1.747,-1.6881,-1.6959,-1.747,-1.676,-1.6542,-2.0019,-1.9788,-1.9681,-1.9199,-1.9101,-1.9101,-1.9101,-1.9101,-1.8988,-1.8592,-1.8486,-1.8316,-1.7841,-1.7339,-1.7019,-1.7122,-1.6715,0.0,0.0,-1.599,-1.5583,-1.5413,-1.5326,-1.5028,-1.434,-1.4731,-1.5062,-1.5062,-1.5513,-1.5792,-1.5792,-1.5792,-1.5792,-1.5792,-1.5792,-1.5804,-1.5816,-1.6332,-1.6584,-1.6608,-1.7183,-1.7436,-1.7448,-1.7989,-1.8229,-1.8253,-1.877,-1.8987,-1.8987,-1.8987,-1.8987,-1.8987,-1.8987,-1.8987,-1.8987,-1.8987,-1.8987,-1.8987,-1.8987,-1.8987,-1.8987,-1.8987,-1.8827,-1.8614,-1.8637,-1.836,-1.8148,-1.8703,-1.8819,-1.8903,-1.9348,-1.9541,-1.9344,-1.8633,-1.8509,-1.8307,-1.7666,-1.747,-1.747,-1.747,-1.747,-1.747,-1.747,-1.747,-1.747,-1.747,-1.747,-1.747,-1.747,-1.747,-1.747,-1.747,-1.747,-1.747,-1.747,-1.747,-1.747,-1.747,-1.747,-1.747,-1.747,-1.747,-1.747,-1.747,-1.747,-1.747,-1.747,-1.747,-1.747,-1.747,-1.5956,-1.5658,-2.0398,-2.0311,-2.0208,-1.9681,-1.9609,-1.9536,-1.9161,-1.9101,-1.9064,-1.8936,-1.8898,-1.8784,-1.8344,-1.8099,-1.7912,-1.7639,-1.7234,-1.6662,0.0,-1.5133,-1.4701,-1.4931,-1.4971,-1.4853,-1.4448,-1.4934,-1.5048,-1.4582,-1.5325,-1.5792,-1.5792,-1.5792,-1.5792,-1.5792,-1.5792,-1.5792,-1.5792,-1.5972,-1.6056,-1.6068,-1.6596,-1.6895,-1.6907,-1.7436,-1.7869,-1.8205,-1.8386,-1.8662,-1.8987,-1.8987,-1.8987,-1.8987,-1.8987,-1.8987,-1.8987,-1.8987,-1.8987,-1.8987,-1.8987,-1.8987,-1.8987,-1.8987,-1.8934,-1.8881,-1.8881,-1.9022,-1.9249,-1.9587,-1.9915,-2.0161,-2.02,-2.059,-2.073,-1.9759,-1.9573,-1.9375,-1.8509,-1.8056,-1.7803,-1.7657,-1.7725,-1.7803,-1.7803,-1.7803,-1.7745,-1.7539,-1.747,-1.747,-1.747,-1.747,-1.747,-1.747,-1.747,-1.747,-1.747,-1.747,-1.747,-1.747,-1.747,-1.747,-1.747,-1.7588,-1.7647,-1.7647,-1.7725,-1.7803,-1.7803,-1.7803,-1.7803,-1.7803,-1.6802,-1.6585,-2.0797,-2.0731,-2.0665,-2.0158,-2.0089,-1.9984,-1.9479,-1.9347,-1.931,-1.9213,-1.9139,-1.9026,-1.886,-1.8745,-1.8592,-1.8147,-1.7828,-1.7183,0.0,-1.4851,-1.4475,-1.4723,-1.4951,-1.5061,-1.5014,-1.5168,-1.516,-1.4856,-1.5247,-1.56,-1.578,-1.5792,-1.5836,-1.5957,-1.6001,-1.6044,-1.6188,-1.6188,-1.6188,-1.6188,-1.6532,-1.6647,-1.6523,-1.7058,-1.7509,-1.7941,-1.8121,-1.8506,-1.8987,-1.8987,-1.8987,-1.8987,-1.8987,-1.8987,-1.8987,-1.8987,-1.8987,-1.8987,-1.8987,-1.8987,-1.8987,-1.8987,-1.8987,-1.8987,-1.8987,-1.9227,-1.9593,-2.0153,-2.0546,-2.0841,-2.1077,-2.1526,-2.1663,-2.0677,-2.0484,-2.0226,-1.9431,-1.8977,-1.8654,-1.824,-1.825,-1.8269,-1.8008,-1.8008,-1.794,-1.7735,-1.7676,-1.7676,-1.7676,-1.7676,-1.7676,-1.7676,-1.7676,-1.7676,-1.7676,-1.7676,-1.7676,-1.7676,-1.7676,-1.7676,-1.7676,-1.7794,-1.7784,-1.7784,-1.793,-1.8008,-1.8008,-1.8008,-1.8008,-1.8008,-1.751,-1.7442]},{"header":{"parameterUnit":"m.s-1","parameterCategory":1,"la1":30.6,"la2":29.2853,"lo1":-89.7004,"lo2":-87.6739,"dy":0.0162,"dx":0.0183,"nx":112,"ny":82,"refTime":"2024-06-02T00:00:00:Z","depth":0,"parameterNumber":3,"parameterNumberName":"V-component_of_WINDS"},"data":[0.0,0.0,0.0,0.0,0.0,0.0,0.0,0.0,0.0,0.0,0.0,0.0,0.0,0.0,0.0,0.0,0.0,0.0,0.0,0.0,0.0,0.0,0.0,0.0,0.0,0.0,0.0,0.0,0.0,0.0,0.0,0.0,0.0,0.0,0.0,0.0,0.0,0.0,0.0,0.0,0.0,0.0,0.0,0.0,0.0,0.0,0.0,0.0,0.0,0.0,0.0,0.0,0.0,0.0,0.0,0.0,0.0,0.0,0.0,0.0,0.0,0.0,0.0,0.0,0.0,0.0,0.0,0.0,0.0,0.0,0.0,0.0,0.0,0.0,0.0,0.0,0.0,0.0,0.0,0.0,0.0,0.0,0.0,0.0,0.0,0.0,0.0,0.0,0.0,0.0,-2.7336,-2.8485,-3.0044,-3.0955,-3.0799,-3.0799,-3.0054,-2.8315,0.0,0.0,0.0,0.0,0.0,0.0,0.0,0.0,0.0,0.0,0.0,0.0,0.0,0.0,0.0,0.0,0.0,0.0,0.0,0.0,0.0,0.0,0.0,0.0,0.0,0.0,0.0,0.0,0.0,0.0,0.0,0.0,0.0,0.0,0.0,0.0,0.0,0.0,0.0,0.0,0.0,0.0,0.0,0.0,0.0,0.0,0.0,0.0,0.0,0.0,0.0,0.0,0.0,0.0,0.0,0.0,0.0,0.0,0.0,0.0,0.0,0.0,0.0,0.0,0.0,0.0,0.0,0.0,0.0,0.0,0.0,0.0,0.0,0.0,0.0,0.0,0.0,0.0,0.0,0.0,0.0,0.0,0.0,0.0,0.0,0.0,0.0,0.0,0.0,0.0,0.0,0.0,0.0,0.0,0.0,0.0,0.0,0.0,0.0,0.0,0.0,0.0,0.0,0.0,-2.7803,-3.0156,-3.1291,-3.1602,-3.0857,-3.0799,-3.0054,-2.8315,0.0,0.0,0.0,0.0,0.0,0.0,0.0,0.0,0.0,0.0,0.0,0.0,0.0,0.0,0.0,0.0,0.0,0.0,0.0,0.0,0.0,0.0,0.0,0.0,0.0,0.0,0.0,0.0,0.0,0.0,0.0,0.0,0.0,0.0,0.0,0.0,0.0,0.0,0.0,0.0,0.0,0.0,0.0,0.0,0.0,0.0,0.0,0.0,0.0,0.0,0.0,0.0,0.0,0.0,0.0,0.0,0.0,0.0,0.0,0.0,0.0,0.0,0.0,0.0,0.0,0.0,0.0,0.0,0.0,0.0,0.0,0.0,0.0,0.0,0.0,0.0,0.0,0.0,0.0,0.0,0.0,0.0,0.0,0.0,0.0,0.0,0.0,0.0,0.0,0.0,0.0,0.0,0.0,0.0,0.0,0.0,0.0,0.0,0.0,0.0,0.0,0.0,0.0,-2.7998,-2.9474,-3.0662,-3.1583,-3.1739,-3.0877,-3.0799,-3.0059,-2.8316,-2.6972,0.0,0.0,0.0,0.0,0.0,0.0,0.0,0.0,0.0,0.0,0.0,0.0,0.0,0.0,0.0,0.0,0.0,0.0,0.0,0.0,0.0,0.0,0.0,0.0,0.0,0.0,0.0,0.0,0.0,0.0,0.0,0.0,0.0,0.0,0.0,0.0,0.0,0.0,0.0,0.0,0.0,0.0,0.0,0.0,0.0,0.0,0.0,0.0,0.0,0.0,0.0,0.0,0.0,0.0,0.0,0.0,0.0,0.0,0.0,0.0,0.0,0.0,0.0,0.0,0.0,0.0,0.0,0.0,0.0,0.0,0.0,0.0,0.0,0.0,0.0,0.0,0.0,0.0,0.0,0.0,0.0,0.0,0.0,0.0,0.0,0.0,0.0,0.0,0.0,0.0,0.0,0.0,0.0,0.0,0.0,0.0,0.0,0.0,0.0,0.0,0.0,0.0,-3.0628,-3.1408,-3.1408,-3.2187,-3.2265,-3.1193,-3.0916,-3.0059,-2.831,-2.6439,0.0,0.0,0.0,0.0,0.0,0.0,0.0,0.0,0.0,0.0,0.0,0.0,0.0,0.0,0.0,0.0,0.0,0.0,0.0,0.0,0.0,0.0,0.0,0.0,0.0,0.0,0.0,0.0,0.0,0.0,0.0,0.0,0.0,0.0,0.0,0.0,0.0,0.0,0.0,0.0,0.0,0.0,0.0,0.0,0.0,0.0,0.0,0.0,0.0,0.0,0.0,0.0,0.0,0.0,0.0,0.0,0.0,0.0,0.0,0.0,0.0,0.0,0.0,0.0,0.0,0.0,0.0,0.0,0.0,0.0,0.0,0.0,0.0,0.0,0.0,0.0,0.0,0.0,0.0,0.0,0.0,0.0,0.0,0.0,0.0,0.0,0.0,0.0,0.0,0.0,0.0,0.0,0.0,0.0,0.0,0.0,0.0,0.0,0.0,0.0,0.0,0.0,-3.168,-3.322,-3.322,-3.394,-3.3765,-3.2153,-3.1271,-3.0059,-2.831,-2.5874,0.0,0.0,0.0,0.0,0.0,0.0,0.0,0.0,0.0,0.0,0.0,0.0,0.0,0.0,0.0,0.0,0.0,0.0,0.0,0.0,0.0,0.0,0.0,0.0,0.0,0.0,0.0,0.0,0.0,0.0,0.0,0.0,0.0,0.0,0.0,0.0,0.0,0.0,0.0,0.0,0.0,0.0,0.0,0.0,0.0,0.0,0.0,0.0,0.0,0.0,0.0,0.0,0.0,0.0,0.0,0.0,0.0,0.0,0.0,0.0,0.0,0.0,0.0,0.0,0.0,0.0,0.0,0.0,0.0,0.0,0.0,0.0,0.0,0.0,0.0,0.0,0.0,0.0,0.0,0.0,0.0,0.0,0.0,0.0,0.0,0.0,0.0,0.0,0.0,0.0,0.0,0.0,0.0,0.0,0.0,0.0,0.0,0.0,0.0,0.0,0.0,0.0,-3.131,-3.2796,-3.3336,-3.4116,-3.3921,-3.225,-3.1797,-3.0628,-2.8349,0.0,0.0,0.0,0.0,0.0,0.0,0.0,0.0,0.0,0.0,0.0,0.0,0.0,0.0,0.0,0.0,0.0,0.0,0.0,0.0,0.0,0.0,0.0,0.0,0.0,0.0,0.0,0.0,0.0,0.0,0.0,0.0,0.0,0.0,0.0,0.0,0.0,0.0,0.0,0.0,0.0,0.0,0.0,0.0,0.0,0.0,0.0,0.0,0.0,0.0,0.0,0.0,0.0,0.0,0.0,0.0,0.0,0.0,0.0,0.0,0.0,0.0,0.0,0.0,0.0,0.0,0.0,0.0,0.0,0.0,0.0,0.0,0.0,0.0,0.0,0.0,0.0,0.0,0.0,0.0,0.0,0.0,0.0,0.0,0.0,0.0,0.0,0.0,0.0,0.0,0.0,0.0,0.0,0.0,0.0,0.0,0.0,0.0,0.0,0.0,0.0,0.0,-2.9474,-3.1427,-3.2952,-3.4077,-3.4447,-3.4018,-3.264,-3.2012,-3.0687,-2.8349,0.0,0.0,0.0,0.0,0.0,0.0,0.0,0.0,0.0,0.0,0.0,0.0,0.0,0.0,0.0,0.0,0.0,0.0,0.0,0.0,0.0,0.0,0.0,0.0,0.0,0.0,0.0,0.0,0.0,0.0,0.0,0.0,0.0,0.0,0.0,0.0,0.0,0.0,0.0,0.0,0.0,0.0,0.0,0.0,0.0,0.0,0.0,0.0,0.0,0.0,0.0,0.0,0.0,0.0,0.0,0.0,0.0,0.0,0.0,0.0,0.0,0.0,0.0,0.0,0.0,0.0,0.0,0.0,0.0,0.0,0.0,0.0,0.0,0.0,0.0,0.0,0.0,0.0,0.0,0.0,0.0,0.0,0.0,0.0,0.0,0.0,0.0,0.0,0.0,0.0,0.0,0.0,0.0,0.0,0.0,0.0,0.0,0.0,0.0,0.0,0.0,0.0,-3.0351,-3.2323,-3.4038,-3.5713,-3.5109,-3.4272,-3.3473,-3.1817,-3.0059,0.0,0.0,0.0,0.0,0.0,0.0,0.0,0.0,0.0,0.0,0.0,0.0,0.0,0.0,0.0,0.0,0.0,0.0,0.0,0.0,0.0,0.0,0.0,0.0,0.0,0.0,0.0,0.0,0.0,0.0,0.0,0.0,0.0,0.0,0.0,0.0,0.0,0.0,0.0,0.0,0.0,0.0,0.0,0.0,0.0,0.0,0.0,0.0,0.0,0.0,0.0,0.0,0.0,0.0,0.0,0.0,0.0,0.0,0.0,0.0,0.0,0.0,0.0,0.0,0.0,0.0,0.0,0.0,0.0,0.0,0.0,0.0,0.0,0.0,0.0,0.0,0.0,0.0,0.0,0.0,0.0,0.0,0.0,0.0,0.0,0.0,0.0,0.0,0.0,0.0,0.0,0.0,0.0,0.0,0.0,0.0,0.0,0.0,0.0,0.0,0.0,0.0,0.0,-3.0351,-3.2323,-3.4038,-3.5713,-3.5109,-3.4272,-3.3473,-3.2362,-3.0706,-2.8349,0.0,0.0,0.0,0.0,0.0,0.0,0.0,0.0,0.0,0.0,0.0,0.0,0.0,0.0,0.0,0.0,0.0,0.0,0.0,0.0,0.0,0.0,0.0,0.0,0.0,0.0,0.0,0.0,0.0,0.0,0.0,0.0,0.0,0.0,0.0,0.0,0.0,0.0,0.0,0.0,0.0,0.0,0.0,0.0,0.0,0.0,0.0,0.0,0.0,0.0,0.0,0.0,0.0,0.0,0.0,0.0,0.0,0.0,0.0,0.0,0.0,0.0,0.0,0.0,0.0,0.0,0.0,0.0,0.0,0.0,0.0,0.0,0.0,0.0,0.0,0.0,0.0,0.0,0.0,0.0,0.0,0.0,0.0,0.0,0.0,0.0,0.0,0.0,0.0,0.0,0.0,0.0,0.0,0.0,0.0,0.0,0.0,0.0,0.0,0.0,0.0,0.0,-3.0351,-3.2323,-3.4038,-3.5713,-3.5109,-3.4272,-3.3473,-3.2601,-3.0979,-2.8368,0.0,0.0,0.0,0.0,0.0,0.0,0.0,0.0,0.0,0.0,0.0,0.0,0.0,0.0,0.0,0.0,0.0,0.0,0.0,0.0,0.0,0.0,0.0,0.0,0.0,0.0,0.0,0.0,0.0,0.0,0.0,0.0,0.0,0.0,0.0,0.0,0.0,0.0,0.0,0.0,0.0,0.0,0.0,0.0,0.0,0.0,0.0,0.0,0.0,0.0,0.0,0.0,0.0,0.0,0.0,0.0,0.0,0.0,0.0,0.0,0.0,0.0,0.0,0.0,0.0,0.0,0.0,0.0,0.0,0.0,0.0,0.0,0.0,0.0,0.0,0.0,0.0,0.0,0.0,0.0,0.0,0.0,0.0,0.0,0.0,0.0,0.0,0.0,0.0,0.0,0.0,0.0,0.0,0.0,0.0,0.0,0.0,0.0,0.0,0.0,0.0,0.0,-3.037,-3.2382,-3.4116,-3.5733,-3.5109,-3.4272,-3.3473,-3.2601,-3.0984,-2.8372,0.0,0.0,0.0,0.0,0.0,0.0,0.0,0.0,0.0,0.0,0.0,0.0,0.0,0.0,0.0,0.0,0.0,0.0,0.0,0.0,0.0,0.0,0.0,0.0,0.0,0.0,0.0,0.0,0.0,0.0,0.0,0.0,0.0,0.0,0.0,0.0,0.0,0.0,0.0,0.0,0.0,0.0,0.0,0.0,0.0,0.0,0.0,0.0,0.0,0.0,0.0,0.0,0.0,0.0,0.0,0.0,0.0,0.0,0.0,0.0,-2.1681,-2.0676,0.0,0.0,0.0,0.0,0.0,0.0,0.0,0.0,0.0,0.0,0.0,0.0,0.0,0.0,0.0,0.0,0.0,0.0,0.0,0.0,0.0,0.0,0.0,0.0,0.0,0.0,0.0,0.0,0.0,0.0,0.0,0.0,0.0,0.0,0.0,0.0,0.0,0.0,0.0,0.0,-3.0429,-3.2869,-3.4739,-3.5791,-3.5109,-3.4272,-3.3473,-3.2601,-3.0973,-2.8379,-2.727,0.0,0.0,0.0,0.0,0.0,0.0,0.0,0.0,0.0,0.0,0.0,0.0,0.0,0.0,0.0,0.0,0.0,0.0,0.0,0.0,0.0,0.0,0.0,0.0,0.0,0.0,0.0,0.0,0.0,0.0,0.0,0.0,0.0,0.0,0.0,0.0,0.0,0.0,0.0,0.0,0.0,0.0,0.0,0.0,0.0,0.0,0.0,0.0,0.0,0.0,0.0,0.0,0.0,0.0,0.0,0.0,0.0,0.0,0.0,-2.3964,-2.3067,0.0,0.0,0.0,0.0,0.0,0.0,0.0,0.0,0.0,0.0,0.0,0.0,0.0,0.0,0.0,0.0,0.0,0.0,0.0,0.0,0.0,0.0,0.0,0.0,0.0,0.0,0.0,0.0,0.0,0.0,0.0,0.0,0.0,0.0,0.0,0.0,0.0,0.0,0.0,0.0,-3.0526,-3.3025,-3.4934,-3.5811,-3.548,-3.472,-3.3492,-3.2956,-3.1578,-2.8996,-2.7655,0.0,0.0,0.0,0.0,0.0,0.0,0.0,0.0,0.0,0.0,0.0,0.0,0.0,0.0,0.0,0.0,0.0,0.0,0.0,0.0,0.0,0.0,0.0,0.0,0.0,0.0,0.0,0.0,0.0,0.0,0.0,0.0,0.0,0.0,0.0,0.0,0.0,0.0,0.0,0.0,0.0,0.0,0.0,0.0,0.0,0.0,0.0,0.0,0.0,0.0,0.0,0.0,0.0,-2.7456,-2.789,-2.8412,-2.702,-2.7213,-2.8586,-2.7194,-2.6652,-2.6644,-2.5967,0.0,0.0,0.0,0.0,0.0,0.0,0.0,0.0,0.0,0.0,0.0,0.0,0.0,0.0,0.0,0.0,0.0,0.0,0.0,0.0,0.0,0.0,-2.9986,-3.0032,-3.1111,-3.1347,-2.8512,0.0,0.0,0.0,0.0,0.0,0.0,0.0,0.0,0.0,0.0,0.0,-3.0784,-3.3223,-3.5073,-3.5813,-3.5872,-3.5274,-3.3735,-3.342,-3.2285,-2.9878,-2.8247,-2.6685,0.0,0.0,0.0,0.0,0.0,0.0,0.0,0.0,0.0,0.0,0.0,0.0,0.0,0.0,0.0,0.0,0.0,0.0,0.0,0.0,0.0,0.0,0.0,0.0,0.0,0.0,0.0,0.0,0.0,0.0,0.0,0.0,-1.9728,-2.2262,0.0,0.0,0.0,0.0,0.0,0.0,0.0,0.0,0.0,0.0,0.0,0.0,0.0,-2.6033,-2.7484,-2.847,-2.8954,-2.8973,-3.0424,-3.083,-3.025,-3.0037,-3.0424,-3.1294,-3.1081,0.0,-2.6683,-2.6586,0.0,0.0,0.0,0.0,0.0,0.0,0.0,0.0,0.0,0.0,0.0,0.0,0.0,0.0,0.0,0.0,0.0,0.0,0.0,0.0,0.0,0.0,-3.2679,-3.2619,-3.2832,-3.2879,-3.2377,-3.0072,-2.8005,-2.7663,-2.6456,-2.5182,0.0,0.0,0.0,0.0,0.0,0.0,-3.161,-3.4066,-3.5698,-3.5795,-3.5815,-3.5434,-3.4529,-3.3744,-3.2545,-3.075,-2.976,-2.88,-2.7824,-2.6227,0.0,0.0,0.0,0.0,0.0,0.0,0.0,0.0,0.0,0.0,0.0,0.0,0.0,0.0,0.0,0.0,0.0,0.0,0.0,0.0,0.0,0.0,0.0,0.0,0.0,0.0,0.0,0.0,0.0,-1.9863,-2.1836,-2.3441,-2.3325,-2.3229,0.0,0.0,0.0,0.0,0.0,0.0,0.0,0.0,0.0,-2.7406,-2.8045,-2.8934,-3.0114,-3.1004,-3.1449,-3.1449,-3.2183,-3.2347,-3.1999,-3.1969,-3.2152,-3.248,-3.248,-3.162,-3.0172,-2.9264,-2.818,-2.7078,0.0,0.0,0.0,0.0,-2.8586,-2.8954,-2.9409,-2.934,-2.9031,-2.8915,0.0,0.0,0.0,0.0,0.0,0.0,0.0,-3.0799,-3.1178,-3.2561,-3.3858,-3.3838,-3.4235,-3.4594,-3.4563,-3.3025,-3.1352,-3.0373,-2.9948,-2.9046,-2.6734,-2.6761,0.0,0.0,0.0,-3.127,-3.2509,-3.4489,-3.5799,-3.5799,-3.5799,-3.5477,-3.4671,-3.3806,-3.2783,-3.1604,-3.0283,-2.939,-2.9041,-2.7831,-2.6523,0.0,0.0,0.0,0.0,0.0,0.0,0.0,0.0,0.0,0.0,0.0,0.0,0.0,0.0,0.0,0.0,0.0,0.0,0.0,0.0,0.0,0.0,0.0,0.0,0.0,0.0,0.0,0.0,-2.1952,-2.3809,-2.4467,-2.4911,-2.5085,0.0,0.0,0.0,0.0,0.0,0.0,-2.6779,-2.8171,-2.908,-2.9264,-3.054,-3.1496,-3.2095,-3.2965,-3.3409,-3.3409,-3.3619,-3.3754,-3.3743,-3.3682,-3.367,-3.367,-3.367,-3.367,-3.3527,-3.166,-3.0501,-2.9902,-2.9689,-2.9728,-3.0027,-3.0666,-3.1052,-3.1333,-3.1932,-3.199,-3.1777,-3.1623,-3.0984,-2.9998,-2.8461,0.0,0.0,0.0,0.0,-3.2474,-3.2474,-3.3596,-3.4717,-3.4717,-3.522,-3.5704,-3.5704,-3.5182,-3.4272,-3.2764,-3.2822,-3.2222,-2.9457,-2.9515,0.0,-2.9151,-3.0845,-3.2529,-3.338,-3.4824,-3.5765,-3.5765,-3.5765,-3.5541,-3.4964,-3.3915,-3.3051,-3.2475,-3.0806,-2.9878,-2.9922,-2.9101,-2.793,-2.6387,0.0,0.0,0.0,0.0,0.0,0.0,0.0,0.0,0.0,0.0,0.0,0.0,0.0,0.0,0.0,0.0,0.0,0.0,0.0,0.0,0.0,0.0,0.0,0.0,0.0,0.0,0.0,0.0,0.0,-2.5434,-2.6845,0.0,0.0,0.0,0.0,-2.7821,-2.8625,-2.9447,-3.0211,-3.1119,-3.1948,-3.2706,-3.2821,-3.2899,-3.2937,-3.3786,-3.4241,-3.426,-3.5071,-3.5469,-3.5469,-3.5456,-3.5456,-3.5456,-3.5456,-3.5456,-3.5263,-3.2698,-3.1626,-3.1491,-3.0739,-3.0953,-3.1679,-3.1718,-3.225,-3.2966,-3.3024,-3.2483,-3.2068,-3.3673,-3.3615,-3.2734,-3.1816,-3.1565,0.0,0.0,-3.2938,-3.4272,-3.4272,-3.4949,-3.5626,-3.5626,-3.5665,-3.5704,-3.5704,-3.5665,-3.5356,-3.4447,-3.3634,-3.2773,-3.1777,0.0,-3.1661,-3.1623,-3.2435,-3.3344,-3.4225,-3.5134,-3.5715,-3.5715,-3.5715,-3.5715,-3.5734,-3.4241,-3.3306,-3.3339,-3.1757,-3.0839,-3.082,-3.0,-2.9101,-2.8184,-2.6504,0.0,0.0,0.0,0.0,0.0,0.0,0.0,0.0,0.0,0.0,0.0,0.0,0.0,0.0,0.0,0.0,0.0,0.0,0.0,0.0,0.0,0.0,0.0,0.0,0.0,0.0,0.0,0.0,-2.6981,-2.7638,0.0,-2.8354,-2.8626,-2.9236,-3.0356,-3.0684,-3.1214,-3.2072,-3.2389,-3.2968,-3.3805,-3.3843,-3.4113,-3.4665,-3.4974,-3.5148,-3.5148,-3.5405,-3.5547,-3.5547,-3.5541,-3.5547,-3.5547,-3.5547,-3.5547,-3.547,-3.4533,-3.3846,-3.3342,-3.3053,-3.3141,-3.3481,-3.4041,-3.4438,-3.472,-3.472,-3.4508,-3.4257,-3.4318,-3.4135,-3.3826,-3.3557,-3.4234,-3.5085,-3.5085,-3.5936,-3.6845,-3.6845,-3.7077,-3.7309,-3.7309,-3.7309,-3.7309,-3.7309,-3.7309,-3.7212,-3.6903,-3.5723,-3.4331,-3.287,-3.3093,-3.3286,-3.2715,-3.3383,-3.4253,-3.5123,-3.551,-3.5704,-3.5704,-3.5704,-3.5723,-3.5781,-3.426,-3.3329,-3.3398,-3.1836,-3.0898,-3.0898,-3.0605,-2.9766,-2.832,-2.7148,-2.5017,0.0,0.0,0.0,0.0,0.0,0.0,0.0,0.0,0.0,0.0,0.0,0.0,0.0,0.0,0.0,0.0,0.0,0.0,0.0,0.0,0.0,0.0,0.0,0.0,0.0,-2.5846,-2.7194,-2.8315,-2.8945,-2.9505,-3.0085,-3.0346,-3.0963,-3.2122,-3.2447,-3.2821,-3.3388,-3.3677,-3.4121,-3.4687,-3.4963,-3.54,-3.5958,-3.5958,-3.6113,-3.6402,-3.608,-3.6067,-3.6337,-3.6348,-3.6353,-3.6353,-3.6353,-3.6353,-3.6353,-3.6353,-3.6034,-3.5534,-3.5213,-3.4937,-3.4815,-3.5675,-3.6003,-3.6054,-3.6344,-3.644,-3.6344,-3.577,-3.5589,-3.5631,-3.5662,-3.6447,-3.7348,-3.7348,-3.7754,-3.8199,-3.8199,-3.8199,-3.8199,-3.8199,-3.8199,-3.8199,-3.8199,-3.8199,-3.8199,-3.8199,-3.7309,-3.6187,-3.5027,-3.5298,-3.5491,-3.4911,-3.5317,-3.5781,-3.6071,-3.6091,-3.5994,-3.5723,-3.5704,-3.5723,-3.5781,-3.4281,-3.3351,-3.3398,-3.1836,-3.0898,-3.0898,-3.0625,-2.9785,-2.832,-2.7168,-2.5449,-2.3184,0.0,0.0,0.0,0.0,0.0,0.0,0.0,0.0,0.0,0.0,0.0,0.0,0.0,0.0,0.0,0.0,0.0,0.0,0.0,0.0,0.0,0.0,0.0,-2.56,-2.7755,-2.934,-2.936,-3.082,-3.1843,-3.1881,-3.2593,-3.3053,-3.3072,-3.3863,-3.4333,-3.4276,-3.5079,-3.5547,-3.5584,-3.6334,-3.6738,-3.6738,-3.6738,-3.7161,-3.7988,-3.7142,-3.718,-3.8007,-3.8007,-3.8007,-3.8007,-3.8007,-3.8007,-3.8007,-3.8007,-3.8007,-3.7911,-3.7065,-3.6265,-3.5676,-3.6543,-3.6845,-3.6967,-3.7797,-3.8105,-3.8105,-3.8105,-3.8151,-3.8228,-3.8247,-3.8272,-3.8284,-3.8284,-3.8276,-3.8276,-3.8276,-3.8276,-3.8276,-3.8276,-3.8276,-3.8276,-3.8276,-3.8276,-3.8276,-3.8276,-3.8276,-3.8257,-3.8218,-3.8199,-3.8199,-3.8199,-3.8199,0.0,-3.7019,-3.6903,-3.6593,-3.5781,-3.5704,-3.5723,-3.58,-3.4328,-3.3402,-3.3398,-3.1836,-3.0918,-3.0937,-3.0098,-2.9238,-2.8359,-2.6621,-2.5742,-2.5742,0.0,0.0,0.0,0.0,0.0,0.0,0.0,0.0,0.0,0.0,0.0,0.0,0.0,0.0,0.0,0.0,0.0,0.0,0.0,0.0,0.0,-2.6041,-2.7341,-2.8078,-2.9332,-3.0395,-3.1052,-3.2025,-3.291,-3.3547,-3.3774,-3.4135,-3.4764,-3.5027,-3.5424,-3.5982,-3.6252,-3.6656,-3.7296,-3.7526,-3.7642,-3.7642,-3.7642,-3.7757,-3.8007,-3.7757,-3.7777,-3.8007,-3.8007,-3.8007,-3.8007,-3.8007,-3.8007,-3.8007,-3.8007,-3.8007,-3.7988,-3.7738,-3.7507,-3.7329,-3.7579,-3.7656,-3.7709,-3.794,-3.8036,-3.8017,-3.8026,-3.8464,-3.8998,-3.9064,-3.9482,-3.9953,-4.0005,-4.0018,-4.0018,-4.0075,-4.0094,-4.0094,-4.0094,-4.0094,-4.0094,-4.0094,-4.0094,-4.0094,-4.0094,-4.0094,-3.9688,-3.8431,-3.8199,-3.8199,-3.8199,-3.8199,-3.7889,-3.7019,-3.6903,-3.6593,-3.5781,-3.5704,-3.5742,-3.5858,-3.4348,-3.3402,-3.3398,-3.1836,-3.1172,-3.1816,-3.1016,-3.0137,-2.9258,-2.7539,-2.6641,0.0,0.0,0.0,0.0,0.0,0.0,0.0,0.0,0.0,0.0,0.0,0.0,0.0,0.0,0.0,0.0,0.0,0.0,0.0,0.0,0.0,0.0,-2.7596,-2.8775,-3.0062,-3.0672,-3.1455,-3.269,-3.3246,-3.3839,-3.4718,-3.4758,-3.5091,-3.5938,-3.6001,-3.6372,-3.7199,-3.7238,-3.7488,-3.7988,-3.8354,-3.8546,-3.8546,-3.8546,-3.87,-3.9046,-3.87,-3.8719,-3.9046,-3.9046,-3.9046,-3.9046,-3.9046,-3.9046,-3.9046,-3.9046,-3.9046,-3.9008,0.0,0.0,0.0,0.0,-3.8546,-3.8584,-3.8931,-3.9046,-3.9046,-3.9056,-3.9418,-3.9856,-3.989,-4.0226,-4.0621,-4.0654,-4.0654,-4.0668,-4.0713,-4.0713,-4.0713,-4.0713,-4.0713,-4.0713,-4.0713,-4.0713,-4.0713,-4.0713,-4.0713,0.0,-3.938,-3.9238,-3.9282,-3.9282,-3.9282,-3.8972,-3.8102,-3.7986,-3.7522,-3.6323,-3.6261,-3.617,-3.5879,-3.4683,0.0,0.0,0.0,-3.1855,-3.166,-3.1172,0.0,0.0,0.0,0.0,0.0,-2.918,0.0,0.0,-2.7695,-2.779,0.0,0.0,0.0,0.0,0.0,0.0,0.0,0.0,0.0,0.0,0.0,0.0,0.0,0.0,0.0,0.0,-2.9179,-2.9929,-3.1595,-3.1923,-3.2559,-3.4113,-3.4308,-3.4642,-3.5425,-3.5578,-3.593,-3.6661,-3.6796,-3.7238,-3.8104,-3.8142,0.0,0.0,0.0,-3.9431,-3.9431,-3.9431,-3.9777,-4.0489,-3.9777,-3.9796,-4.0489,-4.0489,-4.0489,-4.0489,-4.0489,-4.0489,-4.0489,-4.0489,-4.0489,-4.0431,-3.97,-3.895,-3.8373,-3.9142,-3.9431,-3.9527,-4.0239,0.0,0.0,-4.0489,-4.0539,-4.0588,-4.0588,-4.0583,-4.0588,-4.0607,-4.0607,-4.0607,-4.0588,-4.0588,-4.0588,-4.0588,-4.0588,-4.0588,-4.0588,-4.0588,-4.0588,-4.0588,-4.0588,-4.0588,-4.0588,-4.07,-4.0778,-4.0778,-4.079,-4.0481,-3.9611,-3.9495,-3.8856,-3.722,-3.7156,0.0,-3.6021,-3.5261,-3.4805,-3.4707,-3.3965,-3.2832,-3.125,-3.1289,-3.1289,-3.1172,-3.1172,-3.1914,-3.3398,-3.3398,-3.3457,-3.3476,-3.0332,-3.0098,0.0,0.0,0.0,0.0,0.0,0.0,0.0,0.0,0.0,0.0,0.0,0.0,0.0,0.0,0.0,-2.8715,-2.962,-3.0748,-3.2422,-3.3269,-3.384,-3.4192,-3.4841,-3.5315,-3.5468,-3.6084,-3.6526,-3.6699,-3.7353,-3.8123,-3.8988,-3.9046,-3.9354,-3.9988,-4.0181,-4.0258,-4.0258,-4.0258,-4.0335,-4.0489,-4.0335,0.0,-4.0489,-4.0489,-4.0489,-4.0489,-4.0489,-4.0489,-4.0489,-4.0489,-4.0489,-4.0469,-4.0315,-4.0162,-4.0027,-4.02,-4.0258,-4.0277,-4.045,-4.0489,-4.0489,-4.0489,-4.0504,-4.0523,-4.0523,-4.0519,0.0,-4.0569,-4.0603,-4.0603,-4.0607,-4.0588,-4.0588,-4.0588,-4.0588,-4.0588,-4.0588,-4.0588,-4.0588,-4.0588,-4.0588,-4.0588,-4.0588,-4.0621,-4.0635,-4.0635,-4.0668,-4.041,-3.9521,-3.9412,-3.9039,-3.8048,-3.8016,-3.7741,-3.6916,-3.6166,-3.5446,-3.4743,-3.4548,-3.398,-3.2965,-3.359,-3.3631,-3.293,-3.2928,-3.3085,-3.3398,-3.3397,-3.3763,-3.4417,-3.3045,-3.2676,0.0,0.0,0.0,0.0,0.0,0.0,0.0,0.0,0.0,0.0,0.0,-2.6298,-2.6803,0.0,-2.8696,-3.0094,-3.072,-3.1641,-3.3314,-3.393,-3.4366,-3.4789,-3.5218,-3.5661,-3.6065,-3.6469,-3.7065,-3.793,-3.8392,-3.9008,-3.9854,-3.9892,-4.0065,-4.0489,-4.0489,-4.0489,-4.0489,-4.0489,-4.0489,-4.0489,-4.0489,-4.0489,-4.0489,-4.0489,-4.0489,-4.0489,-4.0489,-4.0489,-4.0489,-4.0489,-4.0489,-4.0489,-4.0489,-4.0489,-4.0489,-4.0489,-4.0489,-4.0489,-4.0489,-4.0489,-4.0489,-4.0489,-4.0489,-4.0489,-4.0489,-4.0489,-4.0523,-4.0539,-4.0539,-4.0554,-4.0549,-4.0549,-4.0549,-4.0549,-4.0549,-4.0549,-4.0549,-4.0549,-4.0549,-4.0549,-4.0549,-4.0549,-4.0549,-4.0549,-4.0564,-4.0588,-4.0621,-4.05,-4.0067,-4.0003,-3.9689,-3.889,-3.8894,-3.8607,-3.7773,-3.705,-3.6277,-3.5417,-3.5359,-3.4968,-3.4088,-3.4478,-3.4502,-3.4056,-3.4057,-3.4272,-3.47,-3.4702,-3.4912,-3.5347,-3.5341,-3.5347,0.0,0.0,0.0,0.0,0.0,0.0,0.0,-2.4295,-2.5315,-2.545,-2.6675,-2.7979,-2.8792,-2.9219,-2.9947,-3.1455,-3.1968,-3.266,-3.4007,-3.4353,-3.4718,-3.543,-3.5641,-3.5988,-3.6642,-3.7007,-3.7796,-3.9181,-3.9431,-3.9815,-4.0469,-4.0489,-4.0489,-4.0489,-4.0489,-4.0489,-4.0489,-4.0489,-4.0489,-4.0489,-4.0489,-4.0489,-4.0489,-4.0489,-4.0489,-4.0489,-4.0489,-4.0489,-4.0489,-4.0489,-4.0489,-4.0489,-4.0489,-4.0489,-4.0489,-4.0489,-4.0489,-4.0489,-4.0489,-4.0489,-4.0489,-4.0489,-4.0489,-4.0489,-4.0489,-4.0489,-4.0489,-4.0489,-4.0489,-4.0489,-4.0489,-4.0489,-4.0489,-4.0489,-4.0489,-4.0489,-4.0489,-4.0489,-4.0489,-4.0489,-4.0489,-4.0489,-4.0489,-4.0489,-4.0519,-4.0559,-4.0593,-4.0593,-4.0574,-4.0593,-4.0342,-3.9673,-3.9727,-3.949,-3.863,-3.7944,-3.7184,-3.6306,-3.6247,-3.5854,-3.4995,-3.4956,-3.4956,-3.4956,-3.4949,-3.53,-3.5991,-3.6003,-3.6081,-3.6267,-3.697,-3.7307,-2.2533,-2.2338,-2.2602,-2.3438,-2.4125,-2.4867,0.0,-2.673,-2.7332,-2.7508,-2.828,-2.8945,-2.9071,-3.034,-3.1455,-3.1679,-3.2949,-3.3987,-3.416,-3.4872,-3.5391,-3.5488,-3.6142,-3.6603,-3.6699,-3.8104,-3.9084,-3.9277,-3.995,-4.0412,-4.0489,-4.0489,-4.0489,-4.0489,-4.0489,-4.0489,-4.0489,-4.0489,-4.0489,-4.0489,-4.0489,-4.0489,-4.0489,-4.0489,-4.0489,-4.0489,-4.0489,-4.0489,-4.0489,-4.0489,-4.0489,-4.0489,-4.0489,-4.0489,-4.0489,-4.0489,-4.0489,-4.0489,-4.0489,-4.0489,-4.0489,-4.0489,-4.0489,-4.0489,-4.0489,-4.0489,-4.0489,-4.0489,-4.0489,-4.0489,-4.0489,-4.0489,-4.0489,-4.0489,-4.0489,-4.0489,-4.0489,-4.0489,-4.0489,-4.0489,-4.0489,-4.0489,-4.0489,-4.0489,-4.0504,-4.0504,-4.0554,-4.0588,-4.0519,-4.0554,-4.0549,-4.0389,-4.0494,-4.0294,-3.9598,-3.8861,-3.8082,-3.7204,-3.7145,-3.6755,-3.5893,-3.5854,-3.5854,-3.5854,-3.5857,-3.5896,-3.5991,-3.5994,-3.6404,-3.7165,-3.7243,-3.7301,-2.4086,-2.4014,-2.4259,-2.5157,-2.555,-2.6003,-2.7067,-2.7857,-2.8415,-2.856,-2.9275,-2.9871,-2.9871,-3.0871,-3.1852,-3.2314,-3.341,-3.4372,-3.4891,-3.5276,-3.5493,-3.5493,-3.6661,-3.7469,-3.7469,-3.8123,-3.895,-3.9912,-4.0296,-4.0489,-4.0489,-4.0489,-4.0489,-4.0489,-4.0489,-4.0489,-4.0489,-4.0489,-4.0489,-4.0489,-4.0489,-4.0489,-4.0489,-4.0489,-4.0489,-4.0489,-4.0489,-4.0489,-4.0489,-4.0489,-4.0489,-4.0489,-4.0489,-4.0489,-4.0489,-4.0489,-4.0489,-4.0489,-4.0489,-4.0489,-4.0489,-4.0489,-4.0489,-4.0489,-4.0489,-4.0489,-4.0489,-4.0489,-4.0489,-4.0489,-4.0489,-4.0489,-4.0489,-4.0489,-4.0489,-4.0489,-4.0489,-4.0489,-4.0489,-4.0489,-4.0489,-4.0489,-4.0489,-4.0489,-4.0489,-4.0489,-4.0523,-4.0539,-4.0504,-4.0523,-4.0569,-4.0602,-4.0668,-4.043,-3.9754,-3.9418,-3.8896,-3.8102,-3.8063,-3.7887,-3.7536,-3.7516,-3.7516,-3.7516,-3.7009,-3.7009,-3.7516,-3.7009,-3.7204,-3.8063,-3.8531,-3.8746,-2.5195,-2.5378,-2.5715,-2.6332,-2.6795,-2.7261,-2.7988,-2.8751,-2.9334,-2.9437,-2.9967,-3.0398,-3.0398,-3.1295,-3.2218,-3.2814,-3.3833,-3.4776,-3.5411,-3.5493,-3.5493,-3.5493,-3.6565,-3.7488,-3.7969,-3.8411,-3.9181,-4.0412,-4.0489,-4.0489,-4.0489,-4.0489,-4.0489,-4.0489,-4.0489,-4.0623,-4.0854,-4.0854,-4.0969,-4.1219,-4.1219,-4.1219,-4.12,-4.0969,-4.0719,-4.0489,-4.0489,-4.0489,-4.0489,-4.0489,-4.0489,-4.0489,-4.0489,-4.0489,-4.0489,-4.0489,-4.0489,-4.0489,-4.0489,-4.0489,-4.0489,-4.0489,-4.0489,-4.0489,-4.0489,-4.0489,-4.0489,-4.0489,-4.0489,-4.0489,-4.0489,-4.0489,-4.0489,-4.0489,-4.0489,-4.0489,-4.0489,-4.0489,-4.0489,-4.0489,-4.0489,-4.0489,-4.0489,-4.0489,-4.0489,-4.0489,-4.0489,-4.0489,-4.0489,-4.0489,-4.0534,-4.0629,-4.0668,-4.0494,-4.0027,-4.0032,-3.9725,-3.8943,-3.8918,-3.8824,-3.8612,-3.8593,-3.8593,-3.8593,-3.7985,-3.7965,-3.8593,-3.7965,-3.8102,-3.8941,-3.9527,-3.9937,-2.5191,-2.5826,-2.6469,-2.6489,-2.7762,-2.9017,-2.9056,-2.9733,-3.0359,-3.0359,-3.0379,-3.0398,-3.0398,-3.1756,-3.2872,-3.2891,-3.4353,-3.5468,-3.5507,-3.5493,-3.5493,-3.5493,-3.5532,-3.6219,-3.7834,-3.9469,-4.045,-4.0489,-4.0489,-4.0489,-4.0489,-4.0489,-4.0489,-4.0489,-4.0489,-4.0912,-4.1758,-4.1758,-4.2181,-4.3028,-4.3028,-4.3028,-4.2989,-4.2162,-4.1296,-4.0489,-4.0489,-4.0489,-4.0489,-4.0489,-4.0489,-4.0489,-4.0489,-4.0489,-4.0489,-4.0489,-4.0489,-4.0489,-4.0489,-4.0489,-4.0489,-4.0489,-4.0489,-4.0489,-4.0489,-4.0489,-4.0489,-4.0489,-4.0489,-4.0489,-4.0489,-4.0489,-4.0489,-4.0489,-4.0489,-4.0489,-4.0489,-4.0489,-4.0489,-4.0489,-4.0489,-4.0489,-4.0489,-4.0489,-4.0489,-4.0489,-4.0489,-4.0489,-4.0489,-4.0489,-4.0504,-4.0504,-4.0615,-4.0674,-4.0667,-4.0846,-4.0584,-3.9727,-3.9739,-3.9409,-3.8632,-3.8593,-3.8593,-3.8593,-3.8573,-3.8573,-3.8593,-3.8573,-3.898,-3.9761,-3.98,-4.0249,-2.5922,-2.6266,-2.6776,-2.7891,-2.8593,-2.9193,-2.9768,-3.0126,-3.033,-3.0336,-3.0336,-3.0348,-3.0379,-3.1775,-3.2891,-3.2891,-3.4372,-3.5493,-3.5493,-3.5968,-3.6103,-3.5551,-3.6988,-3.8027,-3.8007,-3.8507,-3.9296,-4.0412,-4.0489,-4.0489,-4.0489,-4.0489,-4.0489,-4.0489,-4.0489,-4.0642,-4.0931,-4.1508,-4.195,-4.2239,-4.2816,-4.2797,-4.2258,-4.2527,-4.22,-4.1354,-4.1354,-4.1354,-4.1316,-4.0739,-4.0489,-4.0489,-4.0489,-4.0489,-4.0489,-4.0489,-4.0489,-4.0489,-4.0489,-4.0489,-4.0489,-4.0489,-4.0489,-4.0489,-4.0489,-4.0489,-4.0489,-4.0489,-4.0489,-4.0489,-4.0489,-4.0489,-4.0489,-4.0489,-4.0489,-4.0489,-4.0489,-4.0489,-4.0489,-4.0489,-4.0489,-4.0489,-4.0489,-4.0489,-4.0489,-4.0489,-4.0489,-4.0489,-4.0489,-4.0489,-4.0489,-4.0489,-4.0549,-4.0602,-4.0694,-4.0757,-4.0742,-4.0578,-4.0583,-4.0491,-4.0268,-4.0249,-4.0249,-4.0249,-3.9683,-3.9683,-4.0249,-3.9683,-3.9839,-4.0659,-4.0659,-4.0815,-2.6312,-2.6905,-2.7612,-2.8709,-2.92,-2.9577,-3.0132,-3.0279,-3.0292,-3.0299,-3.0061,-2.9971,-3.0309,-3.1263,-3.2199,-3.2795,-3.4103,-3.5238,-3.5853,-3.6142,-3.6315,-3.6392,-3.7565,-3.8392,-3.845,-3.845,-3.9027,-4.0392,-4.0489,-4.0489,-4.0489,-4.0489,-4.0489,-4.0489,-4.0489,-4.0796,-4.1412,-4.1989,-4.2566,-4.3162,-4.372,-4.3547,-4.272,-4.3278,-4.3066,-4.2258,-4.2258,-4.2258,-4.222,-4.1662,-4.1239,-4.095,-4.095,-4.0758,-4.0489,-4.0489,-4.0489,-4.0489,-4.0489,-4.0489,-4.0489,-4.0489,-4.0489,-4.0489,-4.0489,-4.0489,-4.0489,-4.0489,-4.0489,-4.0489,-4.0489,-4.0489,-4.0489,-4.0489,-4.0489,-4.0489,-4.0489,-4.0489,-4.0489,-4.0489,-4.0489,-4.0489,-4.0489,-4.0489,-4.0489,-4.0489,-4.0489,-4.0489,-4.0489,-4.0489,-4.0489,-4.0489,-4.0489,-4.0534,-4.0615,-4.0668,-4.0765,-4.0885,-4.0918,-4.0954,-4.0978,-4.1037,-4.1066,-4.1066,-4.0535,-4.0542,-4.1108,-4.0542,-4.0542,-4.1108,-4.1108,-4.1108,-2.6517,-2.7701,-2.8911,-2.8949,-2.9587,-3.0207,-3.0207,-3.0215,-3.0222,-3.0235,-2.9589,-2.9267,-3.0035,-3.0309,-3.0917,-3.2564,-3.3603,-3.4795,-3.6469,-3.6084,-3.6219,-3.7815,-3.7353,-3.7526,-3.9142,-3.9335,-3.9681,-4.0431,-4.0489,-4.0489,-4.0489,-4.0489,-4.0508,-4.0566,-4.0566,-4.1373,-4.3085,-4.3143,-4.397,-4.5586,-4.5586,-4.5143,-4.4297,-4.4355,-4.3932,-4.3162,-4.3162,-4.3162,-4.3162,-4.3124,-4.2604,-4.1873,-4.1873,-4.1354,-4.0623,-4.0623,-4.0623,-4.0623,-4.0623,-4.0585,-4.0566,-4.0566,-4.0585,-4.0623,-4.0623,-4.0585,-4.0566,-4.0566,-4.0527,-4.0489,-4.0489,-4.0489,-4.0489,-4.0489,-4.0489,-4.0489,-4.0489,-4.0489,-4.0489,-4.0489,-4.0489,-4.0489,-4.0489,-4.0489,-4.0489,-4.0489,-4.0489,-4.0489,-4.0489,-4.0489,-4.0489,-4.0489,-4.0489,-4.0489,-4.0489,-4.0615,-4.0694,-4.0694,-4.077,-4.0801,-4.081,-4.0933,-4.0987,-4.0987,-4.1042,-4.1085,-4.1088,-4.1088,-4.1108,-4.1108,-4.1108,-4.1088,-2.8089,-2.8567,-2.9063,-2.9707,-3.0046,-3.0199,-3.0199,-2.9702,-2.9276,-2.9334,-2.8657,-2.8133,-2.8387,-2.9505,-3.0739,-3.177,-3.3205,-3.4795,-3.6469,-3.7084,-3.7526,-3.795,-3.8911,-3.9469,-3.9315,-3.9835,-4.0277,-4.0469,-4.0489,-4.0489,-4.0489,-4.0489,-4.0796,-4.145,-4.147,-4.1989,-4.3085,-4.3682,-4.4528,-4.5586,-4.5586,-4.5143,-4.4316,-4.497,-4.4797,-4.3989,-4.3989,-4.3989,-4.3951,-4.3355,-4.297,-4.2777,-4.2777,-4.2624,-4.2431,-4.2431,-4.2431,-4.2431,-4.2431,-4.2008,-4.147,-4.147,-4.1912,-4.2431,-4.2431,-4.1989,-4.147,-4.147,-4.0989,-4.0489,-4.0489,-4.0489,-4.0489,-4.0489,-4.0489,-4.0489,-4.0489,-4.0489,-4.0489,-4.0489,-4.0489,-4.0489,-4.0489,-4.0489,-4.0489,-4.0489,-4.0489,-4.0489,-4.0489,-4.0489,-4.0489,-4.0489,-4.0489,-4.0489,-4.0489,-4.0534,-4.0588,-4.0694,-4.073,-4.0749,-4.081,-4.0829,-4.0846,-4.0846,-4.0871,-4.0928,-4.1037,-4.1037,-4.1057,-4.1108,-4.1057,-4.1037,-2.8777,-2.9178,-2.9593,-3.007,-3.0204,-3.0089,-2.9726,-2.9235,-2.8796,-2.8387,-2.7701,-2.7261,-2.7619,-2.8535,-2.9778,-3.1335,-3.2744,-3.4487,-3.693,-3.7353,-3.7834,-3.895,-3.9623,-3.9931,-3.9835,-4.0239,-4.0508,-4.0511,-4.0511,-4.0492,-4.0489,-4.0819,-4.1261,-4.1777,-4.2181,-4.2777,-4.3624,-4.4451,-4.5124,-4.5586,-4.5586,-4.5336,-4.4893,-4.5374,-4.5316,-4.4874,-4.4874,-4.4874,-4.4836,-4.4374,-4.397,-4.3624,-4.3624,-4.3376,-4.3052,-4.3052,-4.3035,-4.3017,-4.3052,-4.2994,-4.284,-4.2492,-4.2701,-4.3104,-4.3104,-4.2758,-4.2297,-4.1912,-4.145,-4.0969,-4.0585,-4.0489,-4.0489,-4.0489,-4.0489,-4.0489,-4.0489,-4.0489,-4.0489,-4.0489,-4.0489,-4.0489,-4.0489,-4.0489,-4.0489,-4.0489,-4.0489,-4.0489,-4.0489,-4.0489,-4.0489,-4.0489,-4.0489,-4.0489,-4.0489,-4.0489,-4.0534,-4.0602,-4.0602,-4.0623,-4.068,-4.0718,-4.0759,-4.0759,-4.0791,-4.0837,-4.0906,-4.0906,-4.0928,-4.0967,-4.0928,-4.0906,-2.9063,-2.9631,-3.0204,-3.0204,-3.0109,-2.9822,-2.905,-2.8692,-2.8284,-2.7395,-2.67,-2.6441,-2.7034,-2.7377,-2.8418,-3.1015,-3.2154,-3.3968,-3.7507,-3.7353,-3.7777,-4.02,-3.9873,-3.9719,-4.0431,-4.0508,-4.0511,-4.0502,-4.0485,-4.0521,-4.0662,-4.1322,-4.1824,-4.2124,-4.2989,-4.3778,-4.447,-4.522,-4.5586,-4.5586,-4.5586,-4.5605,-4.5586,-4.5586,-4.5586,-4.5568,-4.5568,-4.5568,-4.5568,-4.5568,-4.5126,-4.4453,-4.4453,-4.3976,-4.3307,-4.3307,-4.3289,-4.3234,-4.3289,-4.3824,-4.4341,-4.3511,-4.3335,-4.3431,-4.3431,-4.3278,-4.2931,-4.22,-4.1816,-4.145,-4.07,-4.0489,-4.0489,-4.0489,-4.0489,-4.0489,-4.0489,-4.0489,-4.0489,-4.0489,-4.0489,-4.0489,-4.0489,-4.0489,-4.0489,-4.0489,-4.0489,-4.0489,-4.0489,-4.0489,-4.0489,-4.0489,-4.0489,-4.0489,-4.0489,-4.0489,-4.0489,-4.0489,-4.0489,-4.0489,-4.0489,-4.0602,-4.0668,-4.0668,-4.0738,-4.0771,-4.0791,-4.0791,-4.0801,-4.081,-4.0791,-4.0791,-2.9975,-3.007,-3.0204,-3.0204,-2.9669,-2.9055,-2.8783,-2.7671,-2.6584,-2.6227,-2.5552,-2.5073,-2.5319,-2.5969,-2.737,-3.0081,-3.1264,-3.3269,-3.743,-3.7873,-3.845,-4.0277,-4.0373,-4.0338,-4.0479,-4.0499,-4.0482,-4.0432,-4.0362,-4.0684,-4.1459,-4.1632,-4.2379,-4.3816,-4.4701,-4.522,-4.5355,-4.5509,-4.5586,-4.5586,-4.5586,-4.5568,-4.5513,-4.5513,-4.5495,-4.5438,-4.5438,-4.5438,-4.5438,-4.5438,-4.5361,-4.5227,-4.5227,-4.5112,-4.4978,-4.4978,-4.4997,-4.4959,-4.4978,-4.5112,-4.5167,-4.4338,-4.4586,-4.5163,-4.5163,-4.4201,-4.3066,-4.2912,-4.1835,-4.0681,-4.0527,-4.0489,-4.0489,-4.0489,-4.0489,-4.0489,-4.0489,-4.0489,-4.0489,-4.0489,-4.0489,-4.0489,-4.0489,-4.0489,-4.0489,-4.0489,-4.0489,-4.0489,-4.0489,-4.0489,-4.0489,-4.0489,-4.0489,-4.0489,-4.0489,-4.0489,-4.0489,-4.0489,-4.0489,-4.0489,-4.0489,-4.0519,-4.0534,-4.0534,-4.0545,-4.0615,-4.073,-4.073,-4.0738,-4.081,-4.0738,-4.073,-2.9303,-2.9417,-2.9417,-2.9417,-2.9112,-2.8517,-2.749,-2.6631,-2.5872,-2.5246,-2.4904,-2.4689,-2.4651,-2.5435,-2.6845,-2.9107,-3.024,-3.2171,-3.6094,-3.7031,-3.7969,-3.9662,-4.0242,-4.0515,-4.0502,-4.0485,-4.0432,-4.0362,-4.0325,-4.0515,-4.1058,-4.1956,-4.3011,-4.4259,-4.5107,-4.5568,-4.5586,-4.5127,-4.4898,-4.4916,-4.4898,-4.4843,-4.4843,-4.5266,-4.5419,-4.5381,-4.4959,-4.5017,-4.5362,-4.494,-4.5017,-4.54,-4.54,-4.54,-4.54,-4.54,-4.538,-4.5341,-4.54,-4.5419,-4.5323,-4.4516,-4.4551,-4.4932,-4.4879,-4.4051,-4.3008,-4.2494,-4.178,-4.1066,-4.0623,-4.0489,-4.0489,-4.0489,-4.0489,-4.0489,-4.0489,-4.0489,-4.0489,-4.0489,-4.0489,-4.0489,-4.0489,-4.0489,-4.0489,-4.0489,-4.0489,-4.0489,-4.0489,-4.0489,-4.0489,-4.0489,-4.0489,-4.0489,-4.0489,-4.0489,-4.0489,-4.0489,-4.0489,-4.0489,-4.0489,-4.0489,-4.0489,-4.0489,-4.0489,-4.0534,-4.0607,-4.0607,-4.061,-4.0642,-4.0596,-4.0607,-2.8184,-2.8506,-2.86,-2.8411,-2.8373,-2.7929,-2.6244,-2.5724,-2.534,-2.452,-2.4478,-2.4545,-2.4424,-2.5099,-2.6249,-2.8078,-2.9003,-3.0782,-3.4544,-3.5786,-3.7015,-3.8965,-3.9931,-4.0379,-4.0288,-4.0325,-4.0325,-4.0215,-4.0271,-4.0438,-4.0718,-4.2208,-4.334,-4.3974,-4.461,-4.4975,-4.503,-4.4287,-4.3942,-4.3998,-4.3942,-4.3924,-4.3924,-4.4538,-4.4844,-4.4825,-4.4154,-4.425,-4.4825,-4.4346,-4.4518,-4.5112,-4.5323,-4.538,-4.5359,-4.5167,-4.507,-4.4991,-4.488,-4.4843,-4.4748,-4.4116,-4.4076,-4.4243,-4.3981,-4.3403,-4.2648,-4.1903,-4.1613,-4.1341,-4.0649,-4.0492,-4.0508,-4.0489,-4.0489,-4.0489,-4.0489,-4.0489,-4.0489,-4.0489,-4.0489,-4.0489,-4.0489,-4.0489,-4.0489,-4.0489,-4.0489,-4.0489,-4.0489,-4.0489,-4.0489,-4.0489,-4.0489,-4.0489,-4.0489,-4.0489,-4.0489,-4.0489,-4.0489,-4.0489,-4.0489,-4.0489,-4.0489,-4.0489,-4.0489,-4.0489,-4.0489,-4.0489,-4.0489,-4.0489,-4.0489,-4.0489,-2.7326,-2.7874,-2.825,-2.7516,-2.7292,-2.6981,-2.5946,-2.5111,-2.4483,-2.4266,-2.4228,-2.4284,-2.4391,-2.4479,-2.5159,-2.7038,-2.7406,-2.9011,-3.3429,-3.4577,-3.5932,-3.8537,-3.9605,-4.0002,-3.9641,-4.0022,-4.0196,-3.9956,-4.0158,-4.0651,-4.1454,-4.2409,-4.2945,-4.3022,-4.3098,-4.3137,-4.3156,-4.306,-4.3004,-4.3041,-4.3004,-4.2985,-4.2929,-4.3006,-4.3044,-4.3043,-4.2967,-4.2967,-4.31,-4.3749,-4.4055,-4.4208,-4.5012,-4.5317,-4.5222,-4.4418,-4.4131,-4.4036,-4.3291,-4.3043,-4.3044,-4.2947,-4.3503,-4.4057,-4.3253,-4.2466,-4.1813,-4.1737,-4.1125,-4.0511,-4.0415,-4.0449,-4.0499,-4.0508,-4.0489,-4.0489,-4.0489,-4.0489,-4.0489,-4.0489,-4.0489,-4.0489,-4.0489,-4.0489,-4.0489,-4.0489,-4.0489,-4.0489,-4.0489,-4.0489,-4.0489,-4.0489,-4.0489,-4.0489,-4.0489,-4.0489,-4.0489,-4.0489,-4.0489,-4.0489,-4.0489,-4.0489,-4.0489,-4.0489,-4.0489,-4.0489,-4.0489,-4.0489,-4.0489,-4.0489,-4.0489,-4.0489,-2.6895,-2.7606,-2.8035,-2.7232,-2.6989,-2.6599,-2.5134,-2.4524,-2.4247,-2.4209,-2.419,-2.4209,-2.4266,-2.4284,-2.4709,-2.6073,-2.631,-2.7481,-3.0888,-3.2445,-3.4188,-3.6746,-3.8203,-3.9142,-3.9467,-3.9683,-3.9832,-3.9892,-3.9998,-4.0272,-4.0788,-4.1683,-4.2179,-4.2179,-4.2621,-4.287,-4.2889,-4.2335,-4.2068,-4.2124,-4.2068,-4.2049,-4.2049,-4.2565,-4.2794,-4.2775,-4.224,-4.2316,-4.2775,-4.2584,-4.2794,-4.331,-4.3654,-4.3806,-4.3749,-4.3405,-4.3291,-4.3233,-4.2908,-4.2814,-4.2699,-4.2183,-4.2279,-4.2508,-4.2163,-4.1512,-4.0896,-4.0879,-4.0647,-4.0398,-4.0398,-4.0415,-4.0449,-4.0447,-4.0447,-4.0447,-4.0447,-4.0447,-4.0447,-4.0447,-4.0479,-4.0495,-4.0495,-4.0492,-4.0489,-4.0489,-4.0489,-4.0489,-4.0489,-4.0489,-4.0489,-4.0489,-4.0489,-4.0489,-4.0489,-4.0489,-4.0489,-4.0489,-4.0489,-4.0489,-4.0489,-4.0489,-4.0489,-4.0489,-4.0511,-4.0495,-4.0495,-4.0495,-4.0479,-4.0447,-4.0492,-4.0492,-2.5817,-2.6614,-2.7098,-2.6302,-2.6283,-2.606,-2.454,-2.419,-2.419,-2.419,-2.419,-2.419,-2.419,-2.419,-2.4431,-2.5153,-2.5449,-2.6543,-2.9231,-3.0997,-3.2951,-3.5493,-3.7013,-3.8145,-3.8845,-3.9207,-3.9483,-3.9762,-3.9785,-3.987,-4.0057,-4.0768,-4.1207,-4.1281,-4.18,-4.2087,-4.2124,-4.1475,-4.117,-4.1207,-4.117,-4.1151,-4.117,-4.1781,-4.2068,-4.203,-4.1418,-4.1495,-4.203,-4.1648,-4.1858,-4.2431,-4.2698,-4.2794,-4.2775,-4.2507,-4.2412,-4.2374,-4.2144,-4.2068,-4.1953,-4.1342,-4.1151,-4.1151,-4.1151,-4.0768,-4.0363,-4.0308,-4.0326,-4.0363,-4.0362,-4.0362,-4.0379,-4.0398,-4.0398,-4.0398,-4.0398,-4.0398,-4.0398,-4.0398,-4.0432,-4.0485,-4.0502,-4.0495,-4.0492,-4.0489,-4.0489,-4.0489,-4.0489,-4.0489,-4.0489,-4.0489,-4.0489,-4.0489,-4.0489,-4.0489,-4.0508,-4.0492,-4.0492,-4.0492,-4.0476,-4.0476,-4.0476,-4.0476,-4.0482,-4.0466,-4.0466,-4.0466,-4.0449,-4.0415,-4.0444,-4.0463,-2.3834,-2.4618,-2.5237,-2.4428,-2.4833,-2.5201,-2.4392,-2.419,-2.419,-2.419,-2.419,-2.419,-2.419,-2.419,-2.419,-2.4208,-2.4888,-2.6333,-2.9024,-3.062,-3.249,-3.5181,-3.6273,-3.7002,-3.7463,-3.8469,-3.9219,-3.9483,-3.9483,-3.9526,-3.9526,-3.9781,-4.0036,-4.0311,-4.0329,-4.0329,-4.0329,-4.0329,-4.031,-4.031,-4.031,-4.031,-4.031,-4.0329,-4.0329,-4.0329,-4.0329,-4.0329,-4.0387,-4.117,-4.1514,-4.159,-4.245,-4.2794,-4.2698,-4.182,-4.1514,-4.1399,-4.0597,-4.0329,-4.0329,-4.0329,-4.031,-4.031,-4.031,-4.031,-4.031,-4.031,-4.031,-4.0291,-4.0289,-4.0307,-4.0325,-4.0379,-4.0398,-4.0398,-4.0398,-4.0398,-4.0398,-4.0398,-4.0415,-4.0415,-4.0502,-4.0502,-4.0499,-4.0508,-4.0489,-4.0489,-4.0489,-4.0489,-4.0489,-4.0489,-4.0489,-4.0489,-4.0489,-4.0489,-4.0492,-4.0502,-4.0502,-4.0466,-4.0396,-4.0415,-4.0415,-4.0415,-4.0415,-4.0415,-4.0415,-4.0415,-4.0415,-4.0398,-4.0415,-4.0415,-2.4567,-2.5274,-2.5801,-2.5179,-2.5219,-2.5201,-2.4373,-2.419,-2.419,-2.419,-2.419,-2.419,-2.419,-2.419,-2.4373,-2.4924,-2.5695,-2.6709,-2.8104,-3.0102,-3.1955,-3.3357,-3.5744,-3.7329,-3.7489,-3.8469,-3.9129,-3.9219,-3.9219,-3.9298,-3.9483,-3.9401,-3.9575,-4.0017,-4.0196,-4.031,-4.031,-4.031,-4.031,-4.031,-4.031,-4.031,-4.031,-4.031,-4.031,-4.031,-4.031,-4.031,-4.0329,-4.0578,-4.0692,-4.0711,-4.0979,-4.1094,-4.1055,-4.0788,-4.0692,-4.0635,-4.0387,-4.031,-4.031,-4.031,-4.031,-4.031,-4.031,-4.031,-4.031,-4.031,-4.031,-4.031,-4.031,-4.0291,-4.031,-4.0328,-4.0328,-4.0328,-4.0328,-4.0328,-4.0328,-4.0328,-4.0326,-4.0325,-4.0362,-4.0449,-4.0502,-4.0499,-4.0492,-4.0489,-4.0489,-4.0489,-4.0457,-4.0304,-4.0304,-4.0356,-4.0489,-4.0489,-4.0492,-4.0502,-4.0502,-4.0466,-4.0415,-4.0398,-4.0398,-4.0398,-4.0342,-4.0325,-4.0325,-4.0325,-4.0362,-4.0398,-4.0345,-4.0327,-2.3687,-2.4469,-2.5068,-2.4729,-2.4644,-2.4517,-2.4005,-2.3976,-2.4054,-2.4054,-2.4132,-2.419,-2.419,-2.419,-2.4355,-2.4869,-2.5878,-2.6998,-2.8099,-3.0063,-3.1806,-3.2926,-3.5128,-3.6688,-3.7,-3.7911,-3.8617,-3.8931,-3.895,-3.9017,-3.9192,-3.9156,-3.9245,-3.9599,-3.9954,-4.0196,-4.031,-4.031,-4.031,-4.031,-4.031,-4.031,-4.031,-4.031,-4.031,-4.031,-4.031,-4.031,0.0,-4.031,-4.031,-4.031,-4.031,-4.031,-4.031,-4.031,-4.031,-4.031,-4.031,-4.031,-4.031,-4.031,-4.031,-4.031,-4.031,-4.031,-4.031,-4.031,-4.031,-4.031,-4.031,-4.031,-4.031,-4.031,-4.031,-4.0272,-4.0176,-4.0157,-4.0118,-4.0036,-3.9998,-4.0001,-4.006,-4.0139,-4.0196,-4.0233,-4.0232,-4.023,-4.023,-4.023,-4.0176,-4.0022,-4.0022,-4.0043,-4.0157,-4.0175,-4.0195,-4.0196,-4.0252,-4.0252,-4.0215,-4.0309,-4.0363,-4.0363,-4.0327,-4.029,-4.029,-4.029,-4.0327,-4.0345,-4.031,-4.031,0.0,-2.244,-2.3249,-2.3302,-2.332,-2.3343,-2.3374,-2.3588,0.0,-2.3774,-2.3996,-2.417,-2.417,-2.419,-2.4208,-2.4244,-2.5619,-2.7196,-2.8682,-3.0356,-3.199,-3.3605,-3.4523,-3.5302,-3.6138,-3.6982,-3.7808,-3.856,-3.867,-3.8707,-3.8707,-3.8921,-3.9073,-3.9101,-3.958,-3.9975,-4.0253,-4.0291,-4.031,-4.031,-4.031,-4.031,-4.031,-4.031,-4.031,-4.031,-4.031,-4.031,-4.031,-4.031,-4.031,-4.031,-4.031,-4.031,-4.031,-4.031,-4.031,-4.031,-4.031,-4.031,-4.031,-4.031,-4.0291,-4.0272,-4.0272,-4.0272,-4.031,-4.031,-4.031,-4.0291,-4.0291,-4.0272,-4.0253,-4.0253,-4.0234,-4.0176,-3.9914,-3.987,-3.9785,-3.9551,-3.9502,-3.9551,-3.9651,-3.9693,-3.9721,-3.9775,-3.9797,-3.9797,-3.9797,-3.9797,-3.9775,-3.9687,-3.9687,-3.9641,-3.9552,-3.9645,-3.9705,-3.9675,-3.9813,-3.9878,-3.9851,-4.0098,-4.0253,-4.0272,-4.0291,-4.031,-4.031,-4.031,-4.031,-4.031,-4.031,-4.031,-1.9848,0.0,-2.1596,-2.2375,-2.2561,-2.2722,0.0,-2.3437,-2.3482,-2.3482,-2.3714,-2.3896,-2.3896,-2.4074,-2.4333,-2.4754,-2.6322,-2.7596,-2.7765,-2.9875,-3.199,-3.3605,-3.4523,-3.5064,-3.5284,-3.6633,-3.7599,-3.7753,-3.8358,-3.8707,-3.8707,-3.875,-3.8881,-3.9101,-3.9219,-3.9526,-3.9996,-4.0196,-4.031,-4.031,-4.031,-4.031,-4.031,-4.031,-4.031,-4.031,-4.031,-4.031,-4.031,-4.031,-4.031,-4.031,-4.031,-4.031,-4.031,-4.031,-4.031,-4.031,-4.031,-4.031,-4.031,-4.031,-4.0157,-3.9996,-3.9996,-4.0137,-4.031,-4.031,-4.031,-4.0253,-4.0057,-3.9996,-3.9935,-3.9739,-3.9693,-3.967,-3.9623,-3.958,-3.9575,-3.9508,-3.9502,-3.9508,-3.9532,-3.9561,-3.959,-3.9721,-3.9728,-3.9754,-3.9797,-3.9797,-3.9728,-3.9508,-3.9458,-3.9383,-3.9165,-3.9476,-3.9664,-3.9548,-3.9679,-3.9698,-3.9599,-3.9647,-3.9785,-3.9996,-4.0215,-4.031,-4.031,-4.031,-4.031,-4.031,-4.031,-4.031,-1.8814,-1.9963,-2.1301,-2.1843,-2.2236,-2.2588,-2.2986,-2.317,-2.3265,-2.3265,0.0,-2.3649,-2.3774,-2.3816,-2.4088,-2.4824,-2.6136,-2.7556,-2.9016,-3.0796,-3.2412,-3.3642,-3.4192,-3.4596,-3.4954,-3.5826,-3.6523,-3.6909,-3.7349,-3.7606,-3.7606,-3.7606,-3.7676,-3.7812,-3.7932,-3.8609,-3.9892,-4.0038,-4.0176,-4.031,-4.031,-4.031,-4.031,-4.031,-4.031,-4.031,-4.031,-4.031,-4.031,-4.031,-4.031,-4.031,-4.031,-4.031,-4.031,-4.031,-4.031,-4.031,-4.031,-4.0234,-4.0098,-3.9975,-3.9848,-3.9717,-3.9717,-3.9826,-3.9933,-3.9933,-3.9933,-3.9892,-3.9739,-3.9717,-3.9693,-3.9532,-3.9502,-3.9477,-3.935,-3.9324,-3.9272,-3.9156,-3.911,-3.9137,-3.9165,-3.9173,-3.9234,-3.935,-3.9383,-3.9396,-3.947,-3.9494,-3.9414,-3.9192,-3.9183,-3.9073,-3.8881,-3.9146,-3.9294,-3.9234,-3.9383,-3.9427,-3.9324,-3.9433,-3.9575,-3.9717,-3.9848,-3.9933,-3.9933,-3.9933,-3.9996,-4.0118,-4.0118,-4.0118,-1.8327,-1.9866,-2.1436,-2.1436,-2.1901,-2.2392,-2.266,0.0,0.0,0.0,0.0,-2.341,-2.3667,-2.3674,-2.3916,-2.4717,-2.571,-2.7554,-3.0919,-3.199,-3.2761,-3.3697,-3.3807,-3.4082,-3.4734,-3.4917,-3.533,-3.6046,-3.6211,-3.6303,-3.6303,-3.6303,-3.6303,-3.6303,-3.6527,-3.7524,-3.9388,-3.9561,-3.9785,-4.0005,-4.0158,-4.0234,-4.0234,-4.0272,-4.031,-4.031,-4.031,-4.0291,-4.0234,-4.0272,-4.0291,-4.0234,-4.0272,-4.031,-4.0291,-4.0253,-4.0234,-4.0234,-4.0176,-4.0017,-3.9807,-3.9556,-3.9458,-3.9452,-3.9452,-3.9427,-3.9376,-3.9376,-3.9452,-3.9483,-3.9452,-3.9452,-3.9427,-3.9401,-3.9376,-3.9324,-3.9101,-3.9045,-3.8979,-3.875,-3.8707,-3.8738,-3.8762,-3.8792,-3.8822,-3.895,-3.895,-3.8979,-3.9045,-3.9073,-3.9017,-3.891,-3.8892,-3.8851,-3.8738,-3.8822,-3.891,-3.891,-3.9064,-3.9129,-3.9045,-3.9298,-3.9452,-3.9452,-3.9477,-3.9502,-3.9502,-3.9502,-3.9623,-3.9829,-3.9829,-3.9829,-1.8925,-1.9826,-2.0584,-2.0584,-2.067,-2.1083,-2.2419,-2.2255,0.0,0.0,0.0,0.0,-2.3199,-2.4068,-2.4717,-2.4664,-2.6092,-2.8197,-3.1011,-3.1494,-3.2137,-3.3623,-3.3807,-3.3844,-3.3972,-3.4614,-3.5045,-3.5174,-3.5881,-3.6303,-3.6303,-3.6303,-3.6303,-3.6303,-3.6342,-3.6629,-3.7175,-3.8089,-3.8564,-3.8629,-3.9529,-3.9956,-3.9975,-4.0196,-4.031,-4.031,-4.031,-4.0176,-3.9996,-4.0215,-4.0176,-3.9977,-4.0196,-4.031,-4.0272,-4.0057,-3.9956,-3.9935,-3.9693,-3.9599,-3.9532,-3.9508,-3.935,-3.9156,-3.9156,-3.8989,-3.8822,-3.8822,-3.9156,-3.9452,-3.9219,-3.9156,-3.9101,-3.8881,-3.8822,-3.8792,-3.878,-3.875,-3.875,-3.8707,-3.8707,-3.8707,-3.8689,-3.8738,-3.875,-3.8822,-3.8822,-3.8833,-3.8921,-3.8979,-3.895,-3.8822,-3.8881,-3.8881,-3.8792,-3.8851,-3.891,-3.891,-3.8921,-3.8881,-3.878,-3.9017,-3.9156,-3.9156,-3.9383,-3.9502,-3.9502,-3.9502,-3.9526,-3.9575,-3.9575,-3.9575,-1.8263,-1.9331,-2.0291,-2.0291,-2.0965,-2.1824,-2.253,-2.2453,-2.2298,0.0,-2.2816,-2.2944,-2.3052,-2.3791,-2.4643,-2.5543,-2.6843,-2.8564,-3.0862,-3.1309,-3.199,-3.3605,-3.3807,-3.3807,-3.3807,-3.4137,-3.4357,-3.4357,-3.4724,-3.4945,-3.4945,-3.4945,-3.4945,-3.4945,-3.4945,-3.5027,-3.5124,-3.6051,-3.7112,-3.8305,-3.9251,-3.9693,-3.9693,-3.9826,-3.987,-3.987,-3.987,-3.9804,-3.9693,-3.9826,-3.9804,-3.9693,-3.9826,-3.987,-3.9848,-3.9717,-3.9693,-3.9647,-3.9376,-3.9272,-3.9272,-3.9129,-3.896,-3.8881,-3.8881,-3.881,-3.8707,-3.8707,-3.8881,-3.9045,-3.8939,-3.8881,-3.8851,-3.8738,-3.8707,-3.8707,-3.8707,-3.8707,-3.8707,-3.8707,-3.8707,-3.8707,-3.8707,-3.8707,-3.8719,-3.8792,-3.8822,-3.8881,-3.891,-3.8979,-3.9007,-3.8822,-3.8881,-3.8851,-3.875,-3.8792,-3.8881,-3.891,-3.8881,-3.8792,-3.8707,-3.884,-3.8881,-3.8881,-3.8989,-3.9073,-3.9073,-3.9073,-3.9137,-3.9272,-3.9272,-3.9272,-1.783,-1.8981,-2.0153,-2.0415,-2.1447,-2.2505,-2.2677,-2.2574,-2.2479,-2.2677,-2.2712,-2.2764,-2.297,-2.3641,-2.4781,-2.6644,-2.7646,-2.8793,-3.0477,-3.1104,-3.1916,-3.3348,-3.3697,-3.3807,-3.3807,-3.3807,-3.3807,-3.3807,-3.3807,-3.3807,-3.3807,-3.3807,-3.3807,-3.3807,-3.3807,-3.3807,-3.3807,-3.4614,-3.5845,-3.753,-3.8615,-3.9146,-3.9146,-3.9383,-3.9502,-3.9502,-3.9502,-3.9458,-3.9427,-3.9458,-3.9458,-3.9427,-3.9477,-3.9458,-3.9401,-3.9401,-3.9376,-3.9272,-3.9073,-3.9007,-3.8979,-3.878,-3.8707,-3.8707,-3.8707,-3.8707,-3.8707,-3.8707,-3.8707,-3.8707,-3.8707,-3.8707,-3.8707,-3.8707,-3.8707,-3.8707,-3.8707,-3.8707,-3.8707,-3.8707,-3.8707,-3.8707,-3.8707,-3.8707,-3.8738,-3.8762,-3.8822,-3.8851,-3.8851,-3.895,-3.896,-3.8792,-3.8851,-3.8822,-3.8719,-3.8762,-3.8822,-3.8862,-3.8822,-3.8762,-3.8707,-3.8707,-3.8707,-3.8707,-3.8707,-3.8707,-3.8707,-3.8707,-3.881,-3.9007,-3.9007,-3.9007,-1.8442,-1.9261,-2.0051,-2.0977,-2.1447,-2.1867,-2.2556,-2.2177,-2.1884,-2.2574,-2.2712,-2.2712,-2.2738,-2.4112,-2.5896,-2.7709,-2.8298,-2.8884,-2.9753,-3.0757,-3.1715,-3.2596,-3.3348,-3.3807,-3.3807,-3.3807,-3.3807,-3.3807,-3.3807,-3.3807,-3.3807,-3.3807,-3.3807,-3.3807,-3.3807,-3.3807,-3.3807,-3.4614,-3.5073,-3.5257,-3.7145,-3.8013,-3.8059,-3.9046,-3.9502,-3.9502,-3.9502,-3.9376,-3.9156,-3.9401,-3.935,-3.9137,-3.9383,-3.935,-3.9129,-3.9129,-3.8979,-3.875,-3.8738,-3.8738,-3.8738,-3.8707,-3.8707,-3.8707,-3.8707,-3.8707,-3.8707,-3.8707,-3.8707,-3.8707,-3.8707,-3.8707,-3.8707,-3.8707,-3.8707,-3.8707,-3.8707,-3.8707,-3.8707,-3.8707,-3.8707,-3.8707,-3.8707,-3.8707,-3.8707,-3.8707,-3.8707,-3.8689,-3.8689,-3.878,-3.8792,-3.8738,-3.878,-3.8822,-3.8792,-3.8792,-3.8822,-3.8822,-3.8822,-3.8762,-3.8707,-3.8707,-3.8707,-3.8707,-3.8707,-3.8707,-3.8707,-3.8707,-3.8707,-3.8738,-3.8738,-3.8738,-1.7592,-1.8588,-1.9607,-2.006,-2.0954,-2.1894,-2.2563,-2.2823,-2.303,-2.3323,-2.3798,-2.4281,-2.4747,-2.4988,-2.5686,-2.7355,-2.7847,-2.8378,-2.9358,-3.0025,-3.0951,-3.2423,-3.2871,-3.3256,-3.3752,-3.3807,-3.3807,-3.3807,-3.3807,-3.3807,-3.3807,-3.3807,-3.3807,-3.3807,-3.3807,-3.3807,-3.3807,-3.41,-3.4266,-3.4284,-3.6049,-3.6897,-3.6915,-3.7331,-3.7516,-3.7553,-3.8053,-3.8192,-3.8161,-3.8756,-3.8654,-3.8069,-3.7664,-3.7452,-3.7413,-3.7911,-3.8037,-3.8028,-3.8524,-3.8377,-3.8028,-3.8542,-3.8358,-3.8046,-3.856,-3.8707,-3.8707,-3.8707,-3.8707,-3.8707,-3.8707,-3.8707,-3.8707,-3.8707,-3.8707,-3.8707,-3.8707,-3.8707,-3.8707,-3.8707,-3.8707,-3.8707,-3.8707,-3.8707,-3.8707,-3.8707,-3.8719,-3.875,-3.8707,-3.8792,-3.8822,-3.8707,-3.8719,-3.875,-3.875,-3.878,-3.8792,-3.875,-3.8762,-3.8762,-3.8707,-3.8707,-3.8707,-3.8707,-3.8707,-3.8707,-3.8707,-3.8707,-3.8707,-3.8707,-3.8707,-3.8707,-1.7329,-1.8399,-1.9552,-1.9722,-2.0739,-2.1853,-2.2381,-2.2884,-2.3384,-2.3736,-2.4218,-2.4907,-2.5919,-2.5476,-2.5476,-2.704,-2.7526,-2.7965,-2.8681,-2.9395,-3.0267,-3.1561,-3.2012,-3.254,-3.3348,-3.3421,-3.3532,-3.377,-3.3807,-3.3807,-3.3807,-3.3807,-3.3807,-3.3807,-3.3807,-3.3807,-3.3807,-3.3807,-3.3807,-3.3807,-3.4963,-3.5642,-3.5899,-3.6174,-3.6303,-3.6321,-3.6872,-3.711,-3.7147,-3.7716,-3.7624,-3.7055,-3.6505,-3.6303,-3.6358,-3.6909,-3.711,-3.7184,-3.7753,-3.7569,-3.7202,-3.7753,-3.7569,-3.7202,-3.7771,-3.7936,-3.7936,-3.7936,-3.7936,-3.7936,-3.7936,-3.8138,-3.8322,-3.8322,-3.8322,-3.8322,-3.8322,-3.8524,-3.8707,-3.8707,-3.8707,-3.8707,-3.8707,-3.8707,-3.8707,-3.8707,-3.875,-3.875,-3.8707,-3.878,-3.8792,-3.8707,-3.8707,-3.8707,-3.8707,-3.875,-3.875,-3.8707,-3.875,-3.875,-3.8707,-3.8707,-3.8707,-3.8707,-3.8707,-3.8707,-3.8707,-3.8707,-3.8707,-3.8707,-3.8707,-3.8707,-1.7925,-1.8911,-2.0044,-2.0237,-2.0937,-2.1672,-2.2039,-2.2096,-2.2446,-2.3577,-2.3749,-2.4185,-2.5803,-2.5446,-2.5433,-2.704,-2.7509,-2.7701,-2.7701,-2.8899,-2.9771,-2.9816,-3.0739,-3.1696,-3.2522,-3.2614,-3.2944,-3.3733,-3.3807,-3.3807,-3.3807,-3.3807,-3.3807,-3.3807,-3.3807,-3.3807,-3.3807,-3.3807,-3.3807,-3.3807,-3.3807,-3.4229,-3.5009,-3.5881,-3.6266,-3.6266,-3.6266,-3.6285,-3.6285,-3.6285,-3.6285,-3.6285,-3.6266,-3.6266,-3.6266,-3.6266,-3.6285,-3.6285,-3.6303,-3.6285,-3.6285,-3.6303,-3.6285,-3.6285,-3.6303,-3.6303,-3.6303,-3.6303,-3.6285,-3.6285,-3.6285,-3.6872,-3.7459,-3.7477,-3.7477,-3.7477,-3.7477,-3.8102,-3.8689,-3.8689,-3.8689,-3.8689,-3.8707,-3.8707,-3.8707,-3.8707,-3.8707,-3.8707,-3.8707,-3.8707,-3.8707,-3.8707,-3.8707,-3.8707,-3.8707,-3.8707,-3.8707,-3.8707,-3.8707,-3.8707,-3.8707,-3.8707,-3.8707,-3.8707,-3.8707,-3.8707,-3.8707,-3.8707,-3.8707,-3.8707,-3.8707,-3.8707,-1.7003,-1.7602,-1.8379,-1.9001,-2.0188,-2.1306,-2.1764,-2.2562,-2.3414,-2.4373,-2.4603,-2.4925,-2.5937,-2.5889,-2.6096,-2.7126,-2.7279,-2.7369,-2.7672,-2.8023,-2.8635,-2.9691,-3.0067,-3.0651,-3.1653,-3.2284,-3.2706,-3.2944,-3.3476,-3.3807,-3.3807,-3.3807,-3.3807,-3.3807,-3.3807,-3.3807,-3.3807,-3.3807,-3.3807,-3.3807,-3.3807,-3.3917,-3.4174,-3.4412,-3.4541,-3.4578,-3.5147,-3.5404,-3.5404,-3.5404,-3.5404,-3.5349,-3.4761,-3.4541,-3.4614,-3.5183,-3.5404,-3.5477,-3.6083,-3.5899,-3.5495,-3.6101,-3.5899,-3.5514,-3.6101,-3.6303,-3.6256,-3.5976,-3.5879,-3.5817,-3.5598,-3.5299,-3.5304,-3.6399,-3.6652,-3.6652,-3.6652,-3.6835,-3.7184,-3.7734,-3.7845,-3.8028,-3.8597,-3.8707,-3.8707,-3.8707,-3.8707,-3.8707,-3.8707,-3.8707,-3.8707,-3.8707,-3.8707,-3.8707,-3.8707,-3.8707,-3.8707,-3.8707,-3.8707,-3.8707,-3.8707,-3.8707,-3.8707,-3.8707,-3.8707,-3.8707,-3.8707,-3.8707,-3.8707,-3.8707,-3.8707,-3.8707,-1.7515,-1.8055,-1.8558,-1.9233,-2.0273,-2.126,-2.1857,-2.2835,-2.3802,-2.4322,-2.4665,-2.5094,-2.5911,-2.6048,-2.6275,-2.708,-2.7152,-2.7198,-2.7369,-2.7612,-2.8092,-2.899,-2.9326,-2.9856,-3.0784,-3.1323,-3.1737,-3.2049,-3.2525,-3.2826,-3.2852,-3.3146,-3.333,-3.333,-3.3623,-3.3807,-3.3807,-3.3807,-3.3807,-3.3807,-3.3807,-3.3807,-3.3807,-3.3807,-3.3807,-3.3825,-3.4321,-3.4523,-3.4523,-3.4523,-3.4523,-3.4486,-3.399,-3.3807,-3.3862,-3.4357,-3.4523,-3.4614,-3.5128,-3.4879,-3.44,-3.4958,-3.467,-3.4207,-3.4763,-3.4909,-3.4879,-3.4641,-3.456,-3.4497,-3.4303,-3.3898,-3.3852,-3.509,-3.5399,-3.543,-3.5549,-3.5727,-3.6109,-3.6879,-3.6875,-3.7101,-3.8053,-3.8212,-3.8322,-3.8652,-3.8707,-3.8707,-3.8707,-3.8707,-3.8707,-3.8707,-3.8707,-3.8707,-3.8707,-3.8707,-3.8707,-3.8707,-3.8707,-3.8707,-3.8707,-3.8707,-3.8707,-3.8707,-3.8707,-3.8707,-3.8707,-3.8707,-3.8707,-3.8707,-3.8707,-3.8707,-1.8654,-1.9374,-1.961,-2.0247,-2.0846,-2.1493,-2.2152,-2.2971,-2.359,-2.359,-2.4074,-2.4795,-2.5716,-2.5891,-2.615,-2.695,-2.7103,-2.7103,-2.7007,-2.7582,-2.7982,-2.7982,-2.8576,-2.9222,-2.9936,-3.0039,-3.0387,-3.1137,-3.1247,-3.1327,-3.1384,-3.2074,-3.2515,-3.2588,-3.3311,-3.3733,-3.3807,-3.3807,-3.3807,-3.3807,-3.3807,-3.3807,-3.3807,-3.3807,-3.3807,-3.3807,-3.3807,-3.3807,-3.3807,-3.3807,-3.3807,-3.3807,-3.3807,-3.3807,-3.3807,-3.3807,-3.3807,-3.3807,-3.378,-3.355,-3.3273,-3.3243,-3.3063,-3.2795,-3.2795,-3.2795,-3.2795,-3.2763,-3.2731,-3.2731,-3.2699,-3.2699,-3.2894,-3.3639,-3.385,-3.3963,-3.4279,-3.4681,-3.5187,-3.5962,-3.5788,-3.5914,-3.7113,-3.7393,-3.7723,-3.8579,-3.8707,-3.8707,-3.8707,-3.8707,-3.8707,-3.8707,-3.8707,-3.8707,-3.8707,-3.8707,-3.8707,-3.8707,-3.8707,-3.8707,-3.8707,-3.8707,-3.8707,-3.8707,-3.8707,-3.8707,-3.8707,-3.8707,-3.8707,-3.8707,-3.8707,-3.8707,-1.7155,-1.7729,-1.8037,-1.9259,-2.048,-2.157,-2.2237,-2.2524,-2.2671,-2.2671,-2.3278,-2.404,-2.4851,-2.5483,-2.615,-2.692,-2.7149,-2.7195,-2.704,-2.7509,-2.7886,-2.7982,-2.8299,-2.8699,-2.9119,-2.968,-3.0093,-3.0275,-3.0859,-3.1232,-3.1258,-3.1466,-3.1876,-3.2499,-3.2753,-3.3164,-3.3788,-3.3807,-3.3807,-3.3807,-3.3807,-3.3807,-3.3807,-3.3807,-3.3807,-3.3807,-3.3807,-3.3807,-3.3807,-3.3807,-3.3807,-3.3807,-3.3807,-3.3807,-3.3807,-3.3807,-3.3807,-3.3762,-3.3494,-3.335,-3.3262,-3.3001,-3.2858,-3.2795,-3.2795,-3.2795,-3.2749,-3.2504,-3.2403,-3.2352,-3.2073,-3.202,-3.2054,-3.2228,-3.2683,-3.3094,-3.314,-3.3234,-3.3555,-3.4361,-3.4437,-3.4735,-3.5895,-3.6667,-3.7458,-3.8548,-3.8707,-3.8707,-3.8707,-3.8707,-3.8707,-3.8707,-3.8707,-3.8707,-3.8707,-3.8707,-3.8707,-3.8707,-3.8707,-3.8707,-3.8707,-3.8707,-3.8707,-3.8707,-3.8707,-3.8707,-3.8707,-3.8707,-3.8707,-3.8707,-3.8707,-3.8707,-1.6928,-1.7498,-1.7742,-1.9576,-2.0703,-2.1509,-2.2003,-2.2237,-2.2366,-2.2366,-2.2971,-2.3612,-2.4062,-2.505,-2.5936,-2.6328,-2.6783,-2.7103,-2.712,-2.7504,-2.7869,-2.8065,-2.8378,-2.8644,-2.8791,-2.915,-2.938,-2.938,-2.9787,-3.0006,-3.005,-3.0465,-3.0874,-3.1345,-3.1748,-3.229,-3.2967,-3.2985,-3.3112,-3.3332,-3.3332,-3.3332,-3.3332,-3.3634,-3.3807,-3.3807,-3.3807,-3.3807,-3.3807,-3.3807,-3.3807,-3.3762,-3.3606,-3.355,-3.3522,-3.339,-3.3332,-3.3302,-3.3124,-3.297,-3.2781,-3.2619,-3.2453,-3.2335,-3.2335,-3.2335,-3.2266,-3.2126,-3.2055,-3.202,-3.1873,-3.18,-3.18,-3.18,-3.2091,-3.2369,-3.2519,-3.2419,-3.2542,-3.3265,-3.3306,-3.3537,-3.4666,-3.572,-3.6712,-3.7726,-3.801,-3.8267,-3.8652,-3.8707,-3.8707,-3.8707,-3.8707,-3.8707,-3.8707,-3.8707,-3.8707,-3.8707,-3.8707,-3.8707,-3.8707,-3.8515,-3.8515,-3.8707,-3.8322,-3.8322,-3.8707,-3.8303,-3.8322,-3.8707,-3.8707,-3.8707,-1.6745,-1.7605,-1.8064,-2.0256,-2.1007,-2.1308,-2.1631,-2.1991,-2.2209,-2.2209,-2.2755,-2.327,-2.3447,-2.4482,-2.5348,-2.5484,-2.6109,-2.6649,-2.6879,-2.7355,-2.7766,-2.8084,-2.8525,-2.8737,-2.8694,-2.8694,-2.8669,-2.8669,-2.8644,-2.8601,-2.8669,-2.9286,-2.973,-3.0002,-3.0589,-3.1238,-3.188,-3.1823,-3.2056,-3.2567,-3.2709,-3.2763,-3.2795,-3.3361,-3.3625,-3.3625,-3.3625,-3.3625,-3.3625,-3.3625,-3.3625,-3.3606,-3.3302,-3.3214,-3.3184,-3.289,-3.2795,-3.2795,-3.2731,-3.2519,-3.2283,-3.2214,-3.202,-3.18,-3.18,-3.18,-3.18,-3.18,-3.18,-3.18,-3.18,-3.18,-3.18,-3.18,-3.18,-3.1856,-3.2144,-3.2001,-3.1948,-3.2519,-3.247,-3.2649,-3.3715,-3.4738,-3.5716,-3.6566,-3.7044,-3.7546,-3.8222,-3.8392,-3.8483,-3.8483,-3.8483,-3.8483,-3.8483,-3.8483,-3.8483,-3.8483,-3.8483,-3.8483,-3.8483,-3.8168,-3.808,-3.8314,-3.7783,-3.7838,-3.8483,-3.7838,-3.7888,-3.8596,-3.8515,-3.8515,-1.5145,-1.6838,-1.8548,-2.0366,-2.0827,-2.0942,-2.1276,-2.1631,-2.1857,-2.1857,-2.2161,-2.2649,-2.3304,-2.3575,-2.393,-2.4557,-2.4987,-2.5369,-2.5756,-2.6551,-2.7299,-2.778,-2.8317,-2.8637,-2.8712,-2.8662,-2.8612,-2.8612,-2.8352,-2.8183,-2.8183,-2.8126,-2.8546,-2.9539,-2.9444,-2.9901,-3.0972,-3.0677,-3.0902,-3.1622,-3.2346,-3.2716,-3.2734,-3.283,-3.2876,-3.2921,-3.2921,-3.2921,-3.2921,-3.2921,-3.2921,-3.2921,-3.289,-3.2858,-3.2858,-3.2827,-3.2795,-3.2763,-3.247,-3.2352,-3.2249,-3.1965,-3.1837,-3.18,-3.18,-3.18,-3.18,-3.18,-3.18,-3.18,-3.18,-3.18,-3.18,-3.18,-3.18,-3.18,-3.1856,-3.1819,-3.1837,-3.1929,-3.2109,-3.2564,-3.3424,-3.3928,-3.45,-3.5321,-3.6072,-3.6574,-3.6681,-3.7273,-3.765,-3.765,-3.765,-3.765,-3.765,-3.765,-3.765,-3.765,-3.765,-3.765,-3.765,-3.7614,-3.7292,-3.6717,-3.7237,-3.7542,-3.765,-3.7542,-3.7736,-3.8168,-3.7844,-3.7844,-1.5073,-1.7268,-1.9071,-2.0226,-2.0662,-2.0827,-2.0974,-2.1401,-2.1797,-2.1797,-2.2049,-2.2412,-2.2733,-2.3122,-2.3511,-2.3816,-2.4356,-2.4838,-2.5193,-2.5611,-2.6257,-2.7236,-2.7557,-2.7936,-2.8583,-2.8612,-2.8587,-2.8587,-2.8299,-2.8102,-2.8102,-2.7869,-2.7988,-2.8525,-2.8422,-2.8753,-2.9549,-2.9427,-2.9852,-3.0838,-3.1237,-3.162,-3.2038,-3.2038,-3.23,-3.2749,-3.2749,-3.2781,-3.2795,-3.2795,-3.2795,-3.2763,-3.2586,-3.2519,-3.2504,-3.23,-3.2231,-3.2214,-3.2091,-3.202,-3.2001,-3.1856,-3.18,-3.18,-3.18,-3.18,-3.18,-3.18,-3.18,-3.18,-3.18,-3.18,-3.18,-3.18,-3.18,-3.18,-3.18,-3.18,-3.18,-3.18,-3.1929,-3.2124,-3.249,-3.2809,-3.3332,-3.4145,-3.4691,-3.5381,-3.6274,-3.6684,-3.7023,-3.7452,-3.7505,-3.7505,-3.7505,-3.7505,-3.7505,-3.7505,-3.7505,-3.7505,-3.7505,-3.7266,-3.6816,-3.6093,-3.615,-3.6435,-3.6899,-3.6435,-3.6738,-3.7774,-3.7578,-3.7614,-1.5077,-1.7207,-1.8762,-1.9795,-2.0369,-2.0662,-2.0662,-2.1135,-2.157,-2.1661,-2.1945,-2.2209,-2.2282,-2.275,-2.3122,-2.3122,-2.3579,-2.4075,-2.4528,-2.4678,-2.5164,-2.6357,-2.673,-2.7236,-2.8106,-2.8366,-2.8518,-2.8587,-2.8219,-2.7992,-2.7992,-2.7636,-2.7504,-2.7636,-2.756,-2.7766,-2.8251,-2.8345,-2.887,-2.9809,-3.0148,-3.0643,-3.1189,-3.1376,-3.1681,-3.207,-3.2315,-3.2453,-3.2502,-3.2553,-3.2553,-3.2519,-3.2283,-3.2179,-3.2161,-3.1893,-3.18,-3.18,-3.18,-3.18,-3.18,-3.18,-3.18,-3.18,-3.18,-3.18,-3.18,-3.18,-3.18,-3.18,-3.18,-3.18,-3.18,-3.18,-3.18,-3.18,-3.18,-3.18,-3.18,-3.18,-3.18,-3.18,-3.18,-3.202,-3.2389,-3.2984,-3.3424,-3.4217,-3.5633,-3.5988,-3.6395,-3.712,-3.7208,-3.7208,-3.7208,-3.7208,-3.7208,-3.7208,-3.7208,-3.712,-3.6925,-3.6619,-3.6007,-3.5101,-3.4764,-3.5102,-3.6094,-3.5491,-3.5935,-3.7358,-3.7246,-3.7246,-1.4633,-1.5779,-1.6853,-1.8855,-1.9826,-2.0339,-2.0339,-2.0595,-2.0942,-2.1276,-2.1584,-2.1915,-2.2237,-2.2344,-2.2361,-2.2361,-2.2395,-2.2665,-2.3388,-2.3744,-2.4244,-2.5005,-2.5991,-2.6727,-2.704,-2.7727,-2.8255,-2.8587,-2.8045,-2.773,-2.773,-2.71,-2.6891,-2.7213,-2.6923,-2.694,-2.7282,-2.7657,-2.7928,-2.8151,-2.9527,-3.0224,-3.0292,-3.0989,-3.0959,-3.0367,-3.1271,-3.1654,-3.1691,-3.1819,-3.1856,-3.1856,-3.1819,-3.1837,-3.1837,-3.18,-3.18,-3.18,-3.18,-3.18,-3.18,-3.18,-3.18,-3.18,-3.18,-3.18,-3.18,-3.18,-3.18,-3.18,-3.18,-3.18,-3.18,-3.18,-3.18,-3.18,-3.18,-3.18,-3.18,-3.18,-3.18,-3.18,-3.18,-3.18,-3.1837,-3.1871,-3.2493,-3.3273,-3.4103,-3.4829,-3.5555,-3.6298,-3.6367,-3.6367,-3.6367,-3.6367,-3.6367,-3.6367,-3.6367,-3.6056,-3.5348,-3.529,-3.4582,-3.308,-3.3011,-3.3775,-3.5261,-3.5227,-3.5792,-3.6939,-3.6516,-3.6557,-1.3678,-1.5239,-1.7087,-1.8284,-1.9115,-1.9765,-2.0212,-2.0561,-2.0827,-2.0942,-2.1417,-2.1827,-2.1961,-2.2152,-2.231,-2.231,-2.231,-2.2395,-2.2665,-2.2813,-2.3237,-2.4199,-2.4639,-2.5345,-2.6621,-2.6534,-2.6827,-2.7929,-2.7198,-2.6861,-2.7334,-2.6956,-2.6758,-2.6891,-2.6758,-2.6758,-2.6891,-2.7029,-2.7351,-2.7876,-2.8401,-2.8909,-2.9454,-2.9709,-2.9692,-2.9454,-2.9839,-3.0031,-3.0137,-3.0228,-3.0539,-3.0969,-3.1076,-3.1369,-3.18,-3.18,-3.18,-3.18,-3.18,-3.1489,-3.1162,-3.1645,-3.1472,-3.1179,-3.1662,-3.18,-3.18,-3.18,-3.18,-3.18,-3.18,-3.18,-3.18,-3.18,-3.18,-3.18,-3.18,-3.18,-3.18,-3.18,-3.18,-3.18,-3.18,-3.18,-3.18,-3.18,-3.2024,-3.2472,-3.3231,-3.4007,-3.4766,-3.5508,-3.6025,-3.6301,-3.6301,-3.6301,-3.6301,-3.6301,-3.5852,-3.5473,-3.5197,-3.4731,-3.399,-3.2921,-3.2904,-3.3179,-3.3714,-3.4231,-3.4933,-3.5821,-3.616,-3.6367,-1.272,-1.4576,-1.6848,-1.7915,-1.8545,-1.9146,-2.0104,-2.0255,-2.0379,-2.0862,-2.1308,-2.1691,-2.1915,-2.2152,-2.231,-2.231,-2.231,-2.231,-2.231,-2.231,-2.2564,-2.3292,-2.3577,-2.424,-2.5572,-2.5442,-2.5732,-2.6852,-2.6179,-2.5949,-2.6437,-2.6141,-2.6065,-2.6319,-2.6573,-2.6691,-2.6691,-2.659,-2.6791,-2.7452,-2.7549,-2.7936,-2.8602,-2.8873,-2.8839,-2.8586,-2.864,-2.89,-2.9227,-2.935,-2.9695,-3.0176,-3.054,-3.0989,-3.1455,-3.1714,-3.18,-3.1765,-3.1524,-3.1265,-3.1093,-3.1351,-3.1265,-3.1145,-3.1645,-3.18,-3.18,-3.18,-3.18,-3.18,-3.18,-3.18,-3.18,-3.18,-3.18,-3.18,-3.18,-3.18,-3.18,-3.18,-3.18,-3.18,-3.18,-3.18,-3.18,-3.18,-3.18,-3.2076,-3.2817,-3.3369,-3.4076,-3.5076,-3.5421,-3.5663,-3.5904,-3.5697,-3.5559,-3.5559,-3.5094,-3.4697,-3.4438,-3.3955,-3.3317,-3.2559,-3.2524,-3.2524,-3.2524,-3.3317,-3.4214,-3.5197,-3.5697,-3.6143,0.0,0.0,0.0,-1.7685,-1.8099,-1.8419,-1.9931,-1.9633,-1.9491,-2.0958,-2.1275,-2.146,-2.2152,-2.2282,-2.231,-2.231,-2.231,-2.231,-2.231,-2.231,-2.231,-2.231,-2.2936,-2.3505,-2.3843,-2.4499,-2.5056,-2.5358,-2.5101,-2.4965,-2.4982,-2.4688,-2.4831,-2.5592,-2.6285,-2.6674,-2.6691,-2.628,-2.628,-2.6708,-2.7014,-2.7364,-2.7737,-2.8533,-2.8465,-2.7739,-2.7739,-2.8232,-2.9,-2.923,-2.9317,-2.9454,-3.0282,-3.0627,-3.0748,-3.1472,-3.1731,-3.1627,-3.0903,-3.1127,-3.161,-3.0886,-3.1162,-3.1765,-3.1765,-3.1765,-3.18,-3.18,-3.18,-3.18,-3.18,-3.18,-3.18,-3.18,-3.18,-3.18,-3.18,-3.18,-3.18,-3.18,-3.18,-3.18,-3.18,-3.18,-3.18,-3.18,-3.18,-3.2059,-3.2783,-3.2886,-3.3473,-3.4956,-3.4507,-3.4387,-3.5111,-3.449,-3.4093,-3.4093,-3.4059,-3.3697,-3.2938,-3.2886,-3.2524,-3.18,-3.18,-3.18,-3.18,-3.2541,-3.3662,-3.5128,-3.5186,-3.5769,-1.1925,0.0,0.0,0.0,0.0,0.0,-1.9007,-1.8812,-1.8791,-2.0445,-2.0591,-2.0736,-2.1757,-2.2152,-2.231,-2.231,-2.231,-2.231,-2.231,-2.231,-2.231,-2.231,-2.2496,-2.2846,-2.3471,-2.3232,-2.3516,-2.4658,-2.4193,-2.4066,-2.4611,-2.4537,-2.4831,-2.5592,-2.5812,-2.6167,-2.6691,-2.628,-2.6175,-2.6245,-2.6085,-2.602,-2.6147,-2.636,-2.6344,-2.6147,-2.6147,-2.6282,-2.6554,-2.7143,-2.7725,-2.8269,-2.8612,-2.9179,-2.9868,-3.0058,-3.0144,-3.0075,-2.9675,-2.9619,-2.9719,-2.9386,-2.9864,-3.0626,-3.0646,-3.1188,-3.18,-3.18,-3.18,-3.18,-3.18,-3.18,-3.18,-3.18,-3.18,-3.18,-3.18,-3.18,-3.18,-3.18,-3.18,-3.18,-3.18,-3.18,-3.18,-3.18,-3.18,-3.1869,-3.2076,-3.2576,-3.3059,-3.349,-3.3869,-3.4162,-3.4387,-3.4197,-3.4093,-3.4093,-3.3542,-3.3128,-3.2904,-3.2386,-3.2007,-3.18,-3.18,-3.18,-3.18,-3.2541,-3.3128,-3.3559,-3.4366,-3.4923,-1.2059,-1.2955,-1.4363,-1.5153,0.0,0.0,-1.8115,-1.8245,-1.8497,-2.0315,-2.0528,-2.0651,-2.1442,-2.1857,-2.2077,-2.2077,-2.2209,-2.231,-2.231,-2.231,-2.231,-2.231,-2.231,-2.2479,-2.2902,-2.2564,-2.2665,-2.3511,-2.3173,-2.3122,-2.3562,-2.3866,-2.4374,-2.5118,-2.5439,-2.5881,-2.6419,-2.6052,-2.5835,-2.5835,-2.5427,-2.5351,-2.5503,-2.5503,-2.5503,-2.5503,-2.5503,-2.5465,-2.5406,-2.5832,-2.6369,-2.6964,-2.7372,-2.7902,-2.8467,-2.8789,-2.8907,-2.8856,-2.8353,-2.8364,-2.8582,-2.8206,-2.8883,-2.9892,-2.9985,-3.0662,-3.1372,-3.1372,-3.1372,-3.1372,-3.1372,-3.1372,-3.1428,-3.1542,-3.1579,-3.1634,-3.1763,-3.18,-3.18,-3.18,-3.18,-3.18,-3.18,-3.18,-3.18,-3.18,-3.18,-3.18,-3.18,-3.2179,-3.2559,-3.2869,-3.3041,-3.3266,-3.3559,-3.3317,-3.3128,-3.3128,-3.2697,-3.2438,-3.2438,-3.2024,-3.18,-3.18,-3.18,-3.18,-3.18,-3.2231,-3.261,-3.2921,-3.41,-3.4653,-1.2509,-1.3277,-1.452,-1.4978,-1.5264,0.0,-1.7262,-1.7676,-1.8326,-2.0205,-2.0555,-2.0702,-2.1181,-2.1458,-2.1622,-2.1705,-2.1953,-2.2153,-2.2265,-2.231,-2.231,-2.231,-2.231,-2.231,-2.231,-2.231,-2.231,-2.231,-2.231,-2.2282,-2.2254,-2.2861,-2.3587,-2.4349,-2.5023,-2.5581,-2.6016,-2.5652,-2.5427,-2.5427,-2.502,-2.502,-2.5351,-2.5351,-2.5351,-2.5351,-2.5351,-2.5291,-2.5114,-2.5114,-2.5307,-2.5749,-2.6428,-2.6749,-2.6869,-2.7564,-2.7865,-2.7728,-2.6978,-2.724,-2.7827,-2.7168,-2.7987,-2.9258,-2.9521,-3.0118,-3.0687,-3.0771,-3.0804,-3.0804,-3.0804,-3.0845,-3.0925,-3.1218,-3.1334,-3.1428,-3.1763,-3.18,-3.18,-3.18,-3.18,-3.18,-3.18,-3.18,-3.18,-3.18,-3.18,-3.18,-3.18,-3.18,-3.2041,-3.2714,-3.2179,-3.2059,-3.2714,-3.2179,-3.18,-3.18,-3.18,-3.18,-3.18,-3.18,-3.18,-3.18,-3.18,-3.18,-3.18,-3.18,-3.2145,-3.28,-3.3927,-3.4426,-1.4717,-1.4673,-1.4658,-1.5019,-1.5504,0.0,-1.6146,-1.6337,-1.6996,-1.8888,-1.9058,-1.9327,-2.0799,-2.0667,-2.0536,-2.1069,-2.1016,-2.1244,-2.2169,-2.231,-2.231,-2.231,-2.231,-2.231,-2.231,-2.231,-2.231,-2.231,-2.231,-2.218,-2.1915,-2.2019,-2.2562,-2.3569,-2.3749,-2.44,-2.5598,-2.5198,-2.502,-2.502,-2.4614,-2.4451,-2.4533,-2.4533,-2.4533,-2.4533,-2.4533,-2.4492,-2.4467,-2.4467,-2.4879,-2.546,-2.5643,-2.5826,-2.6049,-2.618,-2.6245,-2.6192,-2.5799,-2.616,-2.6606,-2.5718,-2.6661,-2.8174,-2.823,-2.9075,-3.0124,-3.0637,-3.0804,-3.0804,-3.0804,-3.1004,-3.1218,-3.1295,-3.1504,-3.1709,-3.18,-3.18,-3.18,-3.18,-3.18,-3.18,-3.18,-3.18,-3.18,-3.18,-3.18,-3.18,-3.18,-3.18,-3.1852,-3.199,-3.1886,-3.1852,-3.199,-3.1886,-3.18,-3.18,-3.18,-3.18,-3.18,-3.18,-3.18,-3.18,-3.18,-3.18,-3.18,-3.18,-3.1869,-3.2024,-3.2528,-3.2774,-1.5121,-1.5042,-1.5,-1.4862,-1.5425,0.0,0.0,-1.6636,-1.752,-1.8872,-1.8913,-1.8978,-1.984,-1.9846,-1.9846,-2.0194,-2.0587,-2.1051,-2.1609,-2.2049,-2.231,-2.231,-2.231,-2.231,-2.231,-2.231,-2.231,-2.231,-2.2152,-2.1991,-2.1827,-2.1631,-2.1969,-2.2881,-2.2913,-2.349,-2.4708,-2.4496,-2.4453,-2.4599,-2.4385,-2.4302,-2.4302,-2.4302,-2.4302,-2.4302,-2.4302,-2.4302,-2.4302,-2.4302,-2.4533,-2.4839,-2.4839,-2.4942,-2.5044,-2.5044,-2.5044,-2.5044,-2.4918,-2.506,-2.5296,-2.4901,-2.5726,-2.6814,-2.6896,-2.7997,-2.9297,-3.0128,-3.0342,-3.0342,-3.0342,-3.0576,-3.0828,-3.1004,-3.1295,-3.1596,-3.1746,-3.18,-3.18,-3.18,-3.18,-3.18,-3.18,-3.18,-3.18,-3.18,-3.18,-3.18,-3.18,-3.18,-3.18,-3.18,-3.18,-3.18,-3.18,-3.18,-3.18,-3.18,-3.18,-3.18,-3.18,-3.18,-3.18,-3.18,-3.18,-3.18,-3.18,-3.1965,-3.1948,-3.18,-3.1948,-3.2055,-1.5319,-1.5447,-1.5683,-1.5082,-1.5591,-1.62,0.0,0.0,0.0,-1.8892,-1.8936,-1.8899,-1.9103,-1.9142,-1.9262,-1.9477,-2.0131,-2.0671,-2.0895,-2.1568,-2.2049,-2.2106,-2.2209,-2.2282,-2.2209,-2.2209,-2.2209,-2.2209,-2.1886,-2.1661,-2.1601,-2.1339,-2.1521,-2.2163,-2.2179,-2.2652,-2.3595,-2.3737,-2.3905,-2.4117,-2.4241,-2.4302,-2.4302,-2.4302,-2.4302,-2.4302,-2.4302,-2.4302,-2.4302,-2.4302,-2.4302,-2.4302,-2.4302,-2.4302,-2.4302,-2.4302,-2.4302,-2.4302,-2.4302,-2.4302,-2.4343,-2.4467,-2.5098,-2.5801,-2.5993,-2.7285,-2.8791,-2.9572,-2.9919,-3.006,-3.006,-3.0284,-3.0543,-3.0845,-3.1123,-3.1466,-3.1746,-3.18,-3.18,-3.18,-3.18,-3.18,-3.18,-3.18,-3.18,-3.18,-3.18,-3.18,-3.18,-3.18,-3.18,-3.18,-3.18,-3.18,-3.18,-3.18,-3.18,-3.18,-3.18,-3.18,-3.18,-3.18,-3.18,-3.18,-3.18,-3.18,-3.18,-3.2055,-3.2055,-3.18,-3.1929,-3.1948,-1.6801,-1.695,-1.6872,-1.6323,-1.6638,-1.6822,-1.5836,0.0,-1.7123,-1.7706,0.0,-1.8496,-1.943,0.0,0.0,-1.9481,-1.9144,-1.9092,-2.0244,-2.0829,-2.1197,-2.1401,-2.1961,-2.218,-2.1886,-2.1857,-2.1857,-2.1857,-2.157,-2.1214,-2.0909,-2.0893,-2.1043,-2.1435,-2.1414,-2.1786,-2.2454,-2.3072,-2.3372,-2.3425,-2.4025,-2.4302,-2.4302,-2.4302,-2.4302,-2.4302,-2.4302,-2.4302,-2.4302,-2.4302,-2.4302,-2.4302,-2.4302,-2.4302,-2.4302,-2.4302,-2.4302,-2.4302,-2.4302,-2.4302,-2.4302,-2.4343,-2.5056,-2.5993,-2.6181,-2.7648,-2.9247,-2.9329,-2.9996,-3.0683,-3.0683,-3.0925,-3.1218,-3.1218,-3.1504,-3.1746,-3.18,-3.18,-3.18,-3.18,-3.18,-3.18,-3.18,-3.18,-3.18,-3.18,-3.18,-3.18,-3.18,-3.18,-3.18,-3.18,-3.18,-3.18,-3.18,-3.18,-3.18,-3.18,-3.18,-3.18,-3.18,-3.18,-3.18,-3.18,-3.18,-3.18,-3.18,-3.1837,-3.1837,-3.18,-3.2419,-3.2519,-1.7073,-1.7157,-1.7063,-1.6911,-1.6988,-1.6998,-1.6598,-1.697,-1.7448,-1.7658,0.0,0.0,0.0,0.0,0.0,0.0,-1.9178,-1.9287,-1.9455,-1.9855,-2.0385,-2.1054,-2.1415,-2.1645,-2.1781,-2.1797,-2.1797,-2.1797,-2.1324,-2.0942,-2.0794,-2.0628,-2.0565,-2.072,-2.0736,-2.106,-2.1701,-2.1993,-2.2317,-2.2717,-2.3394,-2.3717,-2.3733,-2.4133,-2.4302,-2.4302,-2.4302,-2.4302,-2.4302,-2.4302,-2.4302,-2.4302,-2.4302,-2.4302,-2.4302,-2.4302,-2.4302,-2.4302,-2.4302,-2.4302,-2.4302,-2.4302,-2.4627,-2.5129,-2.5784,-2.6798,-2.7929,-2.8634,-2.9404,-3.0097,-3.0368,-3.0493,-3.0642,-3.1038,-3.1179,-3.1295,-3.1617,-3.1651,-3.1651,-3.1671,-3.1651,-3.1631,-3.1631,-3.1726,-3.18,-3.18,-3.18,-3.18,-3.18,-3.18,-3.18,-3.18,-3.18,-3.18,-3.18,-3.18,-3.18,-3.18,-3.18,-3.18,-3.18,-3.1709,-3.1654,-3.1654,-3.1651,-3.1631,-3.1631,-3.1839,-3.1802,-3.1631,-3.2038,-3.2144,-1.6795,-1.6892,-1.6863,-1.7115,-1.7115,-1.7073,-1.7199,-1.7434,-1.7679,-1.7787,-1.7685,0.0,0.0,0.0,-1.813,-1.8697,0.0,-1.928,-1.9135,-1.9198,-1.9574,-2.0367,-2.075,-2.115,-2.1631,-2.157,-2.154,-2.154,-2.0974,-2.0662,-2.0662,-2.0426,-2.0304,-2.0304,-2.0304,-2.0535,-2.1029,-2.1229,-2.1532,-2.2024,-2.2701,-2.3025,-2.304,-2.3717,-2.4025,-2.404,-2.4225,-2.4302,-2.4302,-2.4302,-2.4302,-2.4302,-2.4302,-2.4302,-2.4302,-2.4302,-2.4302,-2.4302,-2.4302,-2.4302,-2.4302,-2.4302,-2.4343,-2.4519,-2.5181,-2.5973,-2.6878,-2.7934,-2.8812,-2.9507,-3.0021,-3.0097,-3.0166,-3.0781,-3.0861,-3.0925,-3.1466,-3.1538,-3.15,-3.1559,-3.1538,-3.1517,-3.1517,-3.1614,-3.1726,-3.1726,-3.1726,-3.1726,-3.1726,-3.1726,-3.1726,-3.1726,-3.1726,-3.1726,-3.1726,-3.1726,-3.1726,-3.1726,-3.1726,-3.1726,-3.1726,-3.1634,-3.1559,-3.1559,-3.15,-3.1517,-3.1517,-3.1748,-3.1728,-3.1517,-3.1856,-3.1948,-1.5996,-1.6312,-1.6441,-1.706,-1.7199,-1.7199,-1.7199,-1.7199,-1.7323,-1.772,-1.7774,-1.7921,-1.8394,-1.7955,-1.7856,-1.8933,-1.8564,0.0,0.0,-1.9141,-1.882,-1.9034,-1.9973,-2.078,-2.126,-2.1039,-2.0827,-2.0827,-2.0494,-2.0304,-2.0304,-2.0304,-2.0304,-2.0304,-2.0304,-2.032,-2.0335,-2.0998,-2.1322,-2.1353,-2.1993,-2.2317,-2.2332,-2.3025,-2.3332,-2.3363,-2.4025,-2.4302,-2.4302,-2.4302,-2.4302,-2.4302,-2.4302,-2.4302,-2.4302,-2.4302,-2.4302,-2.4302,-2.4302,-2.4302,-2.4302,-2.4302,-2.4426,-2.4589,-2.462,-2.5504,-2.6654,-2.734,-2.8298,-2.9247,-2.9936,-3.0091,-3.0218,-3.0707,-3.0804,-3.0925,-3.1385,-3.1517,-3.1517,-3.1517,-3.1517,-3.1517,-3.1517,-3.1517,-3.1517,-3.1517,-3.1517,-3.1517,-3.1517,-3.1517,-3.1517,-3.1517,-3.1517,-3.1517,-3.1517,-3.1517,-3.1517,-3.1517,-3.1517,-3.1517,-3.1517,-3.1517,-3.1517,-3.1517,-3.1517,-3.1517,-3.1517,-3.1517,-3.1517,-3.1517,-3.2179,-3.2282,-1.5511,-1.5656,-1.5788,-1.6441,-1.6527,-1.6612,-1.7102,-1.7199,-1.724,-1.7352,-1.7393,-1.7516,-1.7948,-1.7863,-1.7912,-1.8588,-1.8726,-1.8586,0.0,-1.764,-1.7597,-1.8193,-1.9162,-1.989,-2.0162,-2.0461,-2.0523,-2.0162,-2.0244,-2.0304,-2.0304,-2.0304,-2.0304,-2.0304,-2.0304,-2.0304,-2.0304,-2.0535,-2.0643,-2.0659,-2.1337,-2.1624,-2.1639,-2.2317,-2.2871,-2.3302,-2.3533,-2.3887,-2.4302,-2.4302,-2.4302,-2.4302,-2.4302,-2.4302,-2.4302,-2.4302,-2.4302,-2.4302,-2.4302,-2.4302,-2.4302,-2.4302,-2.4343,-2.4385,-2.4385,-2.5015,-2.5895,-2.6713,-2.7537,-2.8395,-2.9392,-2.9406,-2.9332,-2.9995,-3.014,-3.0267,-3.0804,-3.1117,-3.1308,-3.1368,-3.1329,-3.1308,-3.1308,-3.1308,-3.1363,-3.1479,-3.1517,-3.1517,-3.1517,-3.1517,-3.1517,-3.1517,-3.1517,-3.1517,-3.1517,-3.1517,-3.1517,-3.1517,-3.1517,-3.1517,-3.1517,-3.1406,-3.1351,-3.1351,-3.1329,-3.1308,-3.1308,-3.1308,-3.1308,-3.1308,-3.1768,-3.186,-1.4971,-1.5062,-1.5152,-1.582,-1.5908,-1.6039,-1.671,-1.6892,-1.6934,-1.7073,-1.7157,-1.7282,-1.7434,-1.7557,-1.772,-1.8147,-1.8461,-1.8266,0.0,-1.7084,-1.7251,-1.7782,-1.8629,-1.9364,-1.9745,-1.9947,-2.0026,-1.9986,-1.996,-2.0058,-2.0289,-2.0304,-2.027,-2.015,-2.0115,-2.008,-1.999,-1.999,-1.999,-1.999,-2.0415,-2.0649,-2.0773,-2.1445,-2.221,-2.2963,-2.3194,-2.3686,-2.4302,-2.4302,-2.4302,-2.4302,-2.4302,-2.4302,-2.4302,-2.4302,-2.4302,-2.4302,-2.4302,-2.4302,-2.4302,-2.4302,-2.4302,-2.4302,-2.4302,-2.461,-2.5191,-2.6264,-2.6898,-2.7532,-2.8745,-2.8826,-2.8748,-2.9393,-2.9528,-2.9705,-3.0208,-3.0518,-3.074,-3.0965,-3.0982,-3.1015,-3.119,-3.119,-3.123,-3.1346,-3.1402,-3.1402,-3.1402,-3.1402,-3.1402,-3.1402,-3.1402,-3.1402,-3.1402,-3.1402,-3.1402,-3.1402,-3.1402,-3.1402,-3.1402,-3.1291,-3.1274,-3.1274,-3.1213,-3.119,-3.119,-3.119,-3.119,-3.119,-3.1428,-3.1466]}]]